[[{"header":{"parameterUnit":"m.s-1","parameterCategory":1,"la1":31.0,"la2":29.5877,"lo1":-88.7671,"lo2":-86.6584,"dx":0.0162,"dy":0.0185,"nx":115,"ny":88,"refTime":"2022-11-27T06:00:00:Z","depth":0,"parameterNumber":2,"parameterNumberName":"U-component_of_WINDS"},"data":[0.0,0.0,0.0,0.0,0.0,0.0,0.0,0.0,0.0,0.0,0.0,0.0,0.0,0.0,0.0,0.0,0.0,0.0,0.0,0.0,0.0,0.0,0.0,0.0,0.0,0.0,0.0,0.0,0.0,0.0,0.0,0.0,0.0,0.0,0.0,0.0,0.0,0.0,0.0,0.0,0.0,0.0,0.0,0.0,0.0,0.0,0.0,0.0,0.0,0.0,0.0,0.0,0.0,0.0,0.0,0.0,0.0,0.0,0.0,0.0,0.0,0.0,0.0,0.0,0.0,0.0,0.0,0.0,0.0,0.0,0.0,0.0,0.0,0.0,0.0,0.0,0.0,0.0,0.0,0.0,0.0,0.0,0.0,0.0,0.0,0.0,0.0,0.0,0.0,0.0,0.0,0.0,0.0,0.0,0.0,0.0,0.0,0.0,0.0,0.0,0.0,0.0,0.0,0.0,0.0,0.0,0.0,0.0,0.0,0.0,0.0,0.0,0.0,0.0,0.0,0.0,0.0,0.0,0.0,0.0,0.0,0.0,0.0,0.0,0.0,0.0,0.0,0.0,0.0,0.0,0.0,0.0,0.0,0.0,0.0,0.0,0.0,0.0,0.0,0.0,0.0,0.0,0.0,0.0,0.0,0.0,0.0,0.0,0.0,0.0,0.0,0.0,0.0,0.0,0.0,0.0,0.0,0.0,0.0,0.0,0.0,0.0,0.0,0.0,0.0,0.0,0.0,0.0,0.0,0.0,0.0,0.0,0.0,0.0,0.0,0.0,0.0,0.0,0.0,0.0,0.0,0.0,0.0,0.0,0.0,0.0,0.0,0.0,0.0,0.0,0.0,0.0,0.0,0.0,0.0,0.0,0.0,0.0,0.0,0.0,0.0,0.0,0.0,0.0,0.0,0.0,0.0,0.0,0.0,0.0,0.0,0.0,0.0,0.0,0.0,0.0,0.0,0.0,0.0,0.0,0.0,0.0,0.0,0.0,0.0,0.0,0.0,0.0,0.0,0.0,0.0,0.0,0.0,0.0,0.0,0.0,0.0,0.0,0.0,0.0,0.0,0.0,0.0,0.0,0.0,0.0,0.0,0.0,0.0,0.0,0.0,0.0,0.0,0.0,0.0,0.0,0.0,0.0,0.0,0.0,0.0,0.0,0.0,0.0,0.0,0.0,0.0,0.0,0.0,0.0,0.0,0.0,0.0,0.0,0.0,0.0,0.0,0.0,0.0,0.0,0.0,0.0,0.0,0.0,0.0,0.0,0.0,0.0,0.0,0.0,0.0,0.0,0.0,0.0,0.0,0.0,0.0,0.0,0.0,0.0,0.0,0.0,0.0,0.0,0.0,0.0,0.0,0.0,0.0,0.0,0.0,0.0,0.0,0.0,0.0,0.0,0.0,0.0,0.0,0.0,0.0,0.0,0.0,0.0,0.0,0.0,0.0,0.0,0.0,0.0,0.0,0.0,0.0,0.0,0.0,0.0,0.0,0.0,0.0,0.0,0.0,0.0,0.0,0.0,0.0,0.0,0.0,0.0,0.0,0.0,0.0,0.0,0.0,0.0,0.0,0.0,0.0,0.0,0.0,0.0,0.0,0.0,0.0,0.0,0.0,0.0,0.0,0.0,0.0,0.0,0.0,0.0,0.0,0.0,0.0,0.0,0.0,0.0,0.0,0.0,0.0,0.0,0.0,0.0,0.0,0.0,0.0,0.0,0.0,0.0,0.0,0.0,0.0,0.0,0.0,0.0,0.0,0.0,0.0,0.0,0.0,0.0,0.0,0.0,0.0,0.0,0.0,0.0,0.0,0.0,0.0,0.0,0.0,0.0,0.0,0.0,0.0,0.0,0.0,0.0,0.0,0.0,0.0,0.0,0.0,0.0,0.0,0.0,0.0,0.0,0.0,0.0,0.0,0.0,0.0,0.0,0.0,0.0,0.0,0.0,0.0,0.0,0.0,0.0,0.0,0.0,0.0,0.0,0.0,0.0,0.0,0.0,0.0,0.0,0.0,0.0,0.0,0.0,0.0,0.0,0.0,0.0,0.0,0.0,0.0,0.0,0.0,0.0,0.0,0.0,0.0,0.0,0.0,0.0,0.0,0.0,0.0,0.0,0.0,0.0,0.0,0.0,0.0,0.0,0.0,0.0,0.0,0.0,0.0,0.0,0.0,0.0,0.0,0.0,0.0,0.0,0.0,0.0,0.0,0.0,0.0,0.0,0.0,0.0,0.0,0.0,0.0,0.0,0.0,0.0,0.0,0.0,0.0,0.0,0.0,0.0,0.0,0.0,0.0,0.0,0.0,0.0,0.0,0.0,0.0,0.0,0.0,0.0,0.0,0.0,0.0,0.0,0.0,0.0,0.0,0.0,0.0,0.0,0.0,0.0,0.0,0.0,0.0,0.0,0.0,0.0,0.0,0.0,0.0,0.0,0.0,0.0,0.0,0.0,0.0,0.0,0.0,0.0,0.0,0.0,0.0,0.0,0.0,0.0,0.0,0.0,0.0,0.0,0.0,0.0,0.0,0.0,0.0,0.0,0.0,0.0,0.0,0.0,0.0,0.0,0.0,0.0,0.0,0.0,0.0,0.0,0.0,0.0,0.0,0.0,0.0,0.0,0.0,0.0,0.0,0.0,0.0,0.0,0.0,0.0,0.0,0.0,0.0,0.0,0.0,0.0,0.0,0.0,0.0,0.0,0.0,0.0,0.0,0.0,0.0,0.0,0.0,0.0,0.0,0.0,0.0,0.0,0.0,0.0,0.0,0.0,0.0,0.0,0.0,0.0,0.0,0.0,0.0,0.0,0.0,0.0,0.0,0.0,0.0,0.0,0.0,0.0,0.0,0.0,0.0,0.0,0.0,0.0,0.0,0.0,0.0,0.0,0.0,0.0,0.0,0.0,0.0,0.0,0.0,0.0,0.0,0.0,0.0,0.0,0.0,0.0,0.0,0.0,0.0,0.0,0.0,0.0,0.0,0.0,0.0,0.0,0.0,0.0,0.0,0.0,0.0,0.0,0.0,0.0,0.0,0.0,0.0,0.0,0.0,0.0,0.0,0.0,0.0,0.0,0.0,0.0,0.0,0.0,0.0,0.0,0.0,0.0,0.0,0.0,0.0,0.0,0.0,0.0,0.0,0.0,0.0,0.0,0.0,0.0,0.0,0.0,0.0,0.0,0.0,0.0,0.0,0.0,0.0,0.0,0.0,0.0,0.0,0.0,0.0,0.0,0.0,0.0,0.0,0.0,0.0,0.0,0.0,0.0,0.0,0.0,0.0,0.0,0.0,0.0,0.0,0.0,0.0,0.0,0.0,0.0,0.0,0.0,0.0,0.0,0.0,0.0,0.0,0.0,0.0,0.0,0.0,0.0,0.0,0.0,0.0,0.0,0.0,0.0,0.0,0.0,0.0,0.0,0.0,0.0,0.0,0.0,0.0,0.0,0.0,0.0,0.0,0.0,0.0,0.0,0.0,0.0,0.0,0.0,0.0,0.0,0.0,0.0,0.0,0.0,0.0,0.0,0.0,0.0,0.0,0.0,0.0,0.0,0.0,0.0,0.0,0.0,0.0,0.0,0.0,0.0,0.0,0.0,0.0,0.0,0.0,0.0,0.0,0.0,0.0,0.0,0.0,0.0,0.0,0.0,0.0,0.0,0.0,0.0,0.0,0.0,0.0,0.0,0.0,0.0,0.0,0.0,0.0,0.0,0.0,0.0,0.0,0.0,0.0,0.0,0.0,0.0,0.0,0.0,0.0,0.0,0.0,0.0,0.0,0.0,0.0,0.0,0.0,0.0,0.0,0.0,0.0,0.0,0.0,0.0,0.0,0.0,0.0,0.0,0.0,0.0,0.0,0.0,0.0,0.0,0.0,0.0,0.0,0.0,0.0,0.0,0.0,0.0,0.0,0.0,0.0,0.0,0.0,0.0,0.0,0.0,0.0,0.0,0.0,0.0,0.0,0.0,0.0,0.0,0.0,0.0,0.0,0.0,0.0,0.0,0.0,0.0,0.0,0.0,0.0,0.0,0.0,0.0,0.0,0.0,0.0,0.0,0.0,0.0,0.0,0.0,0.0,0.0,0.0,0.0,0.0,0.0,0.0,0.0,0.0,0.0,0.0,0.0,0.0,0.0,0.0,0.0,0.0,0.0,0.0,0.0,0.0,0.0,0.0,0.0,0.0,0.0,0.0,0.0,0.0,0.0,0.0,0.0,0.0,0.0,0.0,0.0,0.0,0.0,0.0,0.0,0.0,0.0,-2.3243,0.0,0.0,0.0,-2.2048,0.0,0.0,0.0,0.0,0.0,0.0,0.0,0.0,0.0,0.0,0.0,0.0,0.0,0.0,0.0,0.0,0.0,0.0,0.0,0.0,0.0,0.0,0.0,0.0,0.0,0.0,0.0,0.0,0.0,0.0,0.0,0.0,0.0,0.0,0.0,0.0,0.0,0.0,0.0,0.0,0.0,0.0,0.0,0.0,0.0,0.0,0.0,0.0,0.0,0.0,0.0,0.0,0.0,0.0,0.0,0.0,0.0,0.0,0.0,0.0,0.0,0.0,0.0,0.0,0.0,0.0,0.0,0.0,0.0,0.0,0.0,0.0,0.0,0.0,0.0,0.0,0.0,0.0,0.0,0.0,0.0,0.0,0.0,0.0,0.0,0.0,0.0,0.0,0.0,0.0,0.0,0.0,0.0,0.0,0.0,0.0,0.0,0.0,0.0,0.0,0.0,0.0,0.0,0.0,0.0,0.0,0.0,0.0,0.0,0.0,-2.3118,-2.2369,-2.3503,-2.3477,-2.1957,0.0,0.0,0.0,0.0,0.0,0.0,0.0,0.0,0.0,0.0,0.0,0.0,0.0,0.0,0.0,0.0,0.0,0.0,0.0,0.0,0.0,0.0,0.0,0.0,0.0,0.0,0.0,0.0,0.0,0.0,0.0,0.0,0.0,0.0,0.0,0.0,0.0,0.0,0.0,0.0,0.0,0.0,0.0,0.0,0.0,0.0,0.0,0.0,0.0,0.0,0.0,0.0,0.0,0.0,0.0,0.0,0.0,0.0,0.0,0.0,0.0,0.0,0.0,0.0,0.0,0.0,0.0,0.0,0.0,0.0,0.0,0.0,0.0,0.0,0.0,0.0,0.0,0.0,0.0,0.0,0.0,0.0,0.0,0.0,0.0,0.0,0.0,0.0,0.0,0.0,0.0,0.0,0.0,0.0,0.0,0.0,0.0,0.0,0.0,0.0,0.0,0.0,0.0,0.0,0.0,0.0,0.0,0.0,0.0,0.0,0.0,0.0,-2.4116,-2.4138,-2.2099,0.0,0.0,0.0,0.0,0.0,0.0,0.0,0.0,0.0,0.0,0.0,0.0,0.0,0.0,0.0,0.0,0.0,0.0,0.0,0.0,0.0,0.0,0.0,0.0,0.0,0.0,0.0,0.0,0.0,0.0,0.0,0.0,0.0,0.0,0.0,0.0,0.0,0.0,0.0,0.0,0.0,0.0,0.0,0.0,0.0,0.0,0.0,0.0,0.0,0.0,0.0,0.0,0.0,0.0,0.0,0.0,0.0,0.0,0.0,0.0,0.0,0.0,0.0,0.0,0.0,0.0,0.0,0.0,0.0,0.0,0.0,0.0,0.0,0.0,0.0,0.0,0.0,0.0,0.0,0.0,0.0,0.0,0.0,0.0,0.0,0.0,0.0,0.0,0.0,0.0,0.0,0.0,0.0,0.0,0.0,0.0,0.0,0.0,0.0,0.0,0.0,0.0,0.0,0.0,0.0,0.0,0.0,0.0,0.0,0.0,-2.1659,-2.2316,-2.3125,0.0,-2.2674,0.0,0.0,0.0,0.0,0.0,0.0,0.0,0.0,0.0,0.0,0.0,0.0,0.0,0.0,0.0,0.0,0.0,0.0,0.0,0.0,0.0,0.0,0.0,0.0,0.0,0.0,0.0,0.0,0.0,0.0,0.0,0.0,0.0,0.0,0.0,0.0,0.0,0.0,0.0,0.0,0.0,0.0,0.0,0.0,0.0,0.0,0.0,0.0,0.0,0.0,0.0,0.0,0.0,0.0,0.0,0.0,0.0,0.0,0.0,0.0,0.0,0.0,0.0,0.0,0.0,0.0,0.0,0.0,0.0,0.0,0.0,0.0,0.0,0.0,0.0,0.0,0.0,0.0,0.0,0.0,0.0,0.0,0.0,0.0,0.0,0.0,0.0,0.0,0.0,0.0,0.0,0.0,0.0,0.0,0.0,0.0,0.0,0.0,0.0,0.0,0.0,0.0,0.0,0.0,0.0,0.0,0.0,0.0,0.0,0.0,-2.1689,-2.3156,-2.3547,-2.335,0.0,0.0,0.0,0.0,0.0,0.0,0.0,0.0,0.0,0.0,0.0,0.0,0.0,0.0,0.0,0.0,0.0,0.0,0.0,0.0,0.0,0.0,0.0,0.0,0.0,0.0,0.0,0.0,0.0,0.0,0.0,0.0,0.0,0.0,0.0,0.0,0.0,0.0,0.0,0.0,0.0,0.0,0.0,0.0,0.0,0.0,0.0,0.0,0.0,0.0,0.0,0.0,0.0,0.0,0.0,0.0,0.0,0.0,0.0,0.0,0.0,0.0,0.0,0.0,0.0,0.0,0.0,0.0,0.0,0.0,0.0,0.0,0.0,0.0,0.0,0.0,0.0,0.0,0.0,0.0,0.0,0.0,0.0,0.0,0.0,0.0,0.0,0.0,0.0,0.0,0.0,0.0,0.0,0.0,0.0,0.0,0.0,0.0,0.0,0.0,0.0,0.0,0.0,0.0,0.0,0.0,0.0,0.0,0.0,0.0,-2.0504,-2.1788,-2.3691,-2.3667,-2.3076,-2.2251,0.0,0.0,0.0,0.0,0.0,0.0,0.0,0.0,0.0,0.0,0.0,0.0,0.0,0.0,0.0,0.0,0.0,0.0,0.0,0.0,0.0,0.0,0.0,0.0,0.0,0.0,0.0,0.0,0.0,0.0,0.0,0.0,0.0,0.0,0.0,0.0,0.0,0.0,0.0,0.0,0.0,0.0,0.0,0.0,0.0,0.0,0.0,0.0,0.0,0.0,0.0,0.0,0.0,0.0,0.0,0.0,0.0,0.0,0.0,0.0,0.0,0.0,0.0,0.0,0.0,0.0,0.0,0.0,0.0,0.0,0.0,0.0,0.0,0.0,0.0,0.0,0.0,0.0,0.0,0.0,0.0,0.0,0.0,0.0,0.0,0.0,0.0,0.0,0.0,0.0,0.0,0.0,0.0,0.0,0.0,0.0,0.0,0.0,0.0,0.0,0.0,0.0,0.0,0.0,0.0,0.0,0.0,0.0,-1.9319,-2.0222,-2.171,-2.3822,-2.2744,-2.2154,0.0,0.0,0.0,0.0,0.0,0.0,0.0,0.0,0.0,0.0,0.0,0.0,0.0,0.0,0.0,0.0,0.0,0.0,0.0,0.0,0.0,0.0,0.0,0.0,0.0,0.0,0.0,0.0,0.0,0.0,0.0,0.0,0.0,0.0,0.0,0.0,0.0,0.0,0.0,0.0,0.0,0.0,0.0,0.0,0.0,0.0,0.0,0.0,0.0,0.0,0.0,0.0,0.0,0.0,0.0,0.0,0.0,0.0,0.0,0.0,0.0,0.0,0.0,0.0,0.0,0.0,0.0,0.0,0.0,0.0,0.0,0.0,0.0,0.0,0.0,0.0,0.0,0.0,0.0,0.0,0.0,0.0,0.0,0.0,0.0,0.0,0.0,0.0,0.0,0.0,0.0,0.0,0.0,0.0,0.0,0.0,0.0,0.0,0.0,0.0,0.0,0.0,0.0,0.0,0.0,0.0,0.0,0.0,0.0,-1.8523,-1.9898,-2.1494,-2.3235,-2.2258,-2.2157,0.0,0.0,0.0,0.0,0.0,0.0,0.0,0.0,0.0,0.0,0.0,0.0,0.0,0.0,0.0,0.0,0.0,0.0,0.0,0.0,0.0,0.0,0.0,0.0,0.0,0.0,0.0,0.0,0.0,0.0,0.0,0.0,0.0,0.0,0.0,0.0,0.0,0.0,0.0,0.0,0.0,0.0,0.0,0.0,0.0,0.0,0.0,0.0,0.0,0.0,0.0,0.0,0.0,0.0,0.0,0.0,0.0,0.0,0.0,0.0,0.0,0.0,0.0,0.0,0.0,0.0,0.0,0.0,0.0,0.0,0.0,0.0,0.0,0.0,0.0,0.0,0.0,0.0,0.0,0.0,0.0,0.0,0.0,0.0,0.0,0.0,0.0,0.0,0.0,0.0,0.0,0.0,0.0,0.0,0.0,0.0,0.0,0.0,0.0,0.0,0.0,0.0,0.0,0.0,0.0,0.0,0.0,0.0,0.0,-1.8758,-2.0344,-2.1645,-2.2525,-2.1861,-2.1645,0.0,0.0,0.0,0.0,0.0,0.0,0.0,0.0,0.0,0.0,0.0,0.0,0.0,0.0,0.0,0.0,0.0,0.0,0.0,0.0,0.0,0.0,0.0,0.0,0.0,0.0,0.0,0.0,0.0,0.0,0.0,0.0,0.0,0.0,0.0,0.0,0.0,0.0,0.0,0.0,0.0,0.0,0.0,0.0,0.0,0.0,0.0,0.0,0.0,0.0,0.0,0.0,0.0,0.0,0.0,0.0,0.0,0.0,0.0,0.0,0.0,0.0,0.0,0.0,0.0,0.0,0.0,0.0,0.0,0.0,0.0,0.0,0.0,0.0,0.0,0.0,0.0,0.0,0.0,0.0,0.0,0.0,0.0,0.0,0.0,0.0,0.0,0.0,0.0,0.0,0.0,0.0,0.0,0.0,0.0,0.0,0.0,0.0,0.0,0.0,0.0,0.0,0.0,0.0,0.0,0.0,0.0,0.0,-1.8084,-2.0097,-2.1406,-2.1784,-2.1471,-2.1241,-2.0457,0.0,0.0,0.0,0.0,0.0,0.0,0.0,0.0,0.0,0.0,0.0,0.0,0.0,0.0,0.0,0.0,0.0,0.0,0.0,0.0,0.0,0.0,0.0,0.0,0.0,0.0,0.0,0.0,0.0,0.0,0.0,0.0,0.0,0.0,0.0,0.0,0.0,0.0,0.0,0.0,0.0,0.0,0.0,0.0,0.0,0.0,0.0,0.0,0.0,0.0,0.0,0.0,0.0,0.0,0.0,0.0,0.0,0.0,0.0,0.0,0.0,0.0,0.0,0.0,0.0,0.0,0.0,0.0,0.0,0.0,0.0,0.0,0.0,0.0,0.0,0.0,0.0,0.0,0.0,0.0,0.0,0.0,0.0,0.0,0.0,0.0,0.0,0.0,0.0,0.0,0.0,0.0,0.0,0.0,0.0,0.0,0.0,0.0,0.0,0.0,0.0,0.0,0.0,0.0,0.0,0.0,0.0,0.0,0.0,-1.7244,-1.7436,-1.8829,-2.1218,-1.9491,-1.9529,0.0,0.0,0.0,0.0,0.0,0.0,0.0,0.0,0.0,0.0,0.0,0.0,0.0,0.0,0.0,0.0,0.0,0.0,0.0,0.0,0.0,0.0,0.0,0.0,0.0,0.0,0.0,0.0,0.0,0.0,0.0,0.0,0.0,0.0,0.0,0.0,0.0,0.0,0.0,0.0,0.0,0.0,0.0,0.0,0.0,0.0,0.0,0.0,0.0,0.0,0.0,0.0,0.0,0.0,0.0,0.0,0.0,0.0,0.0,0.0,0.0,0.0,0.0,0.0,0.0,0.0,0.0,0.0,0.0,0.0,0.0,0.0,0.0,0.0,0.0,0.0,0.0,0.0,0.0,0.0,0.0,0.0,0.0,0.0,0.0,0.0,0.0,0.0,0.0,0.0,0.0,0.0,0.0,0.0,0.0,0.0,0.0,0.0,0.0,0.0,0.0,0.0,0.0,0.0,0.0,0.0,0.0,0.0,0.0,-1.5482,-1.6442,-1.7909,-2.0065,-1.8555,-1.8739,-2.0773,0.0,0.0,0.0,0.0,0.0,0.0,0.0,0.0,0.0,0.0,0.0,0.0,0.0,0.0,0.0,0.0,0.0,0.0,0.0,0.0,0.0,0.0,0.0,0.0,0.0,0.0,0.0,0.0,0.0,0.0,0.0,0.0,0.0,0.0,0.0,0.0,0.0,0.0,0.0,0.0,0.0,0.0,0.0,0.0,0.0,0.0,0.0,0.0,0.0,0.0,0.0,0.0,0.0,0.0,0.0,0.0,0.0,0.0,0.0,0.0,0.0,0.0,0.0,0.0,0.0,0.0,0.0,0.0,0.0,0.0,0.0,0.0,0.0,0.0,0.0,0.0,0.0,0.0,0.0,0.0,0.0,0.0,0.0,0.0,0.0,0.0,0.0,0.0,0.0,0.0,0.0,0.0,0.0,0.0,0.0,0.0,0.0,0.0,0.0,0.0,0.0,0.0,0.0,0.0,0.0,0.0,0.0,0.0,-1.4861,-1.794,-1.903,-1.8195,-1.8359,-1.8222,0.0,0.0,0.0,0.0,0.0,0.0,0.0,0.0,0.0,0.0,0.0,0.0,0.0,0.0,0.0,0.0,0.0,0.0,0.0,0.0,0.0,0.0,0.0,0.0,0.0,0.0,0.0,0.0,0.0,0.0,0.0,0.0,0.0,0.0,0.0,0.0,0.0,0.0,0.0,0.0,0.0,0.0,0.0,0.0,0.0,0.0,0.0,0.0,0.0,0.0,0.0,0.0,0.0,0.0,0.0,0.0,0.0,0.0,0.0,0.0,0.0,0.0,0.0,0.0,0.0,0.0,0.0,0.0,0.0,0.0,0.0,0.0,0.0,0.0,0.0,0.0,0.0,0.0,0.0,0.0,0.0,0.0,0.0,0.0,0.0,0.0,0.0,0.0,0.0,0.0,0.0,0.0,0.0,0.0,0.0,0.0,0.0,0.0,0.0,0.0,0.0,0.0,0.0,0.0,0.0,0.0,0.0,0.0,0.0,-1.5141,-1.6291,-1.7308,-1.8039,-1.736,-1.753,0.0,0.0,0.0,0.0,0.0,0.0,0.0,0.0,0.0,0.0,0.0,0.0,0.0,0.0,0.0,0.0,0.0,0.0,0.0,0.0,0.0,0.0,0.0,0.0,0.0,0.0,0.0,0.0,0.0,0.0,0.0,0.0,0.0,0.0,0.0,0.0,0.0,0.0,0.0,0.0,0.0,0.0,0.0,0.0,0.0,0.0,0.0,0.0,0.0,0.0,0.0,0.0,0.0,0.0,0.0,0.0,0.0,0.0,0.0,0.0,0.0,0.0,0.0,0.0,0.0,0.0,0.0,0.0,0.0,0.0,0.0,0.0,0.0,0.0,0.0,0.0,0.0,0.0,0.0,0.0,0.0,0.0,0.0,0.0,0.0,0.0,0.0,0.0,0.0,0.0,0.0,0.0,0.0,0.0,0.0,0.0,0.0,0.0,0.0,0.0,0.0,0.0,0.0,0.0,0.0,0.0,0.0,0.0,-1.5428,-1.554,-1.6057,-1.6768,-1.7647,-1.6712,-1.6854,0.0,0.0,0.0,0.0,0.0,0.0,0.0,0.0,0.0,0.0,0.0,0.0,0.0,0.0,0.0,0.0,0.0,0.0,0.0,0.0,0.0,0.0,0.0,0.0,0.0,0.0,0.0,0.0,0.0,0.0,0.0,0.0,0.0,0.0,0.0,0.0,0.0,0.0,0.0,0.0,0.0,0.0,0.0,0.0,0.0,0.0,0.0,0.0,0.0,0.0,0.0,0.0,0.0,0.0,0.0,0.0,0.0,0.0,0.0,0.0,0.0,0.0,0.0,0.0,0.0,0.0,0.0,0.0,0.0,0.0,0.0,0.0,0.0,0.0,0.0,0.0,0.0,0.0,0.0,0.0,0.0,0.0,0.0,0.0,0.0,0.0,0.0,0.0,0.0,0.0,0.0,0.0,0.0,0.0,0.0,0.0,0.0,0.0,0.0,0.0,0.0,0.0,0.0,0.0,0.0,0.0,0.0,0.0,-1.565,-1.6024,-1.6584,-1.6933,-1.7063,-1.6394,-1.6268,0.0,0.0,0.0,0.0,0.0,0.0,0.0,0.0,0.0,0.0,0.0,0.0,0.0,0.0,0.0,0.0,0.0,0.0,0.0,0.0,0.0,0.0,0.0,0.0,0.0,0.0,0.0,0.0,0.0,0.0,0.0,0.0,0.0,0.0,0.0,0.0,0.0,0.0,0.0,0.0,0.0,0.0,0.0,0.0,0.0,0.0,0.0,0.0,0.0,0.0,0.0,0.0,0.0,0.0,0.0,0.0,0.0,0.0,0.0,0.0,0.0,0.0,0.0,0.0,0.0,0.0,0.0,0.0,0.0,0.0,0.0,0.0,0.0,0.0,0.0,0.0,0.0,0.0,0.0,0.0,0.0,0.0,0.0,0.0,0.0,0.0,0.0,0.0,0.0,0.0,0.0,0.0,0.0,0.0,0.0,0.0,0.0,0.0,0.0,0.0,0.0,0.0,0.0,0.0,0.0,0.0,0.0,0.0,-1.5849,-1.6186,-1.6641,-1.6933,-1.7104,-1.6639,-1.6313,0.0,0.0,0.0,0.0,0.0,0.0,0.0,0.0,0.0,0.0,0.0,0.0,0.0,0.0,0.0,0.0,0.0,0.0,0.0,0.0,0.0,0.0,0.0,0.0,0.0,0.0,0.0,0.0,0.0,0.0,0.0,0.0,0.0,0.0,0.0,0.0,0.0,0.0,0.0,0.0,0.0,0.0,0.0,0.0,0.0,0.0,0.0,0.0,-1.5484,0.0,0.0,0.0,0.0,0.0,0.0,0.0,0.0,0.0,0.0,0.0,0.0,0.0,0.0,0.0,0.0,0.0,0.0,0.0,0.0,0.0,0.0,0.0,0.0,0.0,0.0,0.0,0.0,0.0,0.0,0.0,0.0,0.0,0.0,0.0,0.0,0.0,0.0,0.0,0.0,0.0,0.0,0.0,0.0,0.0,0.0,0.0,0.0,0.0,0.0,0.0,0.0,0.0,0.0,0.0,0.0,0.0,0.0,0.0,-1.5972,-1.6503,-1.6828,-1.7015,-1.708,-1.6891,-1.6564,0.0,0.0,0.0,0.0,0.0,0.0,0.0,0.0,0.0,0.0,0.0,0.0,0.0,0.0,0.0,0.0,0.0,0.0,0.0,0.0,0.0,0.0,0.0,0.0,0.0,0.0,0.0,0.0,0.0,0.0,0.0,0.0,0.0,0.0,0.0,0.0,0.0,0.0,0.0,0.0,0.0,0.0,0.0,0.0,0.0,0.0,0.0,0.0,0.0,0.0,0.0,0.0,0.0,0.0,0.0,0.0,0.0,0.0,0.0,0.0,0.0,0.0,0.0,0.0,0.0,0.0,0.0,0.0,0.0,0.0,0.0,0.0,0.0,0.0,0.0,0.0,0.0,0.0,0.0,0.0,0.0,0.0,0.0,0.0,0.0,0.0,0.0,0.0,0.0,0.0,0.0,0.0,0.0,0.0,0.0,0.0,0.0,0.0,0.0,0.0,0.0,0.0,0.0,0.0,0.0,0.0,0.0,-1.5487,-1.6123,-1.6828,-1.7063,-1.7153,-1.7153,-1.7153,-1.6816,-1.6224,0.0,0.0,0.0,0.0,0.0,0.0,0.0,0.0,0.0,0.0,0.0,0.0,0.0,0.0,0.0,0.0,0.0,0.0,0.0,0.0,0.0,0.0,0.0,0.0,0.0,0.0,0.0,0.0,0.0,0.0,0.0,0.0,0.0,0.0,0.0,0.0,0.0,0.0,-1.5196,-1.3769,0.0,0.0,0.0,0.0,0.0,0.0,0.0,0.0,-1.5413,0.0,0.0,0.0,0.0,0.0,0.0,0.0,0.0,0.0,0.0,0.0,0.0,0.0,0.0,0.0,0.0,0.0,0.0,0.0,0.0,0.0,0.0,0.0,0.0,0.0,0.0,0.0,0.0,0.0,0.0,0.0,0.0,0.0,0.0,0.0,0.0,0.0,0.0,0.0,0.0,0.0,0.0,0.0,0.0,0.0,0.0,0.0,0.0,0.0,0.0,0.0,0.0,0.0,0.0,0.0,0.0,-1.5247,-1.5443,-1.612,-1.7015,-1.725,-1.7339,-1.7339,-1.7339,-1.707,-1.625,0.0,0.0,0.0,0.0,0.0,0.0,0.0,0.0,0.0,0.0,0.0,0.0,0.0,0.0,0.0,0.0,0.0,0.0,0.0,0.0,0.0,0.0,0.0,0.0,0.0,0.0,0.0,0.0,0.0,0.0,0.0,0.0,0.0,0.0,0.0,0.0,0.0,0.0,0.0,-1.0773,-1.0335,0.0,0.0,0.0,0.0,0.0,0.0,0.0,0.0,-1.2934,0.0,0.0,0.0,0.0,0.0,0.0,0.0,0.0,0.0,0.0,0.0,0.0,0.0,0.0,0.0,0.0,0.0,0.0,0.0,0.0,0.0,0.0,0.0,0.0,0.0,0.0,0.0,0.0,0.0,0.0,0.0,0.0,0.0,0.0,0.0,0.0,0.0,0.0,0.0,0.0,0.0,0.0,0.0,0.0,0.0,0.0,0.0,0.0,0.0,0.0,0.0,0.0,0.0,0.0,0.0,-1.5274,-1.5716,-1.618,-1.6848,-1.572,-1.5068,-1.5146,-1.5507,-1.516,0.0,0.0,0.0,0.0,0.0,0.0,0.0,0.0,0.0,0.0,0.0,0.0,0.0,0.0,0.0,0.0,0.0,0.0,0.0,0.0,0.0,0.0,0.0,0.0,0.0,0.0,0.0,0.0,0.0,0.0,0.0,0.0,0.0,0.0,0.0,0.0,0.0,0.0,0.0,0.0,-1.0064,-0.9403,-0.8664,0.0,0.0,0.0,0.0,0.0,0.0,-1.2843,-1.2738,0.0,0.0,0.0,0.0,0.0,0.0,0.0,0.0,0.0,0.0,0.0,0.0,0.0,0.0,0.0,0.0,0.0,0.0,0.0,0.0,0.0,0.0,0.0,0.0,0.0,0.0,0.0,0.0,0.0,0.0,0.0,0.0,0.0,0.0,0.0,0.0,0.0,0.0,0.0,0.0,0.0,0.0,0.0,0.0,0.0,0.0,0.0,0.0,0.0,0.0,0.0,0.0,0.0,0.0,0.0,-1.5208,-1.5273,-1.5473,-1.5734,-1.3668,-1.2483,-1.2575,-1.2948,-1.3083,0.0,0.0,0.0,0.0,0.0,0.0,0.0,0.0,0.0,0.0,0.0,0.0,0.0,0.0,0.0,0.0,0.0,0.0,0.0,0.0,0.0,0.0,0.0,0.0,0.0,0.0,0.0,0.0,0.0,0.0,0.0,0.0,0.0,0.0,0.0,0.0,0.0,0.0,0.0,0.0,0.0,-0.8925,-0.7886,-0.8912,0.0,0.0,0.0,0.0,-1.3461,-1.2442,0.0,0.0,0.0,0.0,0.0,0.0,0.0,0.0,0.0,0.0,0.0,0.0,0.0,0.0,0.0,0.0,0.0,0.0,0.0,0.0,0.0,0.0,0.0,0.0,0.0,0.0,0.0,0.0,0.0,0.0,0.0,0.0,0.0,0.0,0.0,0.0,0.0,0.0,0.0,0.0,0.0,0.0,0.0,0.0,0.0,0.0,0.0,0.0,0.0,0.0,0.0,0.0,0.0,0.0,0.0,0.0,-1.4605,-1.3375,-1.2796,-1.3195,-1.1536,-1.0761,-1.0771,-1.0771,-1.1449,0.0,0.0,0.0,0.0,0.0,0.0,0.0,0.0,0.0,0.0,0.0,0.0,0.0,0.0,0.0,0.0,0.0,0.0,0.0,0.0,0.0,0.0,0.0,0.0,0.0,0.0,0.0,0.0,0.0,0.0,0.0,0.0,0.0,0.0,0.0,0.0,0.0,0.0,0.0,0.0,0.0,-0.8033,-0.9258,-0.9312,-0.9472,0.0,0.0,-0.9211,-0.8574,-0.8177,0.0,0.0,0.0,0.0,0.0,0.0,0.0,0.0,0.0,0.0,0.0,0.0,0.0,0.0,0.0,0.0,0.0,0.0,0.0,0.0,0.0,0.0,0.0,0.0,0.0,0.0,0.0,0.0,0.0,0.0,0.0,0.0,0.0,0.0,0.0,0.0,0.0,0.0,0.0,0.0,0.0,0.0,0.0,0.0,0.0,0.0,0.0,0.0,0.0,0.0,0.0,0.0,0.0,0.0,0.0,-1.3319,-1.4811,-1.2056,-1.1313,-1.2622,-0.9564,-0.7978,-0.811,-0.8259,-0.923,0.0,0.0,0.0,0.0,0.0,0.0,0.0,0.0,0.0,0.0,0.0,0.0,0.0,0.0,0.0,0.0,0.0,0.0,0.0,0.0,0.0,0.0,0.0,0.0,0.0,0.0,0.0,0.0,0.0,0.0,0.0,0.0,0.0,0.0,0.0,0.0,0.0,0.0,0.0,0.0,0.0,0.0,-0.7533,-0.7745,0.0,0.0,0.0,-0.8356,-0.8878,0.0,0.0,0.0,0.0,0.0,0.0,0.0,0.0,0.0,0.0,0.0,0.0,0.0,0.0,0.0,0.0,0.0,0.0,0.0,0.0,0.0,0.0,0.0,0.0,0.0,0.0,0.0,0.0,0.0,0.0,0.0,0.0,0.0,0.0,0.0,0.0,0.0,0.0,0.0,0.0,0.0,0.0,0.0,0.0,0.0,0.0,0.0,0.0,0.0,0.0,0.0,0.0,0.0,0.0,0.0,0.0,0.0,-1.4083,-1.0483,-0.933,-1.0761,-0.7197,-0.5368,-0.5485,-0.5851,0.0,0.0,0.0,0.0,0.0,0.0,0.0,0.0,0.0,0.0,0.0,0.0,0.0,0.0,0.0,0.0,0.0,0.0,0.0,0.0,0.0,0.0,0.0,0.0,0.0,0.0,0.0,-1.4875,0.0,0.0,0.0,0.0,0.0,0.0,0.0,0.0,0.0,0.0,0.0,0.0,0.0,0.0,-0.7002,-0.6445,-0.6842,-0.7309,0.0,0.0,-0.7683,-0.8874,-0.8242,-0.7952,0.0,0.0,0.0,0.0,0.0,0.0,0.0,0.0,0.0,0.0,0.0,0.0,0.0,0.0,0.0,0.0,0.0,0.0,0.0,0.0,0.0,0.0,0.0,0.0,0.0,0.0,0.0,0.0,-1.9164,-1.8679,0.0,0.0,0.0,0.0,0.0,0.0,0.0,0.0,0.0,0.0,0.0,0.0,0.0,0.0,0.0,0.0,0.0,0.0,0.0,0.0,0.0,0.0,0.0,0.0,-1.1252,-1.1431,-0.7933,-0.6117,-0.6383,-0.4438,-0.3331,-0.3339,-0.3366,-0.4863,0.0,0.0,0.0,0.0,0.0,0.0,0.0,0.0,0.0,0.0,0.0,0.0,0.0,0.0,0.0,0.0,0.0,0.0,0.0,0.0,0.0,0.0,0.0,0.0,0.0,0.0,0.0,0.0,0.0,0.0,0.0,0.0,0.0,0.0,0.0,0.0,0.0,0.0,0.0,0.0,0.0,-0.7455,-0.7887,-0.7706,-0.7327,0.0,-0.7139,-0.7504,-0.6687,-0.6384,-0.6297,-0.6059,0.0,0.0,0.0,0.0,0.0,0.0,0.0,0.0,0.0,0.0,0.0,0.0,0.0,0.0,0.0,0.0,0.0,0.0,0.0,0.0,0.0,0.0,0.0,0.0,0.0,-1.7641,-1.8031,0.0,-1.8279,0.0,0.0,0.0,0.0,0.0,0.0,0.0,0.0,0.0,0.0,0.0,0.0,0.0,0.0,0.0,0.0,0.0,0.0,0.0,0.0,0.0,0.0,0.0,0.0,-1.0047,-1.1378,-0.6615,-0.47,-0.6016,-0.4109,-0.316,-0.3195,-0.3191,-0.4207,0.0,0.0,0.0,0.0,0.0,0.0,0.0,0.0,0.0,0.0,0.0,0.0,0.0,0.0,0.0,0.0,0.0,0.0,0.0,0.0,0.0,0.0,0.0,0.0,0.0,0.0,0.0,0.0,-1.1366,-1.1719,-1.2929,0.0,0.0,0.0,0.0,0.0,0.0,0.0,0.0,0.0,0.0,-0.6517,-0.686,-0.6733,0.0,0.0,-0.66,-0.6782,-0.6286,-0.6289,-0.6226,-0.6063,-0.5927,0.0,0.0,0.0,0.0,0.0,0.0,0.0,0.0,0.0,0.0,0.0,0.0,0.0,0.0,0.0,0.0,0.0,0.0,0.0,0.0,0.0,0.0,0.0,0.0,0.0,0.0,0.0,-1.7894,0.0,0.0,0.0,0.0,0.0,0.0,0.0,0.0,0.0,0.0,0.0,0.0,0.0,0.0,0.0,0.0,0.0,0.0,0.0,0.0,0.0,0.0,0.0,0.0,-0.8902,-1.0342,-0.547,-0.3813,-0.5363,-0.3967,-0.3193,-0.324,-0.3234,-0.3919,0.0,0.0,0.0,0.0,0.0,0.0,0.0,0.0,0.0,0.0,0.0,0.0,0.0,0.0,0.0,0.0,0.0,0.0,0.0,0.0,0.0,0.0,0.0,0.0,0.0,0.0,0.0,0.0,-1.0937,-1.1355,-1.2043,0.0,0.0,0.0,0.0,0.0,0.0,0.0,0.0,0.0,0.0,-0.5924,-0.6202,-0.6221,-0.6259,-0.6403,-0.6373,-0.6349,-0.6393,-0.6376,-0.6343,-0.6289,0.0,0.0,0.0,0.0,0.0,0.0,0.0,0.0,0.0,0.0,0.0,0.0,0.0,0.0,0.0,0.0,0.0,0.0,0.0,0.0,0.0,0.0,0.0,0.0,0.0,0.0,0.0,-1.7311,0.0,0.0,-1.8017,0.0,0.0,0.0,0.0,0.0,0.0,0.0,0.0,0.0,0.0,0.0,0.0,0.0,0.0,0.0,0.0,0.0,0.0,0.0,0.0,0.0,0.0,-0.7955,-0.7635,-0.4677,-0.3096,-0.3386,-0.3215,-0.3243,-0.3275,-0.3302,-0.382,-0.5071,0.0,0.0,0.0,0.0,0.0,0.0,0.0,0.0,0.0,0.0,0.0,0.0,0.0,0.0,0.0,0.0,0.0,0.0,0.0,0.0,0.0,0.0,0.0,0.0,0.0,0.0,-1.2149,-1.257,-1.1905,0.0,0.0,0.0,0.0,0.0,0.0,0.0,0.0,0.0,-0.5842,-0.5818,-0.6098,-0.6335,-0.6417,-0.6477,-0.6542,-0.6502,-0.6461,-0.6469,-0.651,-0.6485,0.0,0.0,0.0,0.0,0.0,0.0,0.0,0.0,0.0,0.0,0.0,0.0,0.0,0.0,0.0,0.0,0.0,0.0,0.0,0.0,0.0,0.0,0.0,0.0,0.0,0.0,0.0,-1.5792,-1.5994,0.0,0.0,0.0,0.0,0.0,0.0,0.0,0.0,0.0,0.0,0.0,-0.4077,-0.4385,0.0,0.0,0.0,0.0,0.0,0.0,0.0,0.0,0.0,0.0,0.0,0.0,-0.7972,-0.7596,-0.4638,-0.3186,-0.3273,-0.3285,-0.3296,-0.3305,-0.3315,-0.3836,-0.5128,0.0,0.0,0.0,0.0,0.0,0.0,0.0,0.0,0.0,0.0,0.0,0.0,0.0,0.0,0.0,0.0,0.0,0.0,0.0,0.0,0.0,0.0,0.0,0.0,0.0,-0.9275,0.0,0.0,0.0,0.0,0.0,0.0,0.0,0.0,0.0,0.0,0.0,-0.6206,-0.5823,-0.612,-0.6368,-0.6526,-0.66,-0.666,0.0,0.0,0.0,0.0,0.0,0.0,0.0,0.0,0.0,0.0,0.0,0.0,0.0,0.0,-0.737,-0.6929,-0.6773,-0.6741,-0.6741,0.0,0.0,0.0,0.0,0.0,0.0,0.0,0.0,0.0,0.0,0.0,0.0,0.0,0.0,-1.3327,-1.3536,-1.4351,0.0,0.0,0.0,0.0,0.0,0.0,0.0,0.0,-0.5489,-0.3854,-0.2792,-0.2882,-0.2898,0.0,-0.284,-0.421,0.0,0.0,0.0,0.0,0.0,0.0,0.0,0.0,-0.6927,-0.6815,-0.4416,-0.3257,-0.3332,-0.3337,-0.3341,-0.3352,-0.3352,-0.3708,-0.4567,-0.5027,-0.5603,0.0,0.0,0.0,0.0,0.0,0.0,0.0,0.0,0.0,0.0,0.0,0.0,0.0,0.0,0.0,0.0,0.0,0.0,0.0,0.0,0.0,0.0,0.0,-0.7504,0.0,0.0,0.0,0.0,0.0,0.0,0.0,0.0,0.0,-0.6784,-0.6234,-0.5905,-0.6166,-0.6403,-0.6581,-0.6657,0.0,0.0,0.0,0.0,0.0,0.0,0.0,-0.6828,-0.6927,-0.685,-0.6799,-0.6875,-0.697,-0.7022,-0.6981,0.0,0.0,-0.6406,-0.6264,-0.6234,-0.6234,-0.6294,-0.6343,-0.6327,-0.6466,-0.6591,0.0,0.0,0.0,0.0,0.0,0.0,0.0,0.0,-0.9786,-0.9966,0.0,-1.1811,0.0,0.0,0.0,0.0,0.0,-0.9587,0.0,0.0,-0.4059,-0.3111,-0.3142,-0.3171,-0.3204,-0.323,-0.32,-0.3125,-0.3185,-0.4588,0.0,0.0,0.0,0.0,0.0,0.0,-0.5177,-0.5066,-0.3982,-0.331,-0.3369,-0.3371,-0.3385,-0.3414,-0.3415,-0.3414,-0.3407,-0.4661,-0.5285,-0.5216,-0.751,0.0,0.0,0.0,0.0,0.0,0.0,0.0,0.0,0.0,0.0,0.0,0.0,0.0,0.0,0.0,0.0,0.0,0.0,0.0,0.0,-0.6574,0.0,0.0,0.0,0.0,0.0,0.0,0.0,0.0,0.0,0.0,-0.5878,-0.5937,-0.6226,-0.6518,0.0,0.0,0.0,0.0,-0.685,-0.6913,-0.6924,-0.6948,-0.7008,-0.7063,-0.712,-0.718,0.0,0.0,-0.7365,-0.7414,-0.7412,-0.73,-0.733,-0.7294,-0.706,-0.6905,-0.6826,-0.6823,-0.6823,-0.6853,-0.6913,-0.7022,-0.715,-0.511,0.0,0.0,0.0,0.0,-0.9487,-0.9216,-0.8769,-0.904,-0.9059,-0.9121,-0.9611,0.0,0.0,0.0,0.0,0.0,0.0,-0.7817,-0.6039,-0.534,-0.4428,-0.3236,-0.3246,-0.3266,-0.3295,-0.3309,-0.3287,-0.3231,-0.3586,-0.4606,-0.602,0.0,0.0,0.0,0.0,-0.5416,-0.5232,-0.4098,-0.3403,-0.3463,-0.3464,-0.3468,-0.3476,-0.3476,-0.3476,-0.3475,-0.3854,-0.4567,-0.5335,-0.6052,0.0,0.0,0.0,0.0,0.0,0.0,0.0,0.0,0.0,0.0,0.0,0.0,0.0,0.0,0.0,0.0,0.0,0.0,0.0,-0.4494,-0.4966,-0.5881,0.0,0.0,0.0,0.0,0.0,0.0,0.0,0.0,0.0,-0.6333,-0.6463,-0.6594,0.0,0.0,-0.6921,-0.6921,-0.6973,-0.7049,-0.715,-0.7199,0.0,-0.7308,-0.7333,-0.7379,-0.7482,-0.7561,-0.7611,-0.7611,-0.7624,-0.7624,-0.7589,-0.7597,-0.7586,-0.7518,-0.7341,-0.721,-0.7202,-0.7202,-0.7207,-0.7229,-0.7305,-0.7368,-0.3216,-0.3303,-0.4929,-0.6268,-0.7206,-0.7331,-0.7126,-0.6466,-0.6635,-0.6651,-0.6678,-0.7269,-0.767,-0.7876,-0.7753,0.0,0.0,0.0,-0.67,-0.5018,-0.4874,-0.4414,-0.3343,-0.336,-0.3375,-0.3393,-0.3411,-0.3411,-0.3395,-0.3441,-0.3691,-0.4395,0.0,-0.4933,-0.5591,-0.4945,-0.4567,-0.4509,-0.3814,-0.3465,-0.3502,-0.3504,-0.3504,-0.3504,-0.3504,-0.3504,-0.3504,-0.3504,-0.3872,-0.4763,-0.5032,-0.5621,0.0,0.0,0.0,0.0,0.0,0.0,0.0,0.0,0.0,0.0,0.0,-0.7215,-0.5329,0.0,0.0,0.0,-0.4886,-0.4172,-0.3549,-0.4056,0.0,0.0,0.0,0.0,0.0,0.0,0.0,-0.5023,-0.5178,-0.5538,-0.6361,-0.6438,-0.6695,-0.6924,-0.6989,-0.7052,-0.7098,0.0,-0.7237,-0.7357,-0.7425,-0.7485,-0.7542,-0.7553,-0.7586,-0.7684,-0.7747,-0.7782,-0.7785,-0.7766,-0.7749,-0.7747,-0.7728,-0.7711,-0.7711,-0.7591,-0.7496,-0.7496,-0.7499,-0.7499,-0.7499,-0.751,-0.7518,-0.3505,-0.3702,-0.3601,-0.3486,-0.3709,-0.5074,-0.4804,-0.3335,-0.3363,-0.3378,-0.3576,-0.5043,-0.472,-0.3494,-0.3451,0.0,-0.3647,-0.4998,-0.4977,-0.3378,-0.3408,-0.3437,-0.3465,-0.3493,-0.3506,-0.3505,-0.3506,-0.3506,-0.3506,-0.3536,-0.3509,-0.3429,-0.3348,-0.3317,-0.3332,-0.3339,-0.3399,-0.351,-0.3513,-0.3514,-0.3517,-0.3517,-0.3517,-0.3519,-0.3516,-0.3517,-0.3517,-0.3514,-0.3512,-0.3504,-0.439,-0.504,-0.514,0.0,0.0,0.0,0.0,0.0,0.0,0.0,0.0,0.0,0.0,0.0,0.0,0.0,0.0,-0.2667,-0.2894,0.0,-0.3091,-0.3461,0.0,0.0,0.0,-0.4058,-0.4125,-0.4288,-0.4636,-0.4739,0.0,0.0,-0.6212,-0.6274,-0.6515,-0.7139,-0.7123,-0.7158,-0.7273,-0.7341,-0.742,-0.7532,-0.7602,-0.766,-0.77,-0.7717,-0.7741,-0.7796,-0.7858,-0.7886,-0.7883,-0.7848,-0.7815,-0.7809,-0.7771,-0.7739,-0.7739,-0.7739,-0.7736,-0.773,-0.7714,-0.7706,-0.7695,-0.766,-0.7627,-0.3528,-0.3561,-0.368,-0.3631,-0.3618,-0.3829,-0.3854,-0.3459,-0.3467,-0.3471,-0.3468,-0.3885,-0.3858,-0.3612,-0.3557,-0.3546,-0.3569,-0.4016,-0.3848,-0.3471,-0.3499,-0.3516,-0.3524,-0.3531,-0.3535,-0.3535,-0.3535,-0.3535,-0.3538,-0.3588,-0.3603,-0.3583,-0.3584,-0.3531,-0.3431,-0.3491,-0.3551,-0.3603,-0.3604,-0.3614,-0.3637,-0.3639,-0.3639,-0.3639,-0.3639,-0.3639,-0.3639,-0.3615,-0.3592,-0.3569,-0.3724,-0.3885,-0.3842,-0.4928,0.0,0.0,0.0,0.0,0.0,0.0,0.0,0.0,0.0,-0.4406,-0.2581,0.0,-0.2725,0.0,-0.314,-0.3423,-0.3463,-0.3728,0.0,0.0,-0.3909,-0.3728,-0.3768,-0.3739,-0.3776,-0.4415,-0.4693,-0.5196,-0.6198,-0.6486,-0.6762,-0.7493,-0.742,-0.7387,-0.7463,-0.7526,-0.7589,-0.766,-0.7722,-0.7766,-0.7785,-0.7823,-0.7858,-0.7869,-0.7886,-0.7894,-0.7894,-0.7883,-0.7872,-0.7875,-0.7902,-0.7918,-0.7918,-0.7921,-0.7918,-0.791,-0.7812,-0.7711,-0.7711,-0.77,-0.7681,-0.3529,-0.3568,-0.3551,-0.4162,-0.5168,-0.3951,-0.3542,-0.3542,-0.3542,-0.3542,-0.3542,-0.3558,-0.3555,-0.3542,-0.3542,-0.3532,-0.3517,-0.352,-0.3528,-0.3542,-0.3558,-0.3572,-0.3585,-0.3599,-0.3613,-0.3625,-0.3611,-0.3611,-0.3626,-0.3659,-0.3675,-0.3677,-0.3707,-0.3679,-0.3602,-0.3619,-0.3632,-0.3636,-0.3648,-0.3663,-0.3679,-0.3681,-0.3674,-0.3662,-0.3674,-0.3674,-0.366,-0.3644,-0.3621,-0.3591,-0.3561,-0.3532,-0.3502,-0.4178,-0.406,0.0,0.0,0.0,0.0,0.0,0.0,0.0,0.0,0.0,0.0,0.0,-0.293,-0.3021,-0.327,-0.3358,-0.3587,-0.3704,-0.3799,-0.3817,-0.3766,-0.3599,-0.3564,-0.3523,-0.3757,-0.4139,-0.4159,-0.4635,-0.561,-0.5653,-0.5937,-0.6701,-0.6918,-0.7143,-0.7651,-0.7687,-0.7728,-0.7785,-0.7845,-0.7897,-0.7921,-0.7954,-0.7976,-0.7976,-0.7976,-0.7976,-0.7976,-0.7976,-0.7976,-0.7978,-0.8003,-0.8025,-0.8027,-0.8025,-0.8027,-0.8014,-0.7946,-0.7864,-0.7804,-0.7771,-0.7741,-0.3521,-0.3328,-0.3547,-0.4792,-0.6592,-0.4416,-0.3789,-0.4186,-0.4186,-0.4199,-0.4,-0.3572,-0.358,-0.3584,-0.3588,-0.3589,-0.3589,-0.3574,-0.3583,-0.3607,-0.3611,-0.3628,-0.3654,-0.3677,-0.37,-0.3724,-0.37,-0.37,-0.3726,-0.3734,-0.3738,-0.3739,-0.3767,-0.378,-0.3775,-0.3727,-0.3686,-0.3654,-0.3678,-0.3692,-0.3693,-0.3696,-0.3685,-0.3662,-0.3684,-0.3685,-0.3659,-0.3651,-0.3634,-0.3609,-0.3579,-0.3549,-0.3521,-0.3509,-0.3438,0.0,-0.3276,0.0,0.0,0.0,0.0,0.0,0.0,0.0,0.0,-0.3131,-0.316,-0.3092,-0.3343,-0.3467,-0.3365,-0.3476,-0.3557,-0.3562,-0.3588,-0.363,-0.3685,-0.3692,-0.3716,-0.3776,-0.3782,-0.4019,-0.4737,-0.4766,-0.5043,-0.5802,-0.6572,-0.7086,-0.7579,-0.7826,-0.7848,-0.7899,-0.7957,-0.8006,-0.8049,-0.8068,-0.8071,-0.8074,-0.8068,-0.8076,-0.8071,-0.8071,-0.8074,-0.8074,-0.8079,-0.8087,-0.8087,-0.8087,-0.809,-0.8087,-0.8071,-0.8025,-0.7927,-0.7867,-0.7823,-0.3313,-0.3355,-0.3554,-0.3767,-0.4215,-0.3802,-0.4935,-0.6961,-0.7355,-0.6904,-0.5479,-0.4125,-0.3532,-0.3554,-0.3579,-0.3589,-0.3594,-0.3662,-0.3694,-0.3701,-0.3726,-0.3739,-0.3745,-0.3726,-0.372,-0.3726,-0.372,-0.372,-0.3727,-0.3776,-0.3799,-0.3801,-0.3828,-0.3831,-0.381,0.0,0.0,0.0,-0.375,-0.3754,-0.3754,-0.3779,-0.3788,-0.3783,-0.3788,0.0,-0.3782,-0.3735,-0.3707,-0.37,-0.3671,0.0,0.0,0.0,0.0,0.0,0.0,0.0,0.0,0.0,0.0,0.0,-0.3299,-0.3291,-0.3235,-0.3354,-0.3389,-0.3287,-0.3433,-0.3538,-0.354,-0.3585,-0.3628,-0.3654,-0.3682,-0.3715,-0.375,-0.3754,-0.3778,-0.3833,-0.3843,-0.4093,-0.4602,-0.4882,-0.5151,-0.5651,-0.6429,-0.6954,-0.7202,-0.7698,-0.7954,-0.7973,-0.8022,-0.8063,-0.8076,-0.8082,-0.809,-0.8076,-0.8076,-0.8082,-0.809,-0.8087,-0.8082,-0.8087,-0.8117,-0.8153,-0.8153,-0.815,-0.815,-0.8153,-0.8112,-0.8055,-0.7984,-0.7959,-0.7924,-0.3528,0.0,-0.3551,-0.3527,0.0,-0.4591,-0.5893,-0.7708,-0.6564,-0.5501,-0.4781,-0.4,-0.3599,-0.3607,-0.4194,-0.4824,-0.572,-0.5432,-0.5256,-0.4712,-0.4753,-0.4366,-0.3749,-0.3764,-0.3778,-0.3791,-0.3791,-0.3799,-0.3814,-0.3831,-0.3838,-0.3838,-0.3851,-0.3851,-0.3839,-0.3851,-0.3844,-0.3814,-0.3814,-0.3814,-0.3816,-0.3829,-0.3831,-0.3818,-0.3831,0.0,0.0,0.0,0.0,0.0,0.0,0.0,0.0,0.0,0.0,-0.3523,-0.3478,-0.344,-0.3412,-0.3423,-0.345,-0.3494,-0.3527,-0.3519,-0.3457,-0.3524,-0.3549,-0.3506,-0.3569,-0.3624,-0.3654,-0.3685,-0.3715,-0.3744,-0.3761,-0.3788,-0.3827,-0.3824,-0.3839,-0.3891,-0.3903,-0.416,-0.4438,-0.4457,-0.4475,-0.4989,-0.6008,-0.6524,-0.6524,-0.7529,-0.8038,-0.8071,-0.8098,-0.8134,-0.8158,-0.8164,-0.8175,-0.8199,-0.8207,-0.8221,-0.8248,-0.8254,-0.8251,-0.8251,-0.8256,-0.8254,-0.8251,-0.8232,-0.8207,-0.8207,-0.8185,-0.8145,-0.8087,-0.8052,-0.8017,-0.3539,-0.3561,-0.3566,-0.3746,-0.3886,-0.5178,-0.6155,-0.7046,0.0,0.0,0.0,-0.3886,-0.3681,-0.367,-0.463,-0.6086,-0.7425,-0.6935,-0.6127,-0.5287,-0.5334,-0.4773,-0.3757,-0.3803,-0.3836,-0.3858,-0.3859,-0.3872,-0.3895,-0.3876,-0.3866,-0.3868,-0.3872,-0.3874,-0.3874,-0.3874,-0.3874,-0.3874,-0.3865,-0.3859,-0.3859,-0.3863,-0.3855,-0.3832,-0.3854,-0.3855,-0.3833,-0.3827,-0.3812,-0.3787,-0.3739,-0.3709,-0.3704,-0.3677,-0.3667,-0.3686,-0.3684,-0.3681,-0.3681,-0.3681,-0.3684,-0.3689,-0.3689,-0.3675,-0.3645,-0.3643,-0.3654,-0.3679,-0.3685,-0.37,-0.3731,-0.3761,-0.3791,-0.3821,-0.3829,-0.3853,-0.3903,-0.3896,-0.3906,-0.3953,-0.3966,-0.3974,-0.3997,-0.4003,-0.4012,-0.4286,-0.5304,-0.6327,-0.6586,-0.7593,-0.8112,-0.8164,-0.8191,-0.8218,-0.8254,-0.8278,-0.8303,-0.8341,-0.8352,-0.8376,-0.8417,-0.8433,-0.8433,-0.8412,-0.839,-0.8357,-0.8341,-0.83,-0.8264,-0.8254,-0.8254,-0.8237,-0.8194,-0.8142,-0.8101,-0.3618,-0.3625,-0.3651,-0.3654,-0.3643,-0.3869,-0.4087,-0.4285,-0.527,-0.5643,-0.5663,-0.4299,-0.3681,-0.3681,-0.3911,-0.5296,-0.7159,-0.5378,-0.425,-0.4041,-0.4073,-0.4099,-0.3877,-0.3861,-0.3855,-0.3858,-0.3859,-0.3861,-0.3868,-0.3888,-0.3898,-0.39,-0.3923,-0.3936,-0.3937,-0.3937,-0.3937,-0.3936,-0.3885,-0.3859,-0.3859,-0.3884,-0.3896,-0.3892,-0.3895,-0.3896,-0.3892,-0.3868,-0.3851,-0.3847,-0.3838,-0.3823,-0.3798,-0.3768,-0.3742,-0.372,-0.3696,-0.3681,-0.3682,-0.3681,-0.3692,-0.3718,-0.372,-0.3707,-0.3678,-0.3674,-0.3677,-0.3682,-0.3708,-0.3733,-0.3763,-0.3795,-0.3827,-0.3854,-0.3877,-0.3906,-0.3941,-0.3962,-0.3985,-0.4019,-0.4027,-0.4026,-0.4033,-0.4034,-0.4037,-0.4297,-0.534,-0.6641,-0.7436,-0.8185,-0.8183,-0.8232,-0.8286,-0.8316,-0.8333,-0.8376,-0.8401,-0.8417,-0.842,-0.8425,-0.8444,-0.845,-0.8447,-0.8439,-0.8431,-0.8403,-0.8363,-0.8335,-0.8305,-0.827,-0.8259,-0.8245,-0.8235,-0.8224,-0.8191,-0.3659,-0.3662,-0.3675,-0.369,-0.3707,-0.3723,-0.373,-0.3726,-0.4592,-0.4764,-0.4737,-0.4153,-0.3739,-0.3746,-0.4353,-0.5011,-0.551,-0.5647,-0.5461,-0.4898,-0.492,-0.4513,-0.3876,-0.3881,-0.3884,-0.3884,-0.39,-0.3907,-0.391,-0.3922,-0.3929,-0.393,-0.3943,-0.3949,-0.3949,-0.3949,-0.3949,-0.3949,-0.3922,-0.3908,-0.3908,-0.3922,-0.3929,-0.3928,-0.3929,-0.3929,-0.3929,-0.3915,-0.3908,-0.3907,-0.3892,-0.3877,-0.3865,-0.3836,-0.3812,-0.3799,-0.3784,-0.3778,-0.3778,-0.3778,-0.3783,-0.3797,-0.3798,-0.3793,-0.3779,-0.3764,-0.3761,-0.3776,-0.3791,-0.3817,-0.3863,-0.388,-0.3907,-0.3953,-0.3971,-0.3983,-0.3997,-0.4009,-0.4026,-0.4038,-0.4041,-0.4048,-0.4064,-0.4065,-0.4073,-0.4087,-0.5399,-0.6721,-0.7523,-0.7792,-0.7787,-0.779,-0.8067,-0.8094,-0.7861,-0.8149,-0.8444,-0.8474,-0.8482,-0.8496,-0.8521,-0.8532,-0.8529,-0.8529,-0.8507,-0.8474,-0.8439,-0.8384,-0.8338,-0.8311,-0.827,-0.8256,-0.8254,-0.8254,-0.8232,-0.369,-0.369,-0.3699,-0.3715,-0.3738,-0.3761,-0.3775,-0.3784,-0.3805,-0.3794,-0.3763,-0.3782,-0.3805,-0.3809,-0.4825,-0.4777,-0.4343,-0.5756,-0.6229,-0.5524,-0.5317,-0.4943,-0.3872,-0.3904,-0.3915,-0.3917,-0.3938,-0.3949,-0.3949,-0.3949,-0.3949,-0.3949,-0.3949,-0.3949,-0.3949,-0.3949,-0.3949,-0.3949,-0.3949,-0.3949,-0.3949,-0.3949,-0.3949,-0.3949,-0.3949,-0.3949,-0.3949,-0.3949,-0.3949,-0.3948,-0.3928,-0.3914,-0.3914,-0.3885,-0.3866,-0.3859,-0.3853,-0.3846,-0.384,-0.3839,-0.3842,-0.3848,-0.385,-0.3854,-0.3865,-0.385,-0.3842,-0.3857,-0.3862,-0.3889,-0.3934,-0.3953,-0.3981,-0.4033,-0.4041,-0.4039,-0.4049,-0.405,-0.4054,-0.4058,-0.4061,-0.4072,-0.409,-0.4095,-0.4107,-0.4395,-0.5465,-0.6272,-0.6801,-0.7094,-0.7099,-0.735,-0.7597,-0.7879,-0.7393,-0.7943,-0.8496,-0.854,-0.8545,-0.8561,-0.8594,-0.8611,-0.8613,-0.8602,-0.8575,-0.8537,-0.8518,-0.8439,-0.8368,-0.8338,-0.8292,-0.8254,-0.8254,-0.8254,-0.8251,-0.3722,-0.3726,-0.375,-0.3764,-0.3767,-0.3771,-0.3788,-0.381,-0.3816,-0.3829,-0.3844,-0.385,-0.3851,-0.3853,-0.4072,-0.4064,-0.3835,-0.4087,-0.4337,-0.4115,-0.4151,-0.3928,-0.3937,-0.3943,-0.3945,-0.3945,-0.3948,-0.3949,-0.3949,-0.3949,-0.3949,-0.3949,-0.3949,-0.3949,-0.3949,-0.3949,-0.3949,-0.3949,-0.3949,-0.3949,-0.3949,-0.3949,-0.3949,-0.3949,-0.3949,-0.3949,-0.3949,-0.3949,-0.3949,-0.3949,-0.3945,-0.3944,-0.394,-0.3915,-0.3887,-0.3859,-0.3836,-0.3809,-0.3786,-0.3779,-0.3798,-0.3817,-0.3827,-0.3848,-0.3893,-0.3898,-0.3884,-0.3873,-0.3887,-0.3918,-0.3947,-0.3975,-0.4008,-0.4042,-0.4046,-0.405,-0.4076,-0.4082,-0.4093,-0.4121,-0.412,-0.4124,-0.4127,-0.4129,-0.4399,-0.4948,-0.5245,-0.5795,-0.6321,-0.6331,-0.6352,-0.6635,-0.7175,-0.744,-0.7452,-0.8027,-0.8581,-0.86,-0.8605,-0.8608,-0.8613,-0.8616,-0.8613,-0.8597,-0.8602,-0.8572,-0.8521,-0.8469,-0.8406,-0.8363,-0.8311,-0.8259,-0.8254,-0.8262,-0.8264,-0.3753,-0.3754,-0.3765,-0.3772,-0.3773,-0.379,-0.3806,-0.3818,-0.3854,-0.3876,-0.3887,-0.3904,-0.3903,-0.3885,-0.3885,-0.3895,-0.3913,-0.3925,-0.3932,-0.3932,-0.3944,-0.3949,-0.3949,-0.3949,-0.3949,-0.3949,-0.3949,-0.3949,-0.3949,-0.3949,-0.3949,-0.3949,-0.3949,-0.3949,-0.3949,-0.3949,-0.3949,-0.3949,-0.3949,-0.3949,-0.3949,-0.3949,-0.3949,-0.3949,-0.3949,-0.3949,-0.3948,-0.3933,-0.3923,-0.3922,-0.3906,-0.3896,-0.3896,-0.3884,-0.3872,-0.3861,-0.3866,-0.3872,-0.3876,-0.3877,-0.3883,-0.3895,-0.3895,-0.3907,-0.3928,-0.3932,-0.3925,-0.3919,-0.394,-0.397,-0.4,-0.403,-0.406,-0.4087,-0.4094,-0.4099,-0.411,-0.4128,-0.4137,-0.4135,-0.4162,-0.4174,-0.4163,-0.4172,-0.4448,-0.4991,-0.5282,-0.5304,-0.5573,-0.5857,-0.5877,-0.5892,-0.6434,-0.6967,-0.7505,-0.8055,-0.8613,-0.8616,-0.8616,-0.8616,-0.8611,-0.8616,-0.8605,-0.857,-0.857,-0.8545,-0.8477,-0.8458,-0.8423,-0.8387,-0.8384,-0.8349,-0.8314,-0.8333,-0.8333,-0.3772,-0.3772,-0.3772,-0.3772,-0.3775,-0.3803,-0.3821,-0.3835,-0.3883,-0.3908,-0.3918,-0.394,-0.3937,-0.3919,-0.3917,-0.3929,-0.3948,-0.3949,-0.3949,-0.3949,-0.3949,-0.3949,-0.3949,-0.3949,-0.3949,-0.3949,-0.3949,-0.3949,-0.3949,-0.3949,-0.3949,-0.3949,-0.3949,-0.3949,-0.3949,-0.3949,-0.3949,-0.3949,-0.3949,-0.3949,-0.3949,-0.3949,-0.3949,-0.3949,-0.3949,-0.3949,-0.3949,-0.3929,-0.3913,-0.3904,-0.3883,-0.3872,-0.3872,-0.3872,-0.3872,-0.3872,-0.3883,-0.3902,-0.3923,-0.3925,-0.3929,-0.3936,-0.3937,-0.3941,-0.3948,-0.3949,-0.3949,-0.3949,-0.3977,-0.4005,-0.4038,-0.406,-0.4091,-0.4133,-0.4143,-0.4144,-0.4155,-0.4174,-0.4177,-0.4163,-0.4191,-0.4211,-0.4195,-0.421,-0.4494,-0.4763,-0.5054,-0.5076,-0.508,-0.5097,-0.5381,-0.5653,-0.646,-0.6996,-0.7536,-0.8073,-0.8613,-0.8591,-0.8586,-0.8578,-0.8578,-0.8572,-0.8586,-0.8545,-0.854,-0.8542,-0.8526,-0.8496,-0.845,-0.8439,-0.8431,-0.842,-0.8376,-0.8409,-0.839,-0.3772,-0.3772,-0.3772,-0.3773,-0.3775,-0.3806,-0.3833,-0.3859,-0.3892,-0.3921,-0.3944,-0.3948,-0.3948,-0.3947,-0.3945,-0.3948,-0.3949,-0.3949,-0.3949,-0.3949,-0.3949,-0.3949,-0.3949,-0.3949,-0.3949,-0.3949,-0.3949,-0.3949,-0.3949,-0.3949,-0.3949,-0.3949,-0.3949,-0.3949,-0.3949,-0.3949,-0.3949,-0.3949,-0.3949,-0.3949,-0.3949,-0.3949,-0.3949,-0.3949,-0.3949,-0.3949,-0.3949,-0.3948,-0.3934,-0.3906,-0.39,-0.3899,-0.39,-0.39,-0.3899,-0.3899,-0.3877,-0.3863,-0.3869,-0.3873,-0.3883,-0.3904,-0.3917,-0.3922,-0.3951,-0.3958,-0.3958,-0.3952,-0.3982,-0.4011,-0.4038,-0.405,-0.4083,-0.4154,-0.4169,-0.4181,-0.4207,-0.421,-0.4215,-0.4211,-0.4217,-0.4223,-0.4219,-0.4242,-0.4259,-0.4534,-0.4287,-0.4304,-0.4571,-0.4845,-0.5651,-0.6191,-0.6998,-0.7536,-0.7536,-0.8076,-0.8589,-0.8572,-0.8564,-0.8529,-0.8493,-0.848,-0.851,-0.8537,-0.8559,-0.8575,-0.8586,-0.8561,-0.8502,-0.8477,-0.8466,-0.8447,-0.8433,-0.8431,-0.8409,-0.3772,-0.3773,-0.3793,-0.3801,-0.3806,-0.3853,-0.3878,-0.3891,-0.3921,-0.3938,-0.3948,-0.3949,-0.3949,-0.3949,-0.3949,-0.3949,-0.3949,-0.3949,-0.3949,-0.3949,-0.3949,-0.3949,-0.3949,-0.3949,-0.3949,-0.3949,-0.3949,-0.3949,-0.3949,-0.3949,-0.3949,-0.3949,-0.3949,-0.3949,-0.3949,-0.3949,-0.3949,-0.3949,-0.3949,-0.3949,-0.3949,-0.3949,-0.3949,-0.3949,-0.3949,-0.3949,-0.3949,-0.3932,-0.3915,-0.3904,-0.3887,-0.3876,-0.3874,-0.3876,-0.3885,-0.39,-0.3893,-0.3896,-0.3914,-0.3917,-0.3921,-0.3933,-0.3952,-0.3964,-0.3979,-0.3996,-0.4008,-0.4009,-0.4015,-0.4037,-0.4061,-0.4069,-0.409,-0.4136,-0.4163,-0.4178,-0.4195,-0.4222,-0.4241,-0.4226,-0.4234,-0.4255,-0.4268,-0.4286,-0.4293,-0.4293,-0.4302,-0.4308,-0.4309,-0.4846,-0.5653,-0.646,-0.6998,-0.7536,-0.8076,-0.8345,-0.8605,-0.8594,-0.8583,-0.8578,-0.8556,-0.8542,-0.8567,-0.8532,-0.8559,-0.8559,-0.8556,-0.8559,-0.8512,-0.8545,-0.8532,-0.8507,-0.8499,-0.8493,-0.8453,-0.3778,-0.3788,-0.3808,-0.3823,-0.3836,-0.3883,-0.3904,-0.3907,-0.3936,-0.3949,-0.3949,-0.3949,-0.3949,-0.3949,-0.3949,-0.3949,-0.3949,-0.3949,-0.3949,-0.3949,-0.3949,-0.3949,-0.3949,-0.3949,-0.3949,-0.3949,-0.3949,-0.3949,-0.3949,-0.3949,-0.3949,-0.3949,-0.3949,-0.3949,-0.3949,-0.3949,-0.3949,-0.3949,-0.3949,-0.3949,-0.3949,-0.3949,-0.3949,-0.3949,-0.3949,-0.3949,-0.3949,-0.3929,-0.3913,-0.3903,-0.3884,-0.3873,-0.3873,-0.3883,-0.3896,-0.3915,-0.3919,-0.3928,-0.3945,-0.3949,-0.3949,-0.3951,-0.3977,-0.3992,-0.3985,-0.4008,-0.4027,-0.4035,-0.403,-0.4042,-0.4084,-0.4091,-0.4102,-0.4139,-0.417,-0.4192,-0.4203,-0.4238,-0.4245,-0.4229,-0.4234,-0.426,-0.4287,-0.4292,-0.4298,-0.4307,-0.4309,-0.4309,-0.4309,-0.5115,-0.5922,-0.6462,-0.7269,-0.8076,-0.8345,-0.8613,-0.8591,-0.8578,-0.8575,-0.8589,-0.8591,-0.8589,-0.8583,-0.8545,-0.8529,-0.8521,-0.8523,-0.8534,-0.8564,-0.8605,-0.86,-0.857,-0.8561,-0.8553,-0.877,-0.379,-0.3814,-0.3817,-0.3838,-0.3862,-0.3895,-0.3906,-0.3913,-0.3937,-0.3949,-0.3949,-0.3949,-0.3949,-0.3949,-0.3949,-0.3949,-0.3949,-0.3949,-0.3949,-0.3949,-0.3949,-0.3949,-0.3949,-0.3949,-0.3949,-0.3949,-0.3949,-0.3949,-0.3949,-0.3949,-0.3949,-0.3949,-0.3949,-0.3949,-0.3949,-0.3949,-0.3949,-0.3949,-0.3949,-0.3949,-0.3949,-0.3949,-0.3949,-0.3949,-0.3949,-0.3949,-0.3949,-0.3948,-0.3934,-0.3911,-0.3906,-0.3904,-0.3907,-0.3926,-0.3947,-0.3945,-0.3948,-0.3948,-0.3949,-0.3952,-0.3955,-0.3959,-0.3981,-0.399,-0.3977,-0.3993,-0.4019,-0.4038,-0.403,-0.4038,-0.4105,-0.4105,-0.411,-0.4163,-0.4192,-0.4223,-0.4247,-0.4262,-0.4253,-0.423,-0.4227,-0.4234,-0.4256,-0.427,-0.4279,-0.4302,-0.4309,-0.4309,-0.4309,-0.5386,-0.6193,-0.6731,-0.7538,-0.8345,-0.8613,-0.8611,-0.8578,-0.8551,-0.8551,-0.8556,-0.8551,-0.8551,-0.8575,-0.8553,-0.8572,-0.857,-0.857,-0.8578,-0.8572,-0.8602,-0.8605,-0.8594,-0.8559,-0.8534,-0.9345,-0.3809,-0.3823,-0.3861,-0.3881,-0.3893,-0.3922,-0.3936,-0.3936,-0.3947,-0.3949,-0.3949,-0.3949,-0.3949,-0.3949,-0.3949,-0.3949,-0.3949,-0.3949,-0.3949,-0.3949,-0.3949,-0.3949,-0.3949,-0.3949,-0.3949,-0.3949,-0.3949,-0.3949,-0.3949,-0.3949,-0.3949,-0.3949,-0.3949,-0.3949,-0.3949,-0.3949,-0.3949,-0.3949,-0.3949,-0.3949,-0.3949,-0.3949,-0.3949,-0.3949,-0.3949,-0.3949,-0.3949,-0.3949,-0.3945,-0.3934,-0.3936,-0.3936,-0.3937,-0.3944,-0.3949,-0.3949,-0.3949,-0.3949,-0.3952,-0.3968,-0.3978,-0.3985,-0.4008,-0.402,-0.4018,-0.4037,-0.4058,-0.4073,-0.408,-0.4106,-0.4121,-0.4124,-0.4127,-0.4143,-0.4188,-0.4219,-0.4234,-0.4266,-0.4278,-0.4256,-0.4249,-0.4255,-0.426,-0.4262,-0.4271,-0.4301,-0.4307,-0.4307,-0.4578,-0.5386,-0.6462,-0.6731,-0.7807,-0.8616,-0.8616,-0.8616,-0.8597,-0.8578,-0.857,-0.8564,-0.8551,-0.8548,-0.8567,-0.8583,-0.8602,-0.8608,-0.8611,-0.8602,-0.8589,-0.8578,-0.8572,-0.8545,-0.8504,-0.8761,-0.9303,-0.3823,-0.3838,-0.3884,-0.3911,-0.3922,-0.3943,-0.3949,-0.3949,-0.3949,-0.3949,-0.3949,-0.3949,-0.3949,-0.3949,-0.3949,-0.3949,-0.3949,-0.3949,-0.3949,-0.3949,-0.3949,-0.3949,-0.3949,-0.3949,-0.3949,-0.3949,-0.3949,-0.3949,-0.3949,-0.3949,-0.3949,-0.3949,-0.3949,-0.3949,-0.3949,-0.3949,-0.3949,-0.3949,-0.3949,-0.3949,-0.3949,-0.3949,-0.3949,-0.3949,-0.3949,-0.3949,-0.3949,-0.3949,-0.3949,-0.3952,-0.3959,-0.3962,-0.3952,-0.3959,-0.3962,-0.3951,-0.3949,-0.3949,-0.3952,-0.3966,-0.3978,-0.3983,-0.4007,-0.4022,-0.4027,-0.4052,-0.4073,-0.4102,-0.4106,-0.4124,-0.414,-0.4136,-0.4136,-0.4147,-0.4178,-0.42,-0.4207,-0.4234,-0.424,-0.4217,-0.421,-0.4219,-0.4227,-0.4232,-0.4249,-0.4279,-0.4293,-0.4301,-0.4573,-0.5384,-0.5922,-0.646,-0.7269,-0.8076,-0.8616,-0.8616,-0.8616,-0.8611,-0.8605,-0.86,-0.8591,-0.8589,-0.8602,-0.86,-0.8613,-0.8586,-0.8583,-0.8572,-0.8561,-0.8553,-0.8532,-0.8496,-0.8458,-0.8453,-0.8983,-0.3835,-0.3861,-0.3893,-0.3923,-0.3947,-0.3949,-0.3949,-0.3949,-0.3949,-0.3949,-0.3949,-0.3949,-0.3949,-0.3949,-0.3949,-0.3949,-0.3949,-0.3949,-0.3949,-0.3949,-0.3949,-0.3949,-0.3949,-0.3949,-0.3949,-0.3949,-0.3949,-0.3949,-0.3949,-0.3949,-0.3949,-0.3949,-0.3949,-0.3949,-0.3949,-0.3949,-0.3949,-0.3949,-0.3949,-0.3949,-0.3949,-0.3949,-0.3949,-0.3949,-0.3949,-0.3949,-0.3949,-0.3949,-0.3949,-0.3953,-0.3977,-0.3979,-0.3963,-0.3979,-0.3979,-0.3958,-0.3952,-0.3949,-0.3949,-0.3959,-0.396,-0.3964,-0.3989,-0.3997,-0.4009,-0.4038,-0.4072,-0.4112,-0.4106,-0.4114,-0.415,-0.4146,-0.4143,-0.4163,-0.4178,-0.4185,-0.4178,-0.4184,-0.4184,-0.4157,-0.4137,-0.4147,-0.4185,-0.4188,-0.4217,-0.4257,-0.4277,-0.4289,-0.4567,-0.5112,-0.5648,-0.645,-0.7251,-0.777,-0.8294,-0.8073,-0.8068,-0.8318,-0.8329,-0.8345,-0.8616,-0.8616,-0.8616,-0.8616,-0.8611,-0.8581,-0.8561,-0.8559,-0.8523,-0.8485,-0.8461,-0.8436,-0.8417,-0.8401,-0.9178,-0.3853,-0.3865,-0.3915,-0.3943,-0.3949,-0.3949,-0.3949,-0.3949,-0.3949,-0.3949,-0.3949,-0.3949,-0.3949,-0.3949,-0.3949,-0.3949,-0.3949,-0.3949,-0.3949,-0.3949,-0.3949,-0.3949,-0.3949,-0.3949,-0.3949,-0.3949,-0.3949,-0.3949,-0.3949,-0.3949,-0.3949,-0.3949,-0.3949,-0.3949,-0.3949,-0.3949,-0.3949,-0.3949,-0.3949,-0.3949,-0.3949,-0.3949,-0.3949,-0.3949,-0.3949,-0.3949,-0.3949,-0.3949,-0.3949,-0.3952,-0.3979,-0.3993,-0.3983,-0.3992,-0.3992,-0.3981,-0.3962,-0.3949,-0.3953,-0.3968,-0.3979,-0.3986,-0.4005,-0.4027,-0.403,-0.4056,-0.4079,-0.4101,-0.4107,-0.4124,-0.4139,-0.4137,-0.4137,-0.4146,-0.4176,-0.42,-0.42,-0.4206,-0.4195,-0.4169,-0.4161,-0.4174,-0.4192,-0.4207,-0.4226,-0.4275,-0.4292,-0.4296,-0.4571,-0.5099,-0.5898,-0.6684,-0.7207,-0.7718,-0.7986,-0.7772,-0.7785,-0.7758,-0.777,-0.8073,-0.8345,-0.8616,-0.8616,-0.8616,-0.8616,-0.8594,-0.8575,-0.8567,-0.8504,-0.8439,-0.8423,-0.8412,-0.8349,-0.8316,-0.9616,-0.3859,-0.3863,-0.3925,-0.3949,-0.3949,-0.3949,-0.3949,-0.3949,-0.3949,-0.3949,-0.3949,-0.3949,-0.3949,-0.3949,-0.3949,-0.3949,-0.3949,-0.3949,-0.3949,-0.3949,-0.3949,-0.3949,-0.3949,-0.3949,-0.3949,-0.3949,-0.3949,-0.3949,-0.3949,-0.3949,-0.3949,-0.3949,-0.3949,-0.3949,-0.3949,-0.3949,-0.3949,-0.3949,-0.3949,-0.3949,-0.3949,-0.3949,-0.3949,-0.3949,-0.3949,-0.3949,-0.3949,-0.3949,-0.3949,-0.3958,-0.3988,-0.4008,-0.3997,-0.4008,-0.4008,-0.3996,-0.3967,-0.3949,-0.3952,-0.3967,-0.3981,-0.3993,-0.4013,-0.4034,-0.4054,-0.4078,-0.4088,-0.4107,-0.4122,-0.4129,-0.4133,-0.414,-0.4142,-0.4139,-0.4173,-0.4193,-0.4184,-0.4178,-0.4173,-0.4162,-0.4166,-0.4178,-0.4199,-0.421,-0.4241,-0.4274,-0.4285,-0.4294,-0.4302,-0.5359,-0.6148,-0.6676,-0.7205,-0.7464,-0.7713,-0.7745,-0.7745,-0.7452,-0.8022,-0.8058,-0.8334,-0.8608,-0.8616,-0.8616,-0.8616,-0.8608,-0.8583,-0.8548,-0.8485,-0.8433,-0.8414,-0.8371,-0.8305,-0.8275,-0.9824,-0.3859,-0.3863,-0.3925,-0.3949,-0.3949,-0.3949,-0.3949,-0.3949,-0.3949,-0.3949,-0.3949,-0.3949,-0.3949,-0.3949,-0.3949,-0.3949,-0.3949,-0.3949,-0.3949,-0.3949,-0.3949,-0.3949,-0.3949,-0.3949,-0.3949,-0.3949,-0.3949,-0.3949,-0.3949,-0.3949,-0.3949,-0.3949,-0.3949,-0.3949,-0.3949,-0.3949,-0.3949,-0.3949,-0.3949,-0.3949,-0.3949,-0.3949,-0.3949,-0.3949,-0.3949,-0.3949,-0.3949,-0.3949,-0.3949,-0.3949,-0.4008,-0.4024,-0.4009,-0.4033,-0.4026,-0.4,-0.3973,-0.3951,-0.3955,-0.3962,-0.3973,-0.3998,-0.4008,-0.4024,-0.4072,-0.409,-0.4103,-0.4124,-0.4131,-0.4131,-0.4133,-0.4152,-0.4151,-0.4139,-0.4157,-0.4154,-0.4139,-0.4131,-0.4131,-0.4132,-0.4155,-0.4166,-0.4184,-0.4202,-0.4232,-0.4283,-0.4289,-0.4296,-0.4568,-0.5094,-0.5625,-0.6162,-0.6693,-0.7493,-0.7738,-0.772,-0.7698,-0.7681,-0.8004,-0.831,-0.8318,-0.8594,-0.8611,-0.8616,-0.8616,-0.86,-0.857,-0.8523,-0.8472,-0.842,-0.8393,-0.8333,-0.8273,-0.8264,-0.9035,-0.3859,-0.3863,-0.3923,-0.3949,-0.3949,-0.3949,-0.3949,-0.3949,-0.3949,-0.3949,-0.3949,-0.3949,-0.3949,-0.3949,-0.3949,-0.3949,-0.3949,-0.3949,-0.3949,-0.3949,-0.3949,-0.3949,-0.3949,-0.3949,-0.3949,-0.3949,-0.3949,-0.3949,-0.3949,-0.3949,-0.3949,-0.3949,-0.3949,-0.3949,-0.3949,-0.3949,-0.3949,-0.3949,-0.3949,-0.3949,-0.3949,-0.3949,-0.3949,-0.3949,-0.3949,-0.3949,-0.3949,-0.3949,-0.3949,-0.3964,-0.4005,-0.4043,-0.4049,-0.4045,-0.4035,-0.4018,-0.3979,-0.3962,-0.3979,-0.3985,-0.3998,-0.4027,-0.4049,-0.4072,-0.4082,-0.4109,-0.4121,-0.4131,-0.4131,-0.4131,-0.4132,-0.4136,-0.4137,-0.4135,-0.4137,-0.414,-0.4132,-0.4131,-0.4131,-0.4133,-0.4139,-0.4157,-0.42,-0.4208,-0.424,-0.4285,-0.4297,-0.4301,-0.4561,-0.4819,-0.5354,-0.5885,-0.6687,-0.7207,-0.7168,-0.7409,-0.7646,-0.7644,-0.8231,-0.8553,-0.8561,-0.8591,-0.8611,-0.8616,-0.8616,-0.8594,-0.8575,-0.8548,-0.8507,-0.8439,-0.8373,-0.8324,-0.8284,-0.8267,-0.9023,-0.3859,-0.3863,-0.3908,-0.3936,-0.3948,-0.3949,-0.3949,-0.3949,-0.3949,-0.3949,-0.3949,-0.3949,-0.3949,-0.3949,-0.3949,-0.3949,-0.3949,-0.3949,-0.3949,-0.3949,-0.3949,-0.3949,-0.3949,-0.3949,-0.3949,-0.3949,-0.3949,-0.3949,-0.3949,-0.3949,-0.3949,-0.3949,-0.3949,-0.3949,-0.3949,-0.3949,-0.3949,-0.3949,-0.3949,-0.3949,-0.3949,-0.3949,-0.3949,-0.3949,-0.3949,-0.3949,-0.3949,-0.3964,-0.397,-0.3982,-0.4015,-0.4039,-0.4043,-0.4042,-0.4034,-0.4013,-0.3994,-0.3977,-0.3992,-0.4009,-0.403,-0.4058,-0.4078,-0.4093,-0.4103,-0.4124,-0.4129,-0.4131,-0.4131,-0.4131,-0.4131,-0.4131,-0.4131,-0.4131,-0.4131,-0.4131,-0.4131,-0.4131,-0.4131,-0.4133,-0.4144,-0.4163,-0.4188,-0.4204,-0.4222,-0.4253,-0.4253,-0.4257,-0.4521,-0.4779,-0.5057,-0.5857,-0.6661,-0.7177,-0.6867,-0.6834,-0.7592,-0.7869,-0.8181,-0.8499,-0.8532,-0.8572,-0.8613,-0.8616,-0.8616,-0.8616,-0.8597,-0.8567,-0.8529,-0.8455,-0.839,-0.8338,-0.8294,-0.8267,-0.9537,-0.3859,-0.3862,-0.3892,-0.3922,-0.3947,-0.3949,-0.3949,-0.3949,-0.3949,-0.3949,-0.3949,-0.3949,-0.3949,-0.3949,-0.3949,-0.3949,-0.3949,-0.3949,-0.3949,-0.3949,-0.3949,-0.3949,-0.3949,-0.3949,-0.3949,-0.3949,-0.3949,-0.3949,-0.3949,-0.3949,-0.3949,-0.3949,-0.3949,-0.3949,-0.3949,-0.3949,-0.3949,-0.3949,-0.3949,-0.3949,-0.3949,-0.3949,-0.3949,-0.3949,-0.3949,-0.3949,-0.3955,-0.3974,-0.399,-0.3992,-0.4022,-0.4018,-0.4004,-0.4013,-0.4024,-0.3996,-0.3988,-0.399,-0.4007,-0.4027,-0.4052,-0.4086,-0.4094,-0.4105,-0.4124,-0.4128,-0.4131,-0.4131,-0.4131,-0.4131,-0.4131,-0.4131,-0.4131,-0.4131,-0.4131,-0.4131,-0.4131,-0.4131,-0.4131,-0.4133,-0.4143,-0.4159,-0.4176,-0.4193,-0.4206,-0.4217,-0.4217,-0.4219,-0.4483,-0.4492,-0.4776,-0.5323,-0.6399,-0.7414,-0.7099,-0.712,-0.7869,-0.7848,-0.8412,-0.8472,-0.8521,-0.8567,-0.8608,-0.8613,-0.8616,-0.8616,-0.8616,-0.86,-0.8548,-0.8469,-0.8417,-0.8373,-0.8322,-0.8267,-1.0055,-0.3859,-0.3861,-0.3892,-0.3922,-0.3947,-0.3949,-0.3949,-0.3949,-0.3949,-0.3949,-0.3949,-0.3949,-0.3949,-0.3949,-0.3949,-0.3949,-0.3949,-0.3949,-0.3949,-0.3949,-0.3949,-0.3949,-0.3949,-0.3949,-0.3949,-0.3949,-0.3949,-0.3949,-0.3949,-0.3949,-0.3949,-0.3949,-0.3949,-0.3949,-0.3949,-0.3949,-0.3949,-0.3949,-0.3949,-0.3949,-0.3949,-0.3949,-0.3949,-0.3949,-0.3949,-0.3949,-0.3956,-0.3977,-0.3983,-0.3966,-0.4012,-0.4004,-0.3979,-0.3988,-0.3996,-0.399,-0.3979,-0.399,-0.4022,-0.4039,-0.4071,-0.4106,-0.4122,-0.4121,-0.4129,-0.4132,-0.4135,-0.4131,-0.4131,-0.4131,-0.4131,-0.4131,-0.4131,-0.4131,-0.4131,-0.4131,-0.4131,-0.4131,-0.4131,-0.4132,-0.414,-0.4147,-0.4162,-0.4174,-0.4182,-0.4192,-0.4196,-0.4211,-0.4225,-0.4237,-0.4522,-0.5068,-0.5614,-0.6878,-0.7848,-0.7905,-0.8178,-0.812,-0.8409,-0.8485,-0.8534,-0.8572,-0.86,-0.8611,-0.8616,-0.8616,-0.8616,-0.8616,-0.8564,-0.8488,-0.8447,-0.8412,-0.8338,-0.8531,-0.9801,-0.3846,-0.3859,-0.3874,-0.3907,-0.3945,-0.3949,-0.3949,-0.3949,-0.3949,-0.3949,-0.3949,-0.3949,-0.3949,-0.3949,-0.3949,-0.3949,-0.3949,-0.3949,-0.3949,-0.3949,-0.3949,-0.3949,-0.3949,-0.3949,-0.3949,-0.3949,-0.3949,-0.3949,-0.3949,-0.3949,-0.3949,-0.3949,-0.3949,-0.3949,-0.3949,-0.3949,-0.3949,-0.3949,-0.3949,-0.3949,-0.3949,-0.3949,-0.3949,-0.3949,-0.3949,-0.3949,-0.3958,-0.3997,-0.3994,-0.3973,-0.4008,-0.3998,-0.3974,-0.3962,-0.3973,-0.3974,-0.3985,-0.4005,-0.4042,-0.4064,-0.4103,-0.4125,-0.4143,-0.4143,-0.414,-0.4142,-0.4144,-0.4135,-0.4131,-0.4131,-0.4131,-0.4131,-0.4131,-0.4131,-0.4131,-0.4131,-0.4131,-0.4131,-0.4131,-0.4131,-0.4135,-0.4139,-0.4143,-0.4152,-0.4159,-0.4166,-0.4174,-0.4195,-0.4219,-0.423,-0.424,-0.478,-0.558,-0.6595,-0.7841,-0.8133,-0.8444,-0.8401,-0.8409,-0.8488,-0.854,-0.8572,-0.8597,-0.8613,-0.8616,-0.8594,-0.8613,-0.8611,-0.8556,-0.851,-0.8477,-0.8428,-0.8604,-0.9062,-1.0329,-0.3829,-0.385,-0.3857,-0.3891,-0.3937,-0.3947,-0.3949,-0.3949,-0.3456,-0.3456,-0.3703,-0.3703,-0.3703,-0.3949,-0.3949,-0.3949,-0.3949,-0.3949,-0.3949,-0.3949,-0.3949,-0.3949,-0.3949,-0.3949,-0.3949,-0.3949,-0.3949,-0.3949,-0.3949,-0.3949,-0.3949,-0.3949,-0.3949,-0.3949,-0.3949,-0.3949,-0.3949,-0.3949,-0.3949,-0.3949,-0.3949,-0.3949,-0.3949,-0.3949,-0.3949,-0.3949,-0.3955,-0.3996,-0.3994,-0.3978,-0.3992,-0.4005,-0.396,-0.3949,-0.3952,-0.3966,-0.4007,-0.4027,-0.4052,-0.4084,-0.4113,-0.4131,-0.4151,-0.4148,-0.4143,-0.4144,-0.4152,-0.4136,-0.4131,-0.4131,-0.4131,-0.4131,-0.4131,-0.4131,-0.4131,-0.4131,-0.4131,-0.4131,-0.4131,-0.4131,-0.4131,-0.4133,-0.4137,-0.4137,-0.4146,-0.4146,-0.4152,-0.4166,-0.4188,-0.4189,-0.4461,-0.474,-0.553,-0.6559,-0.7572,-0.8088,-0.8387,-0.8387,-0.842,-0.8491,-0.8534,-0.857,-0.8578,-0.857,-0.8556,-0.854,-0.8572,-0.8586,-0.8532,-0.8493,-0.8488,-0.8453,-0.864,-0.9345,-1.059,-0.3818,-0.3824,-0.3848,-0.3878,-0.3913,-0.394,-0.3949,-0.3703,-0.2962,-0.2468,-0.2961,-0.2961,-0.3209,-0.3703,-0.3949,-0.3949,-0.3949,-0.3949,-0.3949,-0.3949,-0.3949,-0.3949,-0.3949,-0.3949,-0.3949,-0.3949,-0.3949,-0.3949,-0.3949,-0.3949,-0.3949,-0.3949,-0.3949,-0.3949,-0.3949,-0.3949,-0.3949,-0.3949,-0.3949,-0.3949,-0.3949,-0.3949,-0.3949,-0.3949,-0.3949,-0.3949,-0.3953,-0.3985,-0.3983,-0.3962,-0.3982,-0.3982,-0.3956,-0.3949,-0.3966,-0.3982,-0.4,-0.4012,-0.4043,-0.4082,-0.411,-0.4127,-0.4139,-0.4135,-0.4137,-0.4136,-0.4137,-0.4133,-0.4131,-0.4131,-0.4131,-0.4131,-0.4131,-0.4131,-0.4131,-0.4131,-0.4131,-0.4131,-0.4131,-0.4131,-0.4131,-0.4131,-0.4133,-0.4132,-0.4132,-0.4131,-0.4135,-0.415,-0.4162,-0.417,-0.4437,-0.4979,-0.5512,-0.654,-0.7311,-0.8086,-0.8363,-0.8376,-0.8412,-0.8474,-0.8499,-0.8518,-0.8502,-0.8491,-0.848,-0.848,-0.8502,-0.8502,-0.8485,-0.8474,-0.8463,-0.8447,-0.8425,-0.9657,-1.1116,-0.381,-0.3842,-0.3855,-0.3888,-0.3929,-0.3205,-0.3209,-0.3704,-0.3457,-0.321,-0.321,-0.3209,-0.3456,-0.3949,-0.3949,-0.3949,-0.3949,-0.3949,-0.3949,-0.3949,-0.3949,-0.3949,-0.3949,-0.3949,-0.3949,-0.3949,-0.3949,-0.3949,-0.3949,-0.3949,-0.3949,-0.3949,-0.3949,-0.3949,-0.3949,-0.3949,-0.3949,-0.3949,-0.3949,-0.3949,-0.3949,-0.3949,-0.3949,-0.3949,-0.3949,-0.3949,-0.3956,-0.3978,-0.3978,-0.3962,-0.3979,-0.3979,-0.3963,-0.3963,-0.3978,-0.3967,-0.4004,-0.4034,-0.4065,-0.4094,-0.4113,-0.4131,-0.4143,-0.4157,-0.4152,-0.4139,-0.4131,-0.4131,-0.4131,-0.4131,-0.4131,-0.4131,-0.4131,-0.4131,-0.4131,-0.4131,-0.4131,-0.4131,-0.4131,-0.4131,-0.4131,-0.4131,-0.4131,-0.4131,-0.4131,-0.4131,-0.4135,-0.4146,-0.4159,-0.4172,-0.4699,-0.497,-0.5755,-0.6533,-0.7309,-0.7828,-0.8373,-0.8384,-0.8357,-0.8412,-0.8442,-0.845,-0.8439,-0.8425,-0.8414,-0.8417,-0.8428,-0.8447,-0.8461,-0.845,-0.8433,-0.8663,-0.9154,-1.0705,-1.2421,-0.3802,-0.3848,-0.3858,-0.3406,-0.2953,-0.2466,-0.2715,-0.2964,-0.3211,-0.3458,-0.3457,-0.3703,-0.3949,-0.3949,-0.3949,-0.3949,-0.3949,-0.3949,-0.3949,-0.3949,-0.3949,-0.3949,-0.3949,-0.3949,-0.3949,-0.3949,-0.3949,-0.3949,-0.3949,-0.3949,-0.3949,-0.3949,-0.3949,-0.3949,-0.3949,-0.3949,-0.3949,-0.3949,-0.3949,-0.3949,-0.3949,-0.3949,-0.3949,-0.3949,-0.3949,-0.3949,-0.3953,-0.3967,-0.3967,-0.3962,-0.3967,-0.3968,-0.3955,-0.3963,-0.3982,-0.3983,-0.4012,-0.4046,-0.4079,-0.4109,-0.4122,-0.4135,-0.4146,-0.4154,-0.4155,-0.414,-0.4131,-0.4131,-0.4131,-0.4131,-0.4131,-0.4131,-0.4131,-0.4131,-0.4131,-0.4131,-0.4131,-0.4131,-0.4131,-0.4131,-0.4131,-0.4131,-0.4131,-0.4131,-0.4131,-0.4131,-0.4136,-0.4143,-0.4152,-0.4163,-0.4699,-0.5229,-0.5765,-0.655,-0.7333,-0.7856,-0.8136,-0.8382,-0.8357,-0.8354,-0.8387,-0.8395,-0.839,-0.8373,-0.8352,-0.8341,-0.8341,-0.8393,-0.8433,-0.8384,-0.8604,-0.9363,-1.0115,-1.1662,-1.3678,-0.379,-0.3823,-0.385,-0.2425,-0.0489,-0.2709,-0.247,-0.0741,-0.1729,-0.2223,-0.2715,-0.3209,-0.3949,-0.3949,-0.3949,-0.3949,-0.3949,-0.3949,-0.3949,-0.3949,-0.3949,-0.3949,-0.3949,-0.3949,-0.3949,-0.3949,-0.3949,-0.3949,-0.3949,-0.3949,-0.3949,-0.3949,-0.3949,-0.3949,-0.3949,-0.3949,-0.3949,-0.3949,-0.3949,-0.3949,-0.3949,-0.3949,-0.3949,-0.3949,-0.3949,-0.3949,-0.3949,-0.3956,-0.3958,-0.3949,-0.3962,-0.396,-0.3955,-0.3967,-0.3988,-0.4007,-0.4011,-0.4049,-0.4094,-0.4103,-0.4106,-0.4121,-0.4135,-0.414,-0.414,-0.4136,-0.4131,-0.4131,-0.4131,-0.4131,-0.4131,-0.4131,-0.4131,-0.4131,-0.4131,-0.4131,-0.4131,-0.4131,-0.4131,-0.4131,-0.4131,-0.4131,-0.4131,-0.4131,-0.4131,-0.4131,-0.4131,-0.4137,-0.4136,-0.4147,-0.4691,-0.5231,-0.5778,-0.6576,-0.7369,-0.7889,-0.8128,-0.8363,-0.8335,-0.833,-0.8341,-0.8341,-0.8335,-0.8314,-0.8292,-0.8273,-0.8259,-0.8294,-0.8311,-0.8539,-0.9026,-1.0038,-1.1288,-1.2796,-1.4769,-0.3801,-0.3846,-0.3858,-0.2424,-0.0,-0.0985,-0.0988,-0.0247,-0.1482,-0.2469,-0.3208,-0.3703,-0.3949,-0.3949,-0.3949,-0.3949,-0.3949,-0.3949,-0.3949,-0.3949,-0.3949,-0.3949,-0.3949,-0.3949,-0.3949,-0.3949,-0.3949,-0.3949,-0.3949,-0.3949,-0.3949,-0.3949,-0.3949,-0.3949,-0.3949,-0.3949,-0.3949,-0.3949,-0.3949,-0.3949,-0.3949,-0.3949,-0.3949,-0.3949,-0.3949,-0.3949,-0.3949,-0.3949,-0.3949,-0.3953,-0.3966,-0.3962,-0.3958,-0.3978,-0.3998,-0.4016,-0.4012,-0.4049,-0.409,-0.4095,-0.4101,-0.4122,-0.4131,-0.4131,-0.4131,-0.4131,-0.4131,-0.4131,-0.4131,-0.4131,-0.4131,-0.4131,-0.4131,-0.4131,-0.4131,-0.4131,-0.4131,-0.4131,-0.4131,-0.4131,-0.4131,-0.4131,-0.4131,-0.4131,-0.4131,-0.4131,-0.4131,-0.4131,-0.4131,-0.439,-0.4674,-0.5216,-0.6023,-0.6819,-0.7343,-0.7859,-0.8371,-0.8341,-0.8311,-0.8305,-0.8303,-0.8289,-0.8278,-0.8256,-0.8245,-0.824,-0.8229,-0.8207,-0.8452,-0.8696,-0.9707,-1.0716,-1.2196,-1.3911,-1.5869,-0.3088,-0.3607,-0.3135,-0.1699,-0.0,-0.0,-0.0,-0.0,-0.0988,-0.247,-0.3949,-0.3949,-0.3949,-0.3949,-0.3949,-0.3949,-0.3703,-0.3456,-0.3209,-0.3209,-0.3209,-0.3456,-0.3456,-0.3703,-0.3949,-0.3949,-0.3949,-0.3949,-0.3949,-0.3949,-0.3949,-0.3949,-0.3949,-0.3949,-0.3949,-0.3949,-0.3949,-0.3949,-0.3949,-0.3949,-0.3949,-0.3949,-0.3949,-0.3949,-0.3949,-0.3949,-0.3949,-0.3949,-0.3949,-0.3955,-0.3963,-0.3966,-0.3971,-0.3982,-0.4003,-0.4007,-0.4016,-0.4045,-0.4075,-0.4098,-0.4107,-0.4128,-0.4131,-0.4131,-0.4131,-0.4131,-0.4131,-0.4131,-0.4131,-0.4131,-0.4131,-0.4131,-0.4131,-0.4131,-0.4131,-0.4131,-0.4131,-0.4131,-0.4131,-0.4131,-0.4131,-0.4131,-0.4131,-0.4131,-0.4131,-0.4131,-0.4131,-0.4131,-0.4131,-0.4392,-0.4916,-0.5714,-0.6256,-0.7041,-0.7562,-0.7828,-0.8346,-0.8305,-0.8281,-0.827,-0.8262,-0.8254,-0.8254,-0.8254,-0.8243,-0.8221,-0.8194,-0.8164,-0.839,-0.8868,-1.0357,-1.2078,-1.3595,-1.5295,-1.6259,-0.1658,-0.3343,-0.1203,-0.0,-0.0,-0.0,-0.0,-0.0,-0.0,-0.1481,-0.3456,-0.3703,-0.3703,-0.3703,-0.3703,-0.3703,-0.3703,-0.2962,-0.2221,-0.2221,-0.1975,-0.2221,-0.2961,-0.3456,-0.3949,-0.3949,-0.3949,-0.3949,-0.3949,-0.3949,-0.3949,-0.3703,-0.3455,-0.3456,-0.3703,-0.3703,-0.3703,-0.3703,-0.3703,-0.3455,-0.3455,-0.3703,-0.3949,-0.3949,-0.3949,-0.3949,-0.3949,-0.3949,-0.3949,-0.3952,-0.396,-0.396,-0.3956,-0.3962,-0.3978,-0.3996,-0.3997,-0.4027,-0.4076,-0.411,-0.4124,-0.4127,-0.4127,-0.4125,-0.4129,-0.4131,-0.4131,-0.4131,-0.4131,-0.4131,-0.4131,-0.4131,-0.4131,-0.4131,-0.4131,-0.4131,-0.4131,-0.4131,-0.4131,-0.4131,-0.4131,-0.4131,-0.4131,-0.4131,-0.4131,-0.4131,-0.4131,-0.4131,-0.4389,-0.4648,-0.517,-0.5952,-0.675,-0.7271,-0.7797,-0.807,-0.8322,-0.8278,-0.8256,-0.8254,-0.8254,-0.8254,-0.8254,-0.8254,-0.824,-0.8224,-0.8172,-0.8117,-0.9326,-1.0512,-1.1931,-1.3626,-1.5145,-1.6418,-1.6883,-0.0475,-0.1202,-0.0241,-0.0,-0.0,-0.0,-0.0,-0.0,-0.0,-0.0,-0.1481,-0.2962,-0.3456,-0.2961,-0.2715,-0.2962,-0.3704,-0.3705,-0.2963,-0.0,-0.0,-0.1481,-0.2221,-0.3209,-0.3949,-0.3949,-0.3949,-0.3949,-0.3949,-0.3949,-0.3949,-0.3703,-0.222,-0.2467,-0.222,-0.1479,0.0739,-0.0986,-0.1233,-0.1233,-0.148,-0.2714,-0.3703,-0.3456,-0.3455,-0.3455,-0.3703,-0.3456,-0.3703,-0.3952,-0.396,-0.3966,-0.3958,-0.396,-0.3981,-0.3993,-0.3996,-0.4012,-0.4052,-0.4083,-0.411,-0.3859,-0.386,-0.3859,-0.4127,-0.4131,-0.4131,-0.3873,-0.3355,-0.3355,-0.4131,-0.4131,-0.4131,-0.4131,-0.4131,-0.4131,-0.4131,-0.4131,-0.4131,-0.4131,-0.4131,-0.4131,-0.4131,-0.4131,-0.4131,-0.4131,-0.4131,-0.4645,-0.4645,-0.4903,-0.5423,-0.6454,-0.7238,-0.7503,-0.8025,-0.8297,-0.83,-0.8267,-0.8254,-0.8254,-0.8254,-0.8254,-0.8254,-0.8254,-0.824,-0.8224,-0.8641,-0.9301,-1.0955,-1.2354,-1.3555,-1.4281,-1.5313,-1.6317,-1.7029,-0.0,-0.0,-0.0,-0.0,-0.0,-0.0,-0.0,-0.0,-0.0,-0.0,-0.0,-0.1975,-0.2715,-0.2469,-0.1728,-0.1481,-0.247,-0.247,-0.0,-0.0,-0.0,-0.0,-0.1974,-0.3209,-0.3703,-0.3949,-0.3949,-0.3949,-0.3949,-0.3949,-0.3208,-0.1973,0.0246,0.0739,0.0739,0.2216,0.2955,0.1478,0.1232,0.1232,0.0985,-0.0,-0.0986,-0.0986,-0.0986,-0.1233,-0.222,-0.2714,-0.2961,-0.3461,-0.3714,-0.3722,-0.3962,-0.3966,-0.3979,-0.3979,-0.2993,-0.2754,-0.2523,-0.1012,-0.0764,-0.0769,-0.2049,-0.2568,-0.2319,-0.1289,-0.1031,-0.0773,-0.1547,-0.1289,-0.1547,-0.1805,-0.2579,-0.2579,-0.2579,-0.2579,-0.3355,-0.3097,-0.258,-0.258,-0.3096,-0.3096,-0.3873,-0.4131,-0.4131,-0.4131,-0.4389,-0.4645,-0.5161,-0.5677,-0.5935,-0.6708,-0.7481,-0.8004,-0.8007,-0.8264,-0.8262,-0.8254,-0.8254,-0.8254,-0.8254,-0.8254,-0.8254,-0.8245,-0.8221,-0.8427,-0.9323,-1.0217,-1.1882,-1.3074,-1.4286,-1.5016,-1.5755,-1.6488,-1.7215,-0.0,-0.0,-0.0,-0.0,-0.0,-0.0,-0.0,-0.0,-0.0,-0.0,-0.0,-0.0,-0.1235,-0.2717,-0.0988,-0.0,-0.0,-0.0,-0.0,-0.0,-0.0,-0.0,-0.1975,-0.3209,-0.3703,-0.3949,-0.3949,-0.3949,-0.3949,-0.2714,-0.148,0.0246,0.3446,0.4675,0.5167,0.5414,0.5414,0.4677,0.4186,0.4186,0.3694,0.3201,0.2463,0.2463,0.2463,0.1478,0.0739,-0.0,-0.0986,-0.1974,-0.2962,-0.3457,-0.3456,-0.3703,-0.3703,-0.2967,-0.1242,-0.025,0.0251,0.2011,0.2782,0.2292,0.1539,0.0772,0.0515,0.1546,0.2061,0.2318,0.2318,0.2834,0.3349,0.1803,0.0258,0.0258,-0.0,-0.0515,-0.1547,-0.1289,-0.0258,-0.0258,-0.0773,-0.1547,-0.3613,-0.4131,-0.3871,-0.4645,-0.4903,-0.5419,-0.5935,-0.645,-0.6708,-0.7221,-0.7739,-0.8254,-0.8254,-0.8254,-0.8254,-0.8254,-0.8254,-0.8254,-0.8254,-0.8254,-0.8254,-0.8237,-0.8449,-0.8883,-1.0033,-1.1184,-1.2341,-1.3546,-1.4771,-1.5505,-1.5999,-1.6977,-1.7465,-0.0,-0.0,-0.0,-0.0,-0.0,-0.0,-0.0,-0.0,-0.0,-0.0,-0.0,-0.0,-0.0,-0.0988,-0.0,-0.0,-0.0,-0.0,-0.0,-0.0,-0.0,-0.0,-0.1235,-0.247,-0.3457,-0.3951,-0.3949,-0.3703,-0.2961,-0.148,0.0739,0.2461,0.615,0.8609,1.0088,1.0828,0.9351,0.7875,0.7138,0.6894,0.6154,0.5416,0.4924,0.4678,0.4678,0.3694,0.3201,0.2709,0.197,0.1478,0.1478,0.0985,-0.0987,-0.1233,-0.0987,-0.074,0.0988,0.2721,0.2979,0.3505,0.4287,0.5067,0.5113,0.4628,0.412,0.3862,0.4636,0.5151,0.5408,0.5666,0.5408,0.412,0.309,0.2833,0.2833,0.2318,0.1546,0.2318,0.3091,0.2576,0.206,-0.0258,-0.2322,-0.3355,-0.3096,-0.4386,-0.5419,-0.5933,-0.6448,-0.6966,-0.7481,-0.7739,-0.7993,-0.8254,-0.8254,-0.8254,-0.8254,-0.8254,-0.8254,-0.8254,-0.8254,-0.8254,-0.8254,-0.8472,-0.8913,-0.9843,-1.1245,-1.2154,-1.3301,-1.4526,-1.551,-1.5994,-1.6482,-1.7215,-1.7953,-0.0,-0.0,-0.0,-0.0,-0.0,-0.0,-0.0,-0.0,-0.0,-0.0,-0.0,-0.0,-0.0,-0.0,-0.0,-0.0,-0.0,-0.0,-0.0,-0.0,-0.0,-0.0,-0.0,-0.1235,-0.247,-0.2715,-0.2961,-0.2961,-0.1727,0.0986,0.3448,0.5902,0.91,1.1563,1.3047,1.3292,1.2557,1.1077,1.034,0.9849,0.8621,0.7634,0.7388,0.6894,0.6894,0.6402,0.5662,0.5416,0.517,0.4184,0.3938,0.3201,0.1478,0.1478,0.1478,0.1971,0.3941,0.5176,0.5684,0.6999,0.7035,0.7583,0.8676,0.8737,0.824,0.7983,0.7983,0.824,0.7726,0.7469,0.6952,0.6437,0.618,0.5666,0.5406,0.5151,0.5666,0.6437,0.5921,0.5406,0.3862,0.1546,-0.0,-0.1289,-0.2322,-0.3094,-0.4383,-0.5675,-0.6448,-0.7481,-0.7739,-0.7996,-0.8254,-0.8254,-0.8254,-0.8254,-0.8254,-0.8254,-0.8254,-0.8254,-0.8254,-0.8497,-0.8483,-0.8934,-0.961,-1.078,-1.1931,-1.2868,-1.4031,-1.5016,-1.5999,-1.6482,-1.6727,-1.7215,-1.7947,-0.0,-0.0,-0.0,-0.0,-0.0,-0.0,-0.0,-0.0,-0.0,-0.0,-0.0,-0.0,-0.0,-0.0,-0.0,-0.0,-0.0,-0.0,-0.0,-0.0,-0.0,-0.0,-0.0,0.0988,0.2962,0.074,-0.0,0.1973,0.074,0.3941,0.8126,1.0337,1.1065,1.2788,1.4521,1.4281,1.3532,1.3006,1.2282,1.1796,1.1579,1.1587,1.1837,1.1342,1.1092,1.0597,0.8866,0.788,0.7143,0.5416,0.4677,0.4924,0.4432,0.4186,0.4186,0.4924,0.6894,0.788,0.8645,0.9726,1.0787,1.1371,1.2249,1.1544,1.0787,1.0555,1.0559,1.0305,1.0045,1.0045,0.9788,0.9271,0.8754,0.8497,0.8497,0.7983,0.7983,0.8497,0.8754,0.7723,0.5921,0.3605,0.1804,0.0516,-0.0773,-0.1289,-0.3093,-0.5156,-0.6188,-0.7478,-0.7993,-0.8254,-0.8254,-0.8254,-0.8254,-0.8254,-0.8254,-0.8254,-0.8254,-0.8254,-0.8254,-0.8486,-0.8711,-0.9386,-1.0043,-1.1459,-1.2859,-1.3805,-1.4526,-1.526,-1.6244,-1.6971,-1.7459,-1.7703,-1.8197,-0.0,-0.0,-0.0,-0.0,-0.0,-0.0,-0.0,-0.0,-0.0,-0.0,-0.0,-0.0,-0.0,-0.0,-0.0,-0.0,-0.0,-0.0,-0.0,-0.0,-0.0,-0.0,-0.0,0.7417,0.9894,1.1627,1.1123,0.8386,0.6897,0.9853,1.2819,1.4051,1.4281,1.4766,1.526,1.4766,1.4237,1.3696,1.2948,1.2247,1.18,1.1825,1.1837,1.1833,1.1583,1.1587,1.0597,1.0597,1.0351,0.9856,0.9856,0.8866,0.714,0.6894,0.6894,0.7388,0.9115,1.0102,1.0622,1.1436,1.1747,1.2053,1.2143,1.2221,1.2282,1.2339,1.2368,1.2368,1.2372,1.2372,1.2115,1.1594,1.108,1.108,1.108,1.0562,1.0048,1.0562,1.0819,0.9528,0.798,0.5921,0.3864,0.2319,0.1031,-0.0773,-0.2835,-0.4641,-0.5673,-0.6961,-0.7736,-0.8251,-0.8254,-0.8254,-0.8254,-0.8254,-0.8254,-0.8254,-0.8254,-0.8254,-0.8251,-0.8458,-0.8661,-0.9823,-1.0721,-1.2141,-1.3574,-1.4541,-1.5505,-1.5999,-1.6482,-1.7215,-1.7703,-1.819,-1.8684,-0.0,-0.0,-0.0,-0.0,-0.0,-0.0,-0.0,-0.0,-0.0,-0.0,-0.0,-0.0,-0.0,-0.0,-0.0,-0.0,-0.0,-0.0,-0.0,-0.0,-0.0,-0.0,0.791,1.2384,1.1369,1.3351,1.5093,1.3834,1.2066,1.331,1.5297,1.5771,1.5755,1.5744,1.5744,1.4974,1.4178,1.3634,1.2871,1.2154,1.1727,1.1747,1.1772,1.1776,1.1808,1.1825,1.1837,1.1837,1.1837,1.1833,1.1587,1.1092,0.9856,0.961,0.9607,0.9856,1.0843,1.1837,1.1857,1.1898,1.1951,1.2004,1.2074,1.2168,1.2172,1.2225,1.2302,1.2311,1.2364,1.2372,1.2372,1.1854,1.1854,1.1854,1.1854,1.1597,1.1337,1.1597,1.1854,1.1076,0.9788,0.85,0.6697,0.5154,0.3609,0.1547,-0.0773,-0.3351,-0.4641,-0.6188,-0.7221,-0.7993,-0.7993,-0.8254,-0.8254,-0.8254,-0.8254,-0.8254,-0.8251,-0.8243,-0.8232,-0.8166,-0.8604,-1.003,-1.1447,-1.2613,-1.4051,-1.5266,-1.5749,-1.6238,-1.6727,-1.7459,-1.7947,-1.8658,-1.9138,-0.0,-0.0,-0.0,-0.0,-0.0,-0.0,-0.0,-0.0,-0.0,-0.0,-0.0,-0.0,-0.0,-0.0,-0.0,-0.0,-0.0,-0.0,-0.0,-0.0,-0.0,0.5426,0.9876,1.4606,1.3342,1.3078,1.4316,1.5281,1.4995,1.5738,1.5722,1.5717,1.5717,1.5711,1.5202,1.4406,1.3596,1.3081,1.2318,1.1778,1.1576,1.1637,1.169,1.1735,1.178,1.1829,1.1837,1.1837,1.1837,1.1837,1.1837,1.1587,1.1342,1.1096,1.1342,1.1342,1.1342,1.1837,1.1849,1.189,1.1923,1.1964,1.2041,1.2078,1.2082,1.2131,1.2204,1.227,1.2323,1.2347,1.2347,1.2347,1.2347,1.2351,1.2351,1.2364,1.2368,1.2368,1.2368,1.2111,1.1076,1.0302,0.8757,0.7214,0.5412,0.3607,0.1546,-0.1031,-0.3351,-0.4898,-0.6188,-0.7218,-0.7736,-0.7993,-0.8251,-0.8254,-0.8254,-0.8243,-0.8237,-0.8232,-0.8458,-0.8621,-0.9559,-1.1018,-1.243,-1.3338,-1.4291,-1.551,-1.6244,-1.6482,-1.7215,-1.769,-1.8358,-1.8836,-1.9327,-0.0,-0.0,-0.0,-0.0,-0.0,-0.0,-0.0,-0.0,-0.0,-0.0,-0.0,-0.0,-0.0,-0.0,-0.0,-0.0,-0.0,0.7658,1.1623,-0.0,0.7891,0.8378,1.06,1.4827,1.5067,1.5052,1.5026,1.5462,1.5679,1.5635,1.5565,1.5494,1.5478,1.5269,1.4855,1.4054,1.3506,1.2754,1.2214,1.1433,1.1441,1.1527,1.1674,1.1735,1.1788,1.1821,1.1837,1.1837,1.1837,1.1837,1.1837,1.1837,1.1837,1.1837,1.1837,1.1837,1.1837,1.1837,1.1853,1.1866,1.1882,1.1886,1.1947,1.1988,1.2008,1.2049,1.2123,1.22,1.2245,1.2258,1.2258,1.2258,1.2258,1.2278,1.229,1.2327,1.2351,1.2351,1.2351,1.1839,1.0809,0.9772,0.8224,0.6943,0.5658,0.3857,0.2313,-0.0,-0.1027,-0.2829,-0.5151,-0.6178,-0.7204,-0.7993,-0.8251,-0.8254,-0.8251,-0.8237,-0.8213,-0.8183,-0.8382,-0.9292,-1.0231,-1.1467,-1.2903,-1.4051,-1.5016,-1.5755,-1.6244,-1.6727,-1.7215,-1.7922,-1.8568,-1.8979,-1.9207]},{"header":{"parameterUnit":"m.s-1","parameterCategory":1,"la1":31.0,"la2":29.5877,"lo1":-88.7671,"lo2":-86.6584,"dx":0.0162,"dy":0.0185,"nx":115,"ny":88,"refTime":"2022-11-27T06:00:00:Z","depth":0,"parameterNumber":3,"parameterNumberName":"V-component_of_WINDS"},"data":[0.0,0.0,0.0,0.0,0.0,0.0,0.0,0.0,0.0,0.0,0.0,0.0,0.0,0.0,0.0,0.0,0.0,0.0,0.0,0.0,0.0,0.0,0.0,0.0,0.0,0.0,0.0,0.0,0.0,0.0,0.0,0.0,0.0,0.0,0.0,0.0,0.0,0.0,0.0,0.0,0.0,0.0,0.0,0.0,0.0,0.0,0.0,0.0,0.0,0.0,0.0,0.0,0.0,0.0,0.0,0.0,0.0,0.0,0.0,0.0,0.0,0.0,0.0,0.0,0.0,0.0,0.0,0.0,0.0,0.0,0.0,0.0,0.0,0.0,0.0,0.0,0.0,0.0,0.0,0.0,0.0,0.0,0.0,0.0,0.0,0.0,0.0,0.0,0.0,0.0,0.0,0.0,0.0,0.0,0.0,0.0,0.0,0.0,0.0,0.0,0.0,0.0,0.0,0.0,0.0,0.0,0.0,0.0,0.0,0.0,0.0,0.0,0.0,0.0,0.0,0.0,0.0,0.0,0.0,0.0,0.0,0.0,0.0,0.0,0.0,0.0,0.0,0.0,0.0,0.0,0.0,0.0,0.0,0.0,0.0,0.0,0.0,0.0,0.0,0.0,0.0,0.0,0.0,0.0,0.0,0.0,0.0,0.0,0.0,0.0,0.0,0.0,0.0,0.0,0.0,0.0,0.0,0.0,0.0,0.0,0.0,0.0,0.0,0.0,0.0,0.0,0.0,0.0,0.0,0.0,0.0,0.0,0.0,0.0,0.0,0.0,0.0,0.0,0.0,0.0,0.0,0.0,0.0,0.0,0.0,0.0,0.0,0.0,0.0,0.0,0.0,0.0,0.0,0.0,0.0,0.0,0.0,0.0,0.0,0.0,0.0,0.0,0.0,0.0,0.0,0.0,0.0,0.0,0.0,0.0,0.0,0.0,0.0,0.0,0.0,0.0,0.0,0.0,0.0,0.0,0.0,0.0,0.0,0.0,0.0,0.0,0.0,0.0,0.0,0.0,0.0,0.0,0.0,0.0,0.0,0.0,0.0,0.0,0.0,0.0,0.0,0.0,0.0,0.0,0.0,0.0,0.0,0.0,0.0,0.0,0.0,0.0,0.0,0.0,0.0,0.0,0.0,0.0,0.0,0.0,0.0,0.0,0.0,0.0,0.0,0.0,0.0,0.0,0.0,0.0,0.0,0.0,0.0,0.0,0.0,0.0,0.0,0.0,0.0,0.0,0.0,0.0,0.0,0.0,0.0,0.0,0.0,0.0,0.0,0.0,0.0,0.0,0.0,0.0,0.0,0.0,0.0,0.0,0.0,0.0,0.0,0.0,0.0,0.0,0.0,0.0,0.0,0.0,0.0,0.0,0.0,0.0,0.0,0.0,0.0,0.0,0.0,0.0,0.0,0.0,0.0,0.0,0.0,0.0,0.0,0.0,0.0,0.0,0.0,0.0,0.0,0.0,0.0,0.0,0.0,0.0,0.0,0.0,0.0,0.0,0.0,0.0,0.0,0.0,0.0,0.0,0.0,0.0,0.0,0.0,0.0,0.0,0.0,0.0,0.0,0.0,0.0,0.0,0.0,0.0,0.0,0.0,0.0,0.0,0.0,0.0,0.0,0.0,0.0,0.0,0.0,0.0,0.0,0.0,0.0,0.0,0.0,0.0,0.0,0.0,0.0,0.0,0.0,0.0,0.0,0.0,0.0,0.0,0.0,0.0,0.0,0.0,0.0,0.0,0.0,0.0,0.0,0.0,0.0,0.0,0.0,0.0,0.0,0.0,0.0,0.0,0.0,0.0,0.0,0.0,0.0,0.0,0.0,0.0,0.0,0.0,0.0,0.0,0.0,0.0,0.0,0.0,0.0,0.0,0.0,0.0,0.0,0.0,0.0,0.0,0.0,0.0,0.0,0.0,0.0,0.0,0.0,0.0,0.0,0.0,0.0,0.0,0.0,0.0,0.0,0.0,0.0,0.0,0.0,0.0,0.0,0.0,0.0,0.0,0.0,0.0,0.0,0.0,0.0,0.0,0.0,0.0,0.0,0.0,0.0,0.0,0.0,0.0,0.0,0.0,0.0,0.0,0.0,0.0,0.0,0.0,0.0,0.0,0.0,0.0,0.0,0.0,0.0,0.0,0.0,0.0,0.0,0.0,0.0,0.0,0.0,0.0,0.0,0.0,0.0,0.0,0.0,0.0,0.0,0.0,0.0,0.0,0.0,0.0,0.0,0.0,0.0,0.0,0.0,0.0,0.0,0.0,0.0,0.0,0.0,0.0,0.0,0.0,0.0,0.0,0.0,0.0,0.0,0.0,0.0,0.0,0.0,0.0,0.0,0.0,0.0,0.0,0.0,0.0,0.0,0.0,0.0,0.0,0.0,0.0,0.0,0.0,0.0,0.0,0.0,0.0,0.0,0.0,0.0,0.0,0.0,0.0,0.0,0.0,0.0,0.0,0.0,0.0,0.0,0.0,0.0,0.0,0.0,0.0,0.0,0.0,0.0,0.0,0.0,0.0,0.0,0.0,0.0,0.0,0.0,0.0,0.0,0.0,0.0,0.0,0.0,0.0,0.0,0.0,0.0,0.0,0.0,0.0,0.0,0.0,0.0,0.0,0.0,0.0,0.0,0.0,0.0,0.0,0.0,0.0,0.0,0.0,0.0,0.0,0.0,0.0,0.0,0.0,0.0,0.0,0.0,0.0,0.0,0.0,0.0,0.0,0.0,0.0,0.0,0.0,0.0,0.0,0.0,0.0,0.0,0.0,0.0,0.0,0.0,0.0,0.0,0.0,0.0,0.0,0.0,0.0,0.0,0.0,0.0,0.0,0.0,0.0,0.0,0.0,0.0,0.0,0.0,0.0,0.0,0.0,0.0,0.0,0.0,0.0,0.0,0.0,0.0,0.0,0.0,0.0,0.0,0.0,0.0,0.0,0.0,0.0,0.0,0.0,0.0,0.0,0.0,0.0,0.0,0.0,0.0,0.0,0.0,0.0,0.0,0.0,0.0,0.0,0.0,0.0,0.0,0.0,0.0,0.0,0.0,0.0,0.0,0.0,0.0,0.0,0.0,0.0,0.0,0.0,0.0,0.0,0.0,0.0,0.0,0.0,0.0,0.0,0.0,0.0,0.0,0.0,0.0,0.0,0.0,0.0,0.0,0.0,0.0,0.0,0.0,0.0,0.0,0.0,0.0,0.0,0.0,0.0,0.0,0.0,0.0,0.0,0.0,0.0,0.0,0.0,0.0,0.0,0.0,0.0,0.0,0.0,0.0,0.0,0.0,0.0,0.0,0.0,0.0,0.0,0.0,0.0,0.0,0.0,0.0,0.0,0.0,0.0,0.0,0.0,0.0,0.0,0.0,0.0,0.0,0.0,0.0,0.0,0.0,0.0,0.0,0.0,0.0,0.0,0.0,0.0,0.0,0.0,0.0,0.0,0.0,0.0,0.0,0.0,0.0,0.0,0.0,0.0,0.0,0.0,0.0,0.0,0.0,0.0,0.0,0.0,0.0,0.0,0.0,0.0,0.0,0.0,0.0,0.0,0.0,0.0,0.0,0.0,0.0,0.0,0.0,0.0,0.0,0.0,0.0,0.0,0.0,0.0,0.0,0.0,0.0,0.0,0.0,0.0,0.0,0.0,0.0,0.0,0.0,0.0,0.0,0.0,0.0,0.0,0.0,0.0,0.0,0.0,0.0,0.0,0.0,0.0,0.0,0.0,0.0,0.0,0.0,0.0,0.0,0.0,0.0,0.0,0.0,0.0,0.0,0.0,0.0,0.0,0.0,0.0,0.0,0.0,0.0,0.0,0.0,0.0,0.0,0.0,0.0,0.0,0.0,0.0,0.0,0.0,0.0,0.0,0.0,0.0,0.0,0.0,0.0,0.0,0.0,0.0,0.0,0.0,0.0,0.0,0.0,0.0,0.0,0.0,0.0,0.0,0.0,0.0,0.0,0.0,0.0,0.0,0.0,0.0,0.0,0.0,0.0,0.0,0.0,0.0,0.0,0.0,0.0,0.0,0.0,0.0,0.0,0.0,0.0,0.0,0.0,0.0,0.0,0.0,0.0,0.0,0.0,0.0,0.0,0.0,0.0,0.0,0.0,0.0,0.0,0.0,0.0,0.0,0.0,0.0,0.0,0.0,0.0,0.0,0.0,0.0,0.0,0.0,0.0,0.0,0.0,0.0,0.0,0.0,0.0,0.0,0.0,0.0,0.0,0.0,0.0,0.0,0.0,0.0,0.0,0.0,-3.4785,0.0,0.0,0.0,-3.0767,0.0,0.0,0.0,0.0,0.0,0.0,0.0,0.0,0.0,0.0,0.0,0.0,0.0,0.0,0.0,0.0,0.0,0.0,0.0,0.0,0.0,0.0,0.0,0.0,0.0,0.0,0.0,0.0,0.0,0.0,0.0,0.0,0.0,0.0,0.0,0.0,0.0,0.0,0.0,0.0,0.0,0.0,0.0,0.0,0.0,0.0,0.0,0.0,0.0,0.0,0.0,0.0,0.0,0.0,0.0,0.0,0.0,0.0,0.0,0.0,0.0,0.0,0.0,0.0,0.0,0.0,0.0,0.0,0.0,0.0,0.0,0.0,0.0,0.0,0.0,0.0,0.0,0.0,0.0,0.0,0.0,0.0,0.0,0.0,0.0,0.0,0.0,0.0,0.0,0.0,0.0,0.0,0.0,0.0,0.0,0.0,0.0,0.0,0.0,0.0,0.0,0.0,0.0,0.0,0.0,0.0,0.0,0.0,0.0,0.0,-3.5941,-3.2546,-3.6715,-3.65,-3.1358,0.0,0.0,0.0,0.0,0.0,0.0,0.0,0.0,0.0,0.0,0.0,0.0,0.0,0.0,0.0,0.0,0.0,0.0,0.0,0.0,0.0,0.0,0.0,0.0,0.0,0.0,0.0,0.0,0.0,0.0,0.0,0.0,0.0,0.0,0.0,0.0,0.0,0.0,0.0,0.0,0.0,0.0,0.0,0.0,0.0,0.0,0.0,0.0,0.0,0.0,0.0,0.0,0.0,0.0,0.0,0.0,0.0,0.0,0.0,0.0,0.0,0.0,0.0,0.0,0.0,0.0,0.0,0.0,0.0,0.0,0.0,0.0,0.0,0.0,0.0,0.0,0.0,0.0,0.0,0.0,0.0,0.0,0.0,0.0,0.0,0.0,0.0,0.0,0.0,0.0,0.0,0.0,0.0,0.0,0.0,0.0,0.0,0.0,0.0,0.0,0.0,0.0,0.0,0.0,0.0,0.0,0.0,0.0,0.0,0.0,0.0,0.0,-3.8408,-3.8256,-3.3388,0.0,0.0,0.0,0.0,0.0,0.0,0.0,0.0,0.0,0.0,0.0,0.0,0.0,0.0,0.0,0.0,0.0,0.0,0.0,0.0,0.0,0.0,0.0,0.0,0.0,0.0,0.0,0.0,0.0,0.0,0.0,0.0,0.0,0.0,0.0,0.0,0.0,0.0,0.0,0.0,0.0,0.0,0.0,0.0,0.0,0.0,0.0,0.0,0.0,0.0,0.0,0.0,0.0,0.0,0.0,0.0,0.0,0.0,0.0,0.0,0.0,0.0,0.0,0.0,0.0,0.0,0.0,0.0,0.0,0.0,0.0,0.0,0.0,0.0,0.0,0.0,0.0,0.0,0.0,0.0,0.0,0.0,0.0,0.0,0.0,0.0,0.0,0.0,0.0,0.0,0.0,0.0,0.0,0.0,0.0,0.0,0.0,0.0,0.0,0.0,0.0,0.0,0.0,0.0,0.0,0.0,0.0,0.0,0.0,0.0,-3.5518,-3.8265,-3.7736,0.0,-3.6821,0.0,0.0,0.0,0.0,0.0,0.0,0.0,0.0,0.0,0.0,0.0,0.0,0.0,0.0,0.0,0.0,0.0,0.0,0.0,0.0,0.0,0.0,0.0,0.0,0.0,0.0,0.0,0.0,0.0,0.0,0.0,0.0,0.0,0.0,0.0,0.0,0.0,0.0,0.0,0.0,0.0,0.0,0.0,0.0,0.0,0.0,0.0,0.0,0.0,0.0,0.0,0.0,0.0,0.0,0.0,0.0,0.0,0.0,0.0,0.0,0.0,0.0,0.0,0.0,0.0,0.0,0.0,0.0,0.0,0.0,0.0,0.0,0.0,0.0,0.0,0.0,0.0,0.0,0.0,0.0,0.0,0.0,0.0,0.0,0.0,0.0,0.0,0.0,0.0,0.0,0.0,0.0,0.0,0.0,0.0,0.0,0.0,0.0,0.0,0.0,0.0,0.0,0.0,0.0,0.0,0.0,0.0,0.0,0.0,0.0,-3.6821,-3.9312,-3.8805,-3.7918,0.0,0.0,0.0,0.0,0.0,0.0,0.0,0.0,0.0,0.0,0.0,0.0,0.0,0.0,0.0,0.0,0.0,0.0,0.0,0.0,0.0,0.0,0.0,0.0,0.0,0.0,0.0,0.0,0.0,0.0,0.0,0.0,0.0,0.0,0.0,0.0,0.0,0.0,0.0,0.0,0.0,0.0,0.0,0.0,0.0,0.0,0.0,0.0,0.0,0.0,0.0,0.0,0.0,0.0,0.0,0.0,0.0,0.0,0.0,0.0,0.0,0.0,0.0,0.0,0.0,0.0,0.0,0.0,0.0,0.0,0.0,0.0,0.0,0.0,0.0,0.0,0.0,0.0,0.0,0.0,0.0,0.0,0.0,0.0,0.0,0.0,0.0,0.0,0.0,0.0,0.0,0.0,0.0,0.0,0.0,0.0,0.0,0.0,0.0,0.0,0.0,0.0,0.0,0.0,0.0,0.0,0.0,0.0,0.0,0.0,-3.816,-3.9105,-4.1035,-3.9781,-3.8405,-3.7032,0.0,0.0,0.0,0.0,0.0,0.0,0.0,0.0,0.0,0.0,0.0,0.0,0.0,0.0,0.0,0.0,0.0,0.0,0.0,0.0,0.0,0.0,0.0,0.0,0.0,0.0,0.0,0.0,0.0,0.0,0.0,0.0,0.0,0.0,0.0,0.0,0.0,0.0,0.0,0.0,0.0,0.0,0.0,0.0,0.0,0.0,0.0,0.0,0.0,0.0,0.0,0.0,0.0,0.0,0.0,0.0,0.0,0.0,0.0,0.0,0.0,0.0,0.0,0.0,0.0,0.0,0.0,0.0,0.0,0.0,0.0,0.0,0.0,0.0,0.0,0.0,0.0,0.0,0.0,0.0,0.0,0.0,0.0,0.0,0.0,0.0,0.0,0.0,0.0,0.0,0.0,0.0,0.0,0.0,0.0,0.0,0.0,0.0,0.0,0.0,0.0,0.0,0.0,0.0,0.0,0.0,0.0,0.0,-4.3906,-4.2159,-4.238,-4.4803,-4.0406,-3.8179,0.0,0.0,0.0,0.0,0.0,0.0,0.0,0.0,0.0,0.0,0.0,0.0,0.0,0.0,0.0,0.0,0.0,0.0,0.0,0.0,0.0,0.0,0.0,0.0,0.0,0.0,0.0,0.0,0.0,0.0,0.0,0.0,0.0,0.0,0.0,0.0,0.0,0.0,0.0,0.0,0.0,0.0,0.0,0.0,0.0,0.0,0.0,0.0,0.0,0.0,0.0,0.0,0.0,0.0,0.0,0.0,0.0,0.0,0.0,0.0,0.0,0.0,0.0,0.0,0.0,0.0,0.0,0.0,0.0,0.0,0.0,0.0,0.0,0.0,0.0,0.0,0.0,0.0,0.0,0.0,0.0,0.0,0.0,0.0,0.0,0.0,0.0,0.0,0.0,0.0,0.0,0.0,0.0,0.0,0.0,0.0,0.0,0.0,0.0,0.0,0.0,0.0,0.0,0.0,0.0,0.0,0.0,0.0,0.0,-3.9722,-4.0797,-4.2183,-4.3699,-4.1209,-3.9973,0.0,0.0,0.0,0.0,0.0,0.0,0.0,0.0,0.0,0.0,0.0,0.0,0.0,0.0,0.0,0.0,0.0,0.0,0.0,0.0,0.0,0.0,0.0,0.0,0.0,0.0,0.0,0.0,0.0,0.0,0.0,0.0,0.0,0.0,0.0,0.0,0.0,0.0,0.0,0.0,0.0,0.0,0.0,0.0,0.0,0.0,0.0,0.0,0.0,0.0,0.0,0.0,0.0,0.0,0.0,0.0,0.0,0.0,0.0,0.0,0.0,0.0,0.0,0.0,0.0,0.0,0.0,0.0,0.0,0.0,0.0,0.0,0.0,0.0,0.0,0.0,0.0,0.0,0.0,0.0,0.0,0.0,0.0,0.0,0.0,0.0,0.0,0.0,0.0,0.0,0.0,0.0,0.0,0.0,0.0,0.0,0.0,0.0,0.0,0.0,0.0,0.0,0.0,0.0,0.0,0.0,0.0,0.0,0.0,-4.1161,-4.413,-4.5635,-4.5425,-4.3136,-4.1358,0.0,0.0,0.0,0.0,0.0,0.0,0.0,0.0,0.0,0.0,0.0,0.0,0.0,0.0,0.0,0.0,0.0,0.0,0.0,0.0,0.0,0.0,0.0,0.0,0.0,0.0,0.0,0.0,0.0,0.0,0.0,0.0,0.0,0.0,0.0,0.0,0.0,0.0,0.0,0.0,0.0,0.0,0.0,0.0,0.0,0.0,0.0,0.0,0.0,0.0,0.0,0.0,0.0,0.0,0.0,0.0,0.0,0.0,0.0,0.0,0.0,0.0,0.0,0.0,0.0,0.0,0.0,0.0,0.0,0.0,0.0,0.0,0.0,0.0,0.0,0.0,0.0,0.0,0.0,0.0,0.0,0.0,0.0,0.0,0.0,0.0,0.0,0.0,0.0,0.0,0.0,0.0,0.0,0.0,0.0,0.0,0.0,0.0,0.0,0.0,0.0,0.0,0.0,0.0,0.0,0.0,0.0,0.0,-4.159,-4.943,-5.2651,-5.2918,-5.089,-4.634,-4.2176,0.0,0.0,0.0,0.0,0.0,0.0,0.0,0.0,0.0,0.0,0.0,0.0,0.0,0.0,0.0,0.0,0.0,0.0,0.0,0.0,0.0,0.0,0.0,0.0,0.0,0.0,0.0,0.0,0.0,0.0,0.0,0.0,0.0,0.0,0.0,0.0,0.0,0.0,0.0,0.0,0.0,0.0,0.0,0.0,0.0,0.0,0.0,0.0,0.0,0.0,0.0,0.0,0.0,0.0,0.0,0.0,0.0,0.0,0.0,0.0,0.0,0.0,0.0,0.0,0.0,0.0,0.0,0.0,0.0,0.0,0.0,0.0,0.0,0.0,0.0,0.0,0.0,0.0,0.0,0.0,0.0,0.0,0.0,0.0,0.0,0.0,0.0,0.0,0.0,0.0,0.0,0.0,0.0,0.0,0.0,0.0,0.0,0.0,0.0,0.0,0.0,0.0,0.0,0.0,0.0,0.0,0.0,0.0,0.0,-4.5515,-5.0637,-5.3171,-5.2516,-4.8242,-4.5731,0.0,0.0,0.0,0.0,0.0,0.0,0.0,0.0,0.0,0.0,0.0,0.0,0.0,0.0,0.0,0.0,0.0,0.0,0.0,0.0,0.0,0.0,0.0,0.0,0.0,0.0,0.0,0.0,0.0,0.0,0.0,0.0,0.0,0.0,0.0,0.0,0.0,0.0,0.0,0.0,0.0,0.0,0.0,0.0,0.0,0.0,0.0,0.0,0.0,0.0,0.0,0.0,0.0,0.0,0.0,0.0,0.0,0.0,0.0,0.0,0.0,0.0,0.0,0.0,0.0,0.0,0.0,0.0,0.0,0.0,0.0,0.0,0.0,0.0,0.0,0.0,0.0,0.0,0.0,0.0,0.0,0.0,0.0,0.0,0.0,0.0,0.0,0.0,0.0,0.0,0.0,0.0,0.0,0.0,0.0,0.0,0.0,0.0,0.0,0.0,0.0,0.0,0.0,0.0,0.0,0.0,0.0,0.0,0.0,-5.0247,-5.5507,-5.8124,-5.7457,-5.2397,-4.946,-4.8938,0.0,0.0,0.0,0.0,0.0,0.0,0.0,0.0,0.0,0.0,0.0,0.0,0.0,0.0,0.0,0.0,0.0,0.0,0.0,0.0,0.0,0.0,0.0,0.0,0.0,0.0,0.0,0.0,0.0,0.0,0.0,0.0,0.0,0.0,0.0,0.0,0.0,0.0,0.0,0.0,0.0,0.0,0.0,0.0,0.0,0.0,0.0,0.0,0.0,0.0,0.0,0.0,0.0,0.0,0.0,0.0,0.0,0.0,0.0,0.0,0.0,0.0,0.0,0.0,0.0,0.0,0.0,0.0,0.0,0.0,0.0,0.0,0.0,0.0,0.0,0.0,0.0,0.0,0.0,0.0,0.0,0.0,0.0,0.0,0.0,0.0,0.0,0.0,0.0,0.0,0.0,0.0,0.0,0.0,0.0,0.0,0.0,0.0,0.0,0.0,0.0,0.0,0.0,0.0,0.0,0.0,0.0,0.0,-6.131,-6.5801,-6.6917,-6.4514,-5.8229,-5.3299,0.0,0.0,0.0,0.0,0.0,0.0,0.0,0.0,0.0,0.0,0.0,0.0,0.0,0.0,0.0,0.0,0.0,0.0,0.0,0.0,0.0,0.0,0.0,0.0,0.0,0.0,0.0,0.0,0.0,0.0,0.0,0.0,0.0,0.0,0.0,0.0,0.0,0.0,0.0,0.0,0.0,0.0,0.0,0.0,0.0,0.0,0.0,0.0,0.0,0.0,0.0,0.0,0.0,0.0,0.0,0.0,0.0,0.0,0.0,0.0,0.0,0.0,0.0,0.0,0.0,0.0,0.0,0.0,0.0,0.0,0.0,0.0,0.0,0.0,0.0,0.0,0.0,0.0,0.0,0.0,0.0,0.0,0.0,0.0,0.0,0.0,0.0,0.0,0.0,0.0,0.0,0.0,0.0,0.0,0.0,0.0,0.0,0.0,0.0,0.0,0.0,0.0,0.0,0.0,0.0,0.0,0.0,0.0,0.0,-6.4938,-7.0566,-7.2092,-6.913,-6.2598,-5.779,0.0,0.0,0.0,0.0,0.0,0.0,0.0,0.0,0.0,0.0,0.0,0.0,0.0,0.0,0.0,0.0,0.0,0.0,0.0,0.0,0.0,0.0,0.0,0.0,0.0,0.0,0.0,0.0,0.0,0.0,0.0,0.0,0.0,0.0,0.0,0.0,0.0,0.0,0.0,0.0,0.0,0.0,0.0,0.0,0.0,0.0,0.0,0.0,0.0,0.0,0.0,0.0,0.0,0.0,0.0,0.0,0.0,0.0,0.0,0.0,0.0,0.0,0.0,0.0,0.0,0.0,0.0,0.0,0.0,0.0,0.0,0.0,0.0,0.0,0.0,0.0,0.0,0.0,0.0,0.0,0.0,0.0,0.0,0.0,0.0,0.0,0.0,0.0,0.0,0.0,0.0,0.0,0.0,0.0,0.0,0.0,0.0,0.0,0.0,0.0,0.0,0.0,0.0,0.0,0.0,0.0,0.0,0.0,-6.2459,-7.0095,-7.474,-7.6424,-7.4942,-6.8297,-6.2898,0.0,0.0,0.0,0.0,0.0,0.0,0.0,0.0,0.0,0.0,0.0,0.0,0.0,0.0,0.0,0.0,0.0,0.0,0.0,0.0,0.0,0.0,0.0,0.0,0.0,0.0,0.0,0.0,0.0,0.0,0.0,0.0,0.0,0.0,0.0,0.0,0.0,0.0,0.0,0.0,0.0,0.0,0.0,0.0,0.0,0.0,0.0,0.0,0.0,0.0,0.0,0.0,0.0,0.0,0.0,0.0,0.0,0.0,0.0,0.0,0.0,0.0,0.0,0.0,0.0,0.0,0.0,0.0,0.0,0.0,0.0,0.0,0.0,0.0,0.0,0.0,0.0,0.0,0.0,0.0,0.0,0.0,0.0,0.0,0.0,0.0,0.0,0.0,0.0,0.0,0.0,0.0,0.0,0.0,0.0,0.0,0.0,0.0,0.0,0.0,0.0,0.0,0.0,0.0,0.0,0.0,0.0,0.0,-6.5821,-7.5386,-7.8022,-7.9665,-8.0277,-7.3947,-6.7762,0.0,0.0,0.0,0.0,0.0,0.0,0.0,0.0,0.0,0.0,0.0,0.0,0.0,0.0,0.0,0.0,0.0,0.0,0.0,0.0,0.0,0.0,0.0,0.0,0.0,0.0,0.0,0.0,0.0,0.0,0.0,0.0,0.0,0.0,0.0,0.0,0.0,0.0,0.0,0.0,0.0,0.0,0.0,0.0,0.0,0.0,0.0,0.0,0.0,0.0,0.0,0.0,0.0,0.0,0.0,0.0,0.0,0.0,0.0,0.0,0.0,0.0,0.0,0.0,0.0,0.0,0.0,0.0,0.0,0.0,0.0,0.0,0.0,0.0,0.0,0.0,0.0,0.0,0.0,0.0,0.0,0.0,0.0,0.0,0.0,0.0,0.0,0.0,0.0,0.0,0.0,0.0,0.0,0.0,0.0,0.0,0.0,0.0,0.0,0.0,0.0,0.0,0.0,0.0,0.0,0.0,0.0,0.0,-6.6657,-7.615,-7.829,-7.9665,-8.0468,-7.5053,-6.9277,0.0,0.0,0.0,0.0,0.0,0.0,0.0,0.0,0.0,0.0,0.0,0.0,0.0,0.0,0.0,0.0,0.0,0.0,0.0,0.0,0.0,0.0,0.0,0.0,0.0,0.0,0.0,0.0,0.0,0.0,0.0,0.0,0.0,0.0,0.0,0.0,0.0,0.0,0.0,0.0,0.0,0.0,0.0,0.0,0.0,0.0,0.0,0.0,-5.6794,0.0,0.0,0.0,0.0,0.0,0.0,0.0,0.0,0.0,0.0,0.0,0.0,0.0,0.0,0.0,0.0,0.0,0.0,0.0,0.0,0.0,0.0,0.0,0.0,0.0,0.0,0.0,0.0,0.0,0.0,0.0,0.0,0.0,0.0,0.0,0.0,0.0,0.0,0.0,0.0,0.0,0.0,0.0,0.0,0.0,0.0,0.0,0.0,0.0,0.0,0.0,0.0,0.0,0.0,0.0,0.0,0.0,0.0,0.0,-6.9877,-7.764,-7.9169,-8.0047,-8.0353,-7.7797,-7.2467,0.0,0.0,0.0,0.0,0.0,0.0,0.0,0.0,0.0,0.0,0.0,0.0,0.0,0.0,0.0,0.0,0.0,0.0,0.0,0.0,0.0,0.0,0.0,0.0,0.0,0.0,0.0,0.0,0.0,0.0,0.0,0.0,0.0,0.0,0.0,0.0,0.0,0.0,0.0,0.0,0.0,0.0,0.0,0.0,0.0,0.0,0.0,0.0,0.0,0.0,0.0,0.0,0.0,0.0,0.0,0.0,0.0,0.0,0.0,0.0,0.0,0.0,0.0,0.0,0.0,0.0,0.0,0.0,0.0,0.0,0.0,0.0,0.0,0.0,0.0,0.0,0.0,0.0,0.0,0.0,0.0,0.0,0.0,0.0,0.0,0.0,0.0,0.0,0.0,0.0,0.0,0.0,0.0,0.0,0.0,0.0,0.0,0.0,0.0,0.0,0.0,0.0,0.0,0.0,0.0,0.0,0.0,-6.6421,-7.2726,-7.9169,-8.0277,-8.0697,-8.0697,-8.0697,-7.5853,-6.5682,0.0,0.0,0.0,0.0,0.0,0.0,0.0,0.0,0.0,0.0,0.0,0.0,0.0,0.0,0.0,0.0,0.0,0.0,0.0,0.0,0.0,0.0,0.0,0.0,0.0,0.0,0.0,0.0,0.0,0.0,0.0,0.0,0.0,0.0,0.0,0.0,0.0,0.0,-5.5739,-5.9642,0.0,0.0,0.0,0.0,0.0,0.0,0.0,0.0,-6.069,0.0,0.0,0.0,0.0,0.0,0.0,0.0,0.0,0.0,0.0,0.0,0.0,0.0,0.0,0.0,0.0,0.0,0.0,0.0,0.0,0.0,0.0,0.0,0.0,0.0,0.0,0.0,0.0,0.0,0.0,0.0,0.0,0.0,0.0,0.0,0.0,0.0,0.0,0.0,0.0,0.0,0.0,0.0,0.0,0.0,0.0,0.0,0.0,0.0,0.0,0.0,0.0,0.0,0.0,0.0,0.0,-6.2905,-6.4947,-7.0525,-8.0047,-8.1156,-8.1576,-8.1576,-8.1576,-7.6998,-6.7686,0.0,0.0,0.0,0.0,0.0,0.0,0.0,0.0,0.0,0.0,0.0,0.0,0.0,0.0,0.0,0.0,0.0,0.0,0.0,0.0,0.0,0.0,0.0,0.0,0.0,0.0,0.0,0.0,0.0,0.0,0.0,0.0,0.0,0.0,0.0,0.0,0.0,0.0,0.0,-6.5249,-6.619,0.0,0.0,0.0,0.0,0.0,0.0,0.0,0.0,-6.2185,0.0,0.0,0.0,0.0,0.0,0.0,0.0,0.0,0.0,0.0,0.0,0.0,0.0,0.0,0.0,0.0,0.0,0.0,0.0,0.0,0.0,0.0,0.0,0.0,0.0,0.0,0.0,0.0,0.0,0.0,0.0,0.0,0.0,0.0,0.0,0.0,0.0,0.0,0.0,0.0,0.0,0.0,0.0,0.0,0.0,0.0,0.0,0.0,0.0,0.0,0.0,0.0,0.0,0.0,0.0,-6.3622,-6.9455,-7.5313,-8.1001,-8.1824,-8.2304,-8.2726,-8.2659,-7.7993,0.0,0.0,0.0,0.0,0.0,0.0,0.0,0.0,0.0,0.0,0.0,0.0,0.0,0.0,0.0,0.0,0.0,0.0,0.0,0.0,0.0,0.0,0.0,0.0,0.0,0.0,0.0,0.0,0.0,0.0,0.0,0.0,0.0,0.0,0.0,0.0,0.0,0.0,0.0,0.0,-6.7338,-6.909,-7.0564,0.0,0.0,0.0,0.0,0.0,0.0,-6.5312,-6.4775,0.0,0.0,0.0,0.0,0.0,0.0,0.0,0.0,0.0,0.0,0.0,0.0,0.0,0.0,0.0,0.0,0.0,0.0,0.0,0.0,0.0,0.0,0.0,0.0,0.0,0.0,0.0,0.0,0.0,0.0,0.0,0.0,0.0,0.0,0.0,0.0,0.0,0.0,0.0,0.0,0.0,0.0,0.0,0.0,0.0,0.0,0.0,0.0,0.0,0.0,0.0,0.0,0.0,0.0,0.0,-6.3959,-7.3428,-7.9604,-8.1901,-8.2785,-8.3525,-8.4143,-8.4126,-7.924,0.0,0.0,0.0,0.0,0.0,0.0,0.0,0.0,0.0,0.0,0.0,0.0,0.0,0.0,0.0,0.0,0.0,0.0,0.0,0.0,0.0,0.0,0.0,0.0,0.0,0.0,0.0,0.0,0.0,0.0,0.0,0.0,0.0,0.0,0.0,0.0,0.0,0.0,0.0,0.0,0.0,-7.1397,-7.3484,-7.258,0.0,0.0,0.0,0.0,-6.8454,-6.8806,0.0,0.0,0.0,0.0,0.0,0.0,0.0,0.0,0.0,0.0,0.0,0.0,0.0,0.0,0.0,0.0,0.0,0.0,0.0,0.0,0.0,0.0,0.0,0.0,0.0,0.0,0.0,0.0,0.0,0.0,0.0,0.0,0.0,0.0,0.0,0.0,0.0,0.0,0.0,0.0,0.0,0.0,0.0,0.0,0.0,0.0,0.0,0.0,0.0,0.0,0.0,0.0,0.0,0.0,0.0,0.0,-6.3899,-7.1295,-7.7505,-8.215,-8.4765,-8.6088,-8.6165,-8.6165,-8.1465,0.0,0.0,0.0,0.0,0.0,0.0,0.0,0.0,0.0,0.0,0.0,0.0,0.0,0.0,0.0,0.0,0.0,0.0,0.0,0.0,0.0,0.0,0.0,0.0,0.0,0.0,0.0,0.0,0.0,0.0,0.0,0.0,0.0,0.0,0.0,0.0,0.0,0.0,0.0,0.0,0.0,-7.335,-7.2773,-7.3199,-7.3178,0.0,0.0,-7.3684,-7.5255,-7.6203,0.0,0.0,0.0,0.0,0.0,0.0,0.0,0.0,0.0,0.0,0.0,0.0,0.0,0.0,0.0,0.0,0.0,0.0,0.0,0.0,0.0,0.0,0.0,0.0,0.0,0.0,0.0,0.0,0.0,0.0,0.0,0.0,0.0,0.0,0.0,0.0,0.0,0.0,0.0,0.0,0.0,0.0,0.0,0.0,0.0,0.0,0.0,0.0,0.0,0.0,0.0,0.0,0.0,0.0,0.0,-6.1344,-6.5454,-7.4025,-8.0498,-8.4452,-8.56,-8.6822,-8.8261,-8.7776,-8.2611,0.0,0.0,0.0,0.0,0.0,0.0,0.0,0.0,0.0,0.0,0.0,0.0,0.0,0.0,0.0,0.0,0.0,0.0,0.0,0.0,0.0,0.0,0.0,0.0,0.0,0.0,0.0,0.0,0.0,0.0,0.0,0.0,0.0,0.0,0.0,0.0,0.0,0.0,0.0,0.0,0.0,0.0,-7.8232,-7.6916,0.0,0.0,0.0,-7.6301,-7.6439,0.0,0.0,0.0,0.0,0.0,0.0,0.0,0.0,0.0,0.0,0.0,0.0,0.0,0.0,0.0,0.0,0.0,0.0,0.0,0.0,0.0,0.0,0.0,0.0,0.0,0.0,0.0,0.0,0.0,0.0,0.0,0.0,0.0,0.0,0.0,0.0,0.0,0.0,0.0,0.0,0.0,0.0,0.0,0.0,0.0,0.0,0.0,0.0,0.0,0.0,0.0,0.0,0.0,0.0,0.0,0.0,0.0,-6.6973,-7.7024,-8.3504,-8.6088,-8.6615,-8.7765,-8.9676,-8.9261,0.0,0.0,0.0,0.0,0.0,0.0,0.0,0.0,0.0,0.0,0.0,0.0,0.0,0.0,0.0,0.0,0.0,0.0,0.0,0.0,0.0,0.0,0.0,0.0,0.0,0.0,0.0,-4.2595,0.0,0.0,0.0,0.0,0.0,0.0,0.0,0.0,0.0,0.0,0.0,0.0,0.0,0.0,-7.6202,-8.1895,-8.0216,-7.9548,0.0,0.0,-7.9787,-7.9427,-8.1852,-8.2587,0.0,0.0,0.0,0.0,0.0,0.0,0.0,0.0,0.0,0.0,0.0,0.0,0.0,0.0,0.0,0.0,0.0,0.0,0.0,0.0,0.0,0.0,0.0,0.0,0.0,0.0,0.0,0.0,-3.6042,-3.5503,0.0,0.0,0.0,0.0,0.0,0.0,0.0,0.0,0.0,0.0,0.0,0.0,0.0,0.0,0.0,0.0,0.0,0.0,0.0,0.0,0.0,0.0,0.0,0.0,-6.5485,-6.8308,-7.8781,-8.4819,-8.5896,-8.8365,-8.9782,-8.9977,-9.0719,-8.5643,0.0,0.0,0.0,0.0,0.0,0.0,0.0,0.0,0.0,0.0,0.0,0.0,0.0,0.0,0.0,0.0,0.0,0.0,0.0,0.0,0.0,0.0,0.0,0.0,0.0,0.0,0.0,0.0,0.0,0.0,0.0,0.0,0.0,0.0,0.0,0.0,0.0,0.0,0.0,0.0,0.0,-7.5688,-8.0081,-8.1904,-8.3742,0.0,-8.5915,-8.5766,-8.7401,-8.852,-8.7312,-8.1533,0.0,0.0,0.0,0.0,0.0,0.0,0.0,0.0,0.0,0.0,0.0,0.0,0.0,0.0,0.0,0.0,0.0,0.0,0.0,0.0,0.0,0.0,0.0,0.0,0.0,-3.6985,-3.697,0.0,-3.7066,0.0,0.0,0.0,0.0,0.0,0.0,0.0,0.0,0.0,0.0,0.0,0.0,0.0,0.0,0.0,0.0,0.0,0.0,0.0,0.0,0.0,0.0,0.0,0.0,-6.6234,-6.9861,-7.9608,-8.6083,-8.882,-8.9632,-9.0492,-9.1507,-9.1389,-8.7594,0.0,0.0,0.0,0.0,0.0,0.0,0.0,0.0,0.0,0.0,0.0,0.0,0.0,0.0,0.0,0.0,0.0,0.0,0.0,0.0,0.0,0.0,0.0,0.0,0.0,0.0,0.0,0.0,-5.4052,-5.5135,-5.3338,0.0,0.0,0.0,0.0,0.0,0.0,0.0,0.0,0.0,0.0,-8.0557,-8.4801,-8.5556,0.0,0.0,-8.8817,-8.8647,-8.9897,-8.9936,-8.904,-8.6702,-8.4754,0.0,0.0,0.0,0.0,0.0,0.0,0.0,0.0,0.0,0.0,0.0,0.0,0.0,0.0,0.0,0.0,0.0,0.0,0.0,0.0,0.0,0.0,0.0,0.0,0.0,0.0,0.0,-3.8593,0.0,0.0,0.0,0.0,0.0,0.0,0.0,0.0,0.0,0.0,0.0,0.0,0.0,0.0,0.0,0.0,0.0,0.0,0.0,0.0,0.0,0.0,0.0,0.0,-6.7619,-7.1324,-8.0752,-8.7338,-9.0936,-9.0851,-9.1428,-9.2795,-9.26,-8.9758,0.0,0.0,0.0,0.0,0.0,0.0,0.0,0.0,0.0,0.0,0.0,0.0,0.0,0.0,0.0,0.0,0.0,0.0,0.0,0.0,0.0,0.0,0.0,0.0,0.0,0.0,0.0,0.0,-5.6928,-5.7085,-5.5465,0.0,0.0,0.0,0.0,0.0,0.0,0.0,0.0,0.0,0.0,-8.4715,-8.8689,-8.8962,-8.9508,-9.1573,-9.1144,-9.0794,-9.1417,-9.1183,-9.0716,-8.9936,0.0,0.0,0.0,0.0,0.0,0.0,0.0,0.0,0.0,0.0,0.0,0.0,0.0,0.0,0.0,0.0,0.0,0.0,0.0,0.0,0.0,0.0,0.0,0.0,0.0,0.0,0.0,-4.0052,0.0,0.0,-3.9996,0.0,0.0,0.0,0.0,0.0,0.0,0.0,0.0,0.0,0.0,0.0,0.0,0.0,0.0,0.0,0.0,0.0,0.0,0.0,0.0,0.0,0.0,-6.9822,-7.2647,-8.2367,-8.8657,-9.1265,-9.2053,-9.2873,-9.3771,-9.4552,-9.2108,-8.5983,0.0,0.0,0.0,0.0,0.0,0.0,0.0,0.0,0.0,0.0,0.0,0.0,0.0,0.0,0.0,0.0,0.0,0.0,0.0,0.0,0.0,0.0,0.0,0.0,0.0,0.0,-5.1597,-5.3384,-5.5415,0.0,0.0,0.0,0.0,0.0,0.0,0.0,0.0,0.0,-7.8611,-8.3195,-8.7209,-9.0599,-9.1768,-9.2625,-9.356,-9.2976,-9.2391,-9.2508,-9.3093,-9.2742,0.0,0.0,0.0,0.0,0.0,0.0,0.0,0.0,0.0,0.0,0.0,0.0,0.0,0.0,0.0,0.0,0.0,0.0,0.0,0.0,0.0,0.0,0.0,0.0,0.0,0.0,0.0,-4.3387,-4.3355,0.0,0.0,0.0,0.0,0.0,0.0,0.0,0.0,0.0,0.0,0.0,-7.1798,-7.4363,0.0,0.0,0.0,0.0,0.0,0.0,0.0,0.0,0.0,0.0,0.0,0.0,-7.1353,-7.5439,-8.4951,-9.1233,-9.3732,-9.4083,-9.4395,-9.463,-9.4942,-9.2498,-8.6958,0.0,0.0,0.0,0.0,0.0,0.0,0.0,0.0,0.0,0.0,0.0,0.0,0.0,0.0,0.0,0.0,0.0,0.0,0.0,0.0,0.0,0.0,0.0,0.0,0.0,-5.9397,0.0,0.0,0.0,0.0,0.0,0.0,0.0,0.0,0.0,0.0,0.0,-7.8858,-8.3273,-8.752,-9.1066,-9.3327,-9.4379,-9.5236,0.0,0.0,0.0,0.0,0.0,0.0,0.0,0.0,0.0,0.0,0.0,0.0,0.0,0.0,-9.1108,-8.3384,-8.1516,-8.1126,-8.1126,0.0,0.0,0.0,0.0,0.0,0.0,0.0,0.0,0.0,0.0,0.0,0.0,0.0,0.0,-5.2475,-5.234,-5.1312,0.0,0.0,0.0,0.0,0.0,0.0,0.0,0.0,-7.1743,-7.6739,-7.9951,-8.2528,-8.2996,0.0,-8.1317,-7.7112,0.0,0.0,0.0,0.0,0.0,0.0,0.0,0.0,-7.5385,-7.9905,-8.7936,-9.3263,-9.541,-9.5567,-9.5684,-9.5996,-9.5996,-9.438,-9.094,-8.8529,-8.548,0.0,0.0,0.0,0.0,0.0,0.0,0.0,0.0,0.0,0.0,0.0,0.0,0.0,0.0,0.0,0.0,0.0,0.0,0.0,0.0,0.0,0.0,0.0,-6.4605,0.0,0.0,0.0,0.0,0.0,0.0,0.0,0.0,0.0,-7.3829,-7.9208,-8.4442,-8.8183,-9.1573,-9.4106,-9.5197,0.0,0.0,0.0,0.0,0.0,0.0,0.0,-9.7652,-9.9055,-9.7964,-9.7223,-9.8314,-9.9678,-10.0419,-9.9834,0.0,0.0,-9.1612,-8.9586,-8.9157,-8.9157,-9.0014,-9.0716,-9.0482,-9.2469,-9.4262,0.0,0.0,0.0,0.0,0.0,0.0,0.0,0.0,-6.6471,-6.6681,0.0,-6.2209,0.0,0.0,0.0,0.0,0.0,-6.5118,0.0,0.0,-8.4512,-8.9086,-8.9984,-9.0804,-9.1741,-9.2482,-9.1624,-8.9477,-8.5839,-7.7794,0.0,0.0,0.0,0.0,0.0,0.0,-8.1711,-8.5905,-9.1202,-9.4786,-9.6464,-9.6542,-9.6933,-9.7753,-9.7792,-9.7753,-9.7558,-9.2813,-8.961,-8.844,-7.7998,0.0,0.0,0.0,0.0,0.0,0.0,0.0,0.0,0.0,0.0,0.0,0.0,0.0,0.0,0.0,0.0,0.0,0.0,0.0,0.0,-6.6747,0.0,0.0,0.0,0.0,0.0,0.0,0.0,0.0,0.0,0.0,-8.1507,-8.491,-8.904,-9.321,0.0,0.0,0.0,0.0,-9.7964,-9.886,-9.9016,-9.9367,-10.0224,-10.1003,-10.1821,-10.2679,0.0,0.0,-10.5328,-10.603,-10.5991,-10.4393,-10.4822,-10.4315,-10.0964,-9.8743,-9.7613,-9.7574,-9.7574,-9.8003,-9.886,-10.0419,-10.225,-8.0658,0.0,0.0,0.0,0.0,-6.9709,-7.1203,-7.4092,-7.3627,-7.3782,-7.4286,-7.3003,0.0,0.0,0.0,0.0,0.0,0.0,-7.5966,-8.126,-8.4284,-8.817,-9.2678,-9.2951,-9.3537,-9.4356,-9.4747,-9.4122,-9.2522,-9.1257,-8.4366,-7.2445,0.0,0.0,0.0,0.0,-8.5492,-8.8713,-9.3856,-9.744,-9.9158,-9.9197,-9.9314,-9.9548,-9.9548,-9.9548,-9.9509,-9.8088,-9.5085,-9.0468,-8.6546,0.0,0.0,0.0,0.0,0.0,0.0,0.0,0.0,0.0,0.0,0.0,0.0,0.0,0.0,0.0,0.0,0.0,0.0,0.0,-6.8564,-7.3308,-7.473,0.0,0.0,0.0,0.0,0.0,0.0,0.0,0.0,0.0,-9.056,-9.243,-9.4301,0.0,0.0,-9.8977,-9.8977,-9.9717,-10.0808,-10.225,-10.2951,0.0,-10.451,-10.4861,-10.5523,-10.7004,-10.8134,-10.8836,-10.8836,-10.903,-10.903,-10.8524,-10.8641,-10.8485,-10.7511,-10.4978,-10.3107,-10.299,-10.299,-10.3068,-10.338,-10.4471,-10.5367,-9.2092,-8.4076,-8.0591,-7.9636,-8.0341,-7.9781,-8.1447,-8.4518,-8.4309,-8.4504,-8.4855,-8.3081,-8.1515,-7.9964,-7.6993,0.0,0.0,0.0,-8.2815,-8.8373,-8.9281,-9.1886,-9.5723,-9.623,-9.666,-9.7167,-9.7675,-9.7675,-9.7206,-9.8533,-9.3951,-8.3869,0.0,-8.3644,-8.2545,-8.7086,-9.094,-9.3876,-9.7073,-9.9236,-10.029,-10.0329,-10.0329,-10.0329,-10.0329,-10.0329,-10.0329,-10.0329,-9.8557,-9.4841,-9.2167,-8.8728,0.0,0.0,0.0,0.0,0.0,0.0,0.0,0.0,0.0,0.0,0.0,-6.2121,-5.7998,0.0,0.0,0.0,-6.9868,-7.3475,-7.7418,-8.0757,0.0,0.0,0.0,0.0,0.0,0.0,0.0,-8.8451,-9.1181,-9.3899,-9.7057,-9.8227,-9.8836,-9.9016,-9.9951,-10.0847,-10.151,0.0,-10.3497,-10.5212,-10.6186,-10.7043,-10.7861,-10.8017,-10.8485,-10.9888,-11.0784,-11.129,-11.1329,-11.1057,-11.0823,-11.0784,-11.0511,-11.0277,-11.0277,-10.8563,-10.7199,-10.7199,-10.7238,-10.7238,-10.7238,-10.7394,-10.7511,-10.0368,-9.9775,-9.1648,-8.872,-8.9415,-8.9348,-9.1671,-9.5488,-9.6308,-9.6738,-9.6379,-9.2362,-9.0071,-8.8916,-8.321,0.0,-8.7932,-8.8022,-9.1153,-9.6738,-9.7597,-9.8416,-9.9236,-10.0017,-10.0407,-10.0368,-10.0407,-10.0407,-10.0407,-10.1266,-10.0485,-9.8182,-9.5879,-9.4981,-9.541,-9.5606,-9.7323,-10.0524,-10.0603,-10.0642,-10.072,-10.072,-10.072,-10.0759,-10.0681,-10.072,-10.072,-10.0642,-10.0563,-10.0329,-9.5759,-9.2323,-9.0518,0.0,0.0,0.0,0.0,0.0,0.0,0.0,0.0,0.0,0.0,0.0,0.0,0.0,0.0,-7.636,-8.2879,0.0,-8.8501,-8.8096,0.0,0.0,0.0,-8.4473,-8.5877,-8.9272,-9.2305,-9.4373,0.0,0.0,-10.1568,-10.2582,-10.284,-10.2094,-10.186,-10.2367,-10.4004,-10.4978,-10.6108,-10.7705,-10.8719,-10.9537,-11.0121,-11.0355,-11.0706,-11.1485,-11.2382,-11.2771,-11.2732,-11.2226,-11.1758,-11.168,-11.1135,-11.0667,-11.0667,-11.0667,-11.0628,-11.055,-11.0316,-11.0199,-11.0044,-10.9537,-10.9069,-10.1032,-10.1969,-9.9189,-9.7862,-9.7511,-9.7464,-9.8088,-9.9041,-9.9275,-9.9392,-9.9314,-9.8869,-9.8205,-9.7355,-9.5871,-9.5559,-9.6184,-9.6831,-9.7932,-9.9392,-10.0212,-10.0681,-10.0915,-10.111,-10.1227,-10.1227,-10.1227,-10.1227,-10.1305,-10.275,-10.3179,-10.2593,-10.2633,-10.111,-9.826,-9.9978,-10.1696,-10.3179,-10.3218,-10.3491,-10.4155,-10.4194,-10.4194,-10.4194,-10.4194,-10.4194,-10.4194,-10.353,-10.2867,-10.2203,-10.036,-9.8869,-9.7776,-9.0256,0.0,0.0,0.0,0.0,0.0,0.0,0.0,0.0,0.0,-7.4714,-6.9561,0.0,-7.8038,0.0,-8.9906,-9.2241,-8.8135,-8.9883,0.0,0.0,-8.9524,-8.9883,-9.5902,-9.5161,-9.6097,-10.1114,-10.2353,-10.3463,-10.5091,-10.6052,-10.6739,-10.716,-10.6108,-10.564,-10.6731,-10.7628,-10.8524,-10.9537,-11.0433,-11.1057,-11.1329,-11.1875,-11.2382,-11.2537,-11.2771,-11.2888,-11.2888,-11.2732,-11.2576,-11.2615,-11.3005,-11.3239,-11.3239,-11.3278,-11.3239,-11.3122,-11.1719,-11.0277,-11.0277,-11.0121,-10.9849,-10.1071,-10.2164,-10.1696,-10.0343,-9.8614,-10.0547,-10.1422,-10.1422,-10.1422,-10.1422,-10.1422,-10.1891,-10.1813,-10.1422,-10.1422,-10.1149,-10.072,-10.0798,-10.1032,-10.1422,-10.1891,-10.2281,-10.2672,-10.3062,-10.3452,-10.3804,-10.3413,-10.3413,-10.3843,-10.478,-10.5248,-10.5287,-10.6146,-10.5365,-10.314,-10.3648,-10.3999,-10.4116,-10.4467,-10.4897,-10.5365,-10.5404,-10.5209,-10.4858,-10.5209,-10.5209,-10.4819,-10.435,-10.3687,-10.2828,-10.1969,-10.1149,-10.029,-9.569,-9.2997,0.0,0.0,0.0,0.0,0.0,0.0,0.0,0.0,0.0,0.0,0.0,-8.3894,-8.651,-9.3654,-9.6152,-9.1297,-9.4263,-9.6683,-9.7151,-9.5863,-9.7003,-10.2047,-10.0876,-10.1258,-10.5348,-10.5856,-10.6149,-10.704,-10.786,-10.8744,-10.9561,-10.9195,-10.8985,-10.942,-10.9927,-11.0511,-11.1329,-11.2187,-11.2927,-11.3278,-11.3745,-11.4057,-11.4057,-11.4057,-11.4057,-11.4057,-11.4057,-11.4057,-11.4096,-11.4447,-11.4759,-11.4798,-11.4759,-11.4798,-11.4603,-11.3629,-11.246,-11.1602,-11.1135,-11.0706,-10.0837,-10.1664,-10.1578,-9.9768,-9.7316,-10.1153,-10.2117,-10.0929,-10.0929,-10.1241,-10.1796,-10.2281,-10.2515,-10.2633,-10.275,-10.2789,-10.2789,-10.2359,-10.2593,-10.3296,-10.3413,-10.3882,-10.4623,-10.5287,-10.5951,-10.6653,-10.5951,-10.5951,-10.6693,-10.6927,-10.7044,-10.7083,-10.7864,-10.8254,-10.8098,-10.6732,-10.556,-10.4623,-10.5326,-10.5717,-10.5756,-10.5834,-10.5521,-10.4858,-10.5482,-10.5521,-10.478,-10.4545,-10.4077,-10.3335,-10.2476,-10.1618,-10.0837,-10.0485,-9.8455,0.0,-9.381,0.0,0.0,0.0,0.0,0.0,0.0,0.0,0.0,-8.9672,-9.0492,-8.854,-9.5723,-9.9275,-9.6347,-9.9548,-10.1852,-10.2008,-10.275,-10.396,-10.5521,-10.5717,-10.6419,-10.8137,-10.8293,-10.8324,-10.849,-10.9154,-11.0001,-11.0707,-11.1447,-11.1846,-11.1892,-11.1914,-11.2226,-11.2966,-11.3784,-11.4486,-11.5109,-11.5382,-11.5421,-11.546,-11.5382,-11.5499,-11.5421,-11.5421,-11.546,-11.546,-11.5538,-11.5655,-11.5655,-11.5655,-11.5694,-11.5655,-11.5421,-11.4759,-11.3356,-11.2498,-11.1875,-10.1196,-10.2484,-10.1774,-10.1531,-10.1631,-10.2468,-9.8274,-9.0984,-9.0914,-9.2908,-9.6485,-9.9446,-10.1149,-10.1774,-10.2476,-10.2789,-10.2906,-10.4858,-10.5795,-10.599,-10.6693,-10.7083,-10.7239,-10.6693,-10.6536,-10.6693,-10.6536,-10.6536,-10.6732,-10.8137,-10.8801,-10.884,-10.962,-10.9699,-10.9113,0.0,0.0,0.0,-10.7395,-10.7512,-10.7512,-10.8215,-10.8488,-10.8332,-10.8488,0.0,-10.8293,-10.6966,-10.6146,-10.5951,-10.5131,0.0,0.0,0.0,0.0,0.0,0.0,0.0,0.0,0.0,0.0,0.0,-9.4473,-9.4239,-9.2639,-9.6035,-9.705,-9.4122,-9.8299,-10.1305,-10.1383,-10.2672,-10.3882,-10.4623,-10.5443,-10.638,-10.7395,-10.7512,-10.8176,-10.9777,-11.005,-11.0314,-11.0959,-11.1807,-11.2343,-11.2514,-11.3216,-11.3694,-11.3678,-11.3646,-11.3745,-11.4018,-11.472,-11.5304,-11.5499,-11.5577,-11.5694,-11.5499,-11.5499,-11.5577,-11.5694,-11.5655,-11.5577,-11.5655,-11.6083,-11.659,-11.659,-11.6551,-11.6551,-11.659,-11.6006,-11.5187,-11.4174,-11.3823,-11.3317,-10.1032,0.0,-10.1696,-10.0993,0.0,-10.0129,-9.6343,-9.0375,-9.3872,-9.6875,-9.9533,-10.1796,-10.3062,-10.3296,-10.1124,-10.0431,-10.0736,-9.95,-10.0292,-10.2782,-10.368,-10.5261,-10.7356,-10.7786,-10.8176,-10.8566,-10.8566,-10.8801,-10.923,-10.9699,-10.9894,-10.9894,-11.0284,-11.0284,-10.9933,-11.0284,-11.0089,-10.923,-10.923,-10.923,-10.9269,-10.9659,-10.9699,-10.9347,-10.9699,0.0,0.0,0.0,0.0,0.0,0.0,0.0,0.0,0.0,0.0,-10.0876,-9.9588,-9.8494,-9.7714,-9.8026,-9.8807,-10.0056,-10.0993,-10.0759,-9.9002,-10.0915,-10.1618,-10.0407,-10.2203,-10.3765,-10.4623,-10.5521,-10.638,-10.72,-10.7708,-10.8488,-10.9581,-10.9503,-10.9933,-11.1416,-11.1768,-11.211,-11.2959,-11.3428,-11.3896,-11.4266,-11.4647,-11.4893,-11.4893,-11.487,-11.4953,-11.5421,-11.5811,-11.6317,-11.6668,-11.6746,-11.6902,-11.7252,-11.7369,-11.7564,-11.7954,-11.8032,-11.7993,-11.7993,-11.8071,-11.8032,-11.7993,-11.772,-11.7369,-11.7369,-11.7058,-11.6473,-11.5655,-11.5148,-11.4642,-10.1344,-10.1969,-10.2125,-10.0946,-9.8908,-9.8809,-9.7149,-9.4816,0.0,0.0,0.0,-10.4732,-10.5404,-10.5092,-10.0987,-9.9501,-9.992,-9.6156,-9.672,-10.0877,-10.1774,-10.4109,-10.759,-10.8918,-10.9855,-11.0479,-11.0518,-11.087,-11.1533,-11.0987,-11.0714,-11.0753,-11.087,-11.0948,-11.0948,-11.0948,-11.0948,-11.0948,-11.0674,-11.0518,-11.0518,-11.0635,-11.0401,-10.9738,-11.0362,-11.0401,-10.9777,-10.9581,-10.9152,-10.8449,-10.7083,-10.6224,-10.6068,-10.5287,-10.5014,-10.556,-10.5482,-10.5404,-10.5404,-10.5404,-10.5482,-10.5638,-10.5638,-10.5248,-10.4389,-10.4311,-10.4623,-10.5365,-10.5521,-10.5951,-10.6849,-10.7708,-10.8566,-10.9425,-10.9659,-11.0323,-11.1768,-11.1572,-11.1846,-11.3212,-11.3563,-11.3798,-11.4461,-11.4617,-11.4891,-11.5506,-11.5699,-11.5882,-11.5985,-11.5845,-11.6006,-11.6746,-11.7136,-11.7525,-11.8032,-11.8383,-11.8733,-11.9279,-11.9435,-11.9785,-12.037,-12.0604,-12.0604,-12.0292,-11.998,-11.9513,-11.9279,-11.8694,-11.8188,-11.8032,-11.8032,-11.7798,-11.7175,-11.6434,-11.585,-10.3608,-10.3804,-10.4545,-10.4623,-10.4311,-10.4264,-10.4021,-10.3309,-10.0565,-9.9371,-9.9722,-10.3661,-10.5404,-10.5404,-10.5396,-10.5453,-10.5695,-10.7091,-10.8158,-10.8909,-10.9768,-11.0471,-11.1026,-11.0557,-11.0401,-11.0479,-11.0518,-11.0557,-11.0753,-11.1338,-11.1611,-11.1689,-11.2353,-11.2704,-11.2744,-11.2744,-11.2744,-11.2704,-11.126,-11.0518,-11.0518,-11.1221,-11.1572,-11.1455,-11.1533,-11.1572,-11.1455,-11.0753,-11.0284,-11.0167,-10.9894,-10.9464,-10.8762,-10.7903,-10.7161,-10.6536,-10.5834,-10.5404,-10.5443,-10.5404,-10.5717,-10.6458,-10.6536,-10.6146,-10.5326,-10.5209,-10.5287,-10.5443,-10.6185,-10.6888,-10.7747,-10.8684,-10.9581,-11.0362,-11.1026,-11.1846,-11.2861,-11.3446,-11.411,-11.5086,-11.532,-11.5281,-11.5476,-11.5515,-11.5593,-11.5818,-11.6479,-11.696,-11.7382,-11.7058,-11.7019,-11.772,-11.8499,-11.8928,-11.9162,-11.9785,-12.0136,-12.037,-12.0409,-12.0487,-12.076,-12.0837,-12.0798,-12.0682,-12.0565,-12.0175,-11.9591,-11.9201,-11.8772,-11.8266,-11.811,-11.7915,-11.7759,-11.7603,-11.7136,-10.478,-10.4858,-10.5248,-10.5678,-10.6146,-10.6614,-10.681,-10.6693,-10.5173,-10.3914,-10.3329,-10.5699,-10.7083,-10.7278,-10.4949,-10.4333,-10.5129,-10.3439,-10.4193,-10.6841,-10.7309,-10.8812,-11.0987,-11.1143,-11.1221,-11.1221,-11.1689,-11.1885,-11.1963,-11.2314,-11.2509,-11.2548,-11.29,-11.3095,-11.3095,-11.3095,-11.3095,-11.3095,-11.2314,-11.1924,-11.1924,-11.2314,-11.2509,-11.247,-11.2509,-11.2509,-11.2509,-11.2119,-11.1924,-11.1885,-11.1455,-11.1026,-11.0674,-10.9855,-10.9152,-10.8801,-10.8371,-10.8176,-10.8176,-10.8176,-10.8332,-10.8723,-10.8762,-10.8605,-10.8215,-10.7786,-10.7708,-10.8137,-10.8566,-10.9308,-11.0635,-11.1104,-11.1885,-11.3212,-11.3719,-11.4071,-11.4461,-11.4813,-11.5281,-11.5632,-11.571,-11.5906,-11.6374,-11.6413,-11.6647,-11.7038,-11.7767,-11.8364,-11.8746,-11.8885,-11.8807,-11.8846,-11.9102,-11.9492,-11.9938,-12.031,-12.076,-12.1188,-12.1305,-12.15,-12.1851,-12.2006,-12.1968,-12.1968,-12.1656,-12.1188,-12.0682,-11.9902,-11.924,-11.885,-11.8266,-11.8071,-11.8032,-11.8032,-11.772,-10.5678,-10.5678,-10.5912,-10.638,-10.7044,-10.7708,-10.8098,-10.8371,-10.8957,-10.8644,-10.7747,-10.8293,-10.8957,-10.9074,-10.5241,-10.4187,-10.4714,-10.136,-10.1841,-10.5402,-10.5882,-10.7816,-11.087,-11.1807,-11.2119,-11.2158,-11.2783,-11.3095,-11.3095,-11.3095,-11.3095,-11.3095,-11.3095,-11.3095,-11.3095,-11.3095,-11.3095,-11.3095,-11.3095,-11.3095,-11.3095,-11.3095,-11.3095,-11.3095,-11.3095,-11.3095,-11.3095,-11.3095,-11.3095,-11.3056,-11.247,-11.208,-11.208,-11.126,-11.0714,-11.0518,-11.0323,-11.0128,-10.9972,-10.9933,-11.0011,-11.0206,-11.0245,-11.0362,-11.0674,-11.0245,-11.0011,-11.044,-11.0596,-11.1377,-11.2665,-11.3212,-11.3993,-11.5476,-11.571,-11.5671,-11.5945,-11.5984,-11.6101,-11.6218,-11.6296,-11.6608,-11.7116,-11.7272,-11.7623,-11.8434,-11.921,-11.9679,-11.9768,-12.0299,-12.0377,-12.0166,-11.9916,-12.0211,-12.0868,-12.1185,-12.15,-12.2123,-12.2201,-12.2435,-12.2903,-12.3137,-12.3175,-12.302,-12.263,-12.2084,-12.1812,-12.0682,-11.9668,-11.924,-11.8577,-11.8032,-11.8032,-11.8032,-11.7993,-10.6575,-10.6693,-10.7395,-10.7786,-10.7864,-10.7981,-10.8488,-10.9113,-10.9269,-10.9659,-11.0089,-11.0245,-11.0284,-11.0323,-10.9729,-10.9534,-10.9816,-11.0158,-11.0383,-11.09,-11.1876,-11.247,-11.2744,-11.29,-11.2978,-11.2978,-11.3056,-11.3095,-11.3095,-11.3095,-11.3095,-11.3095,-11.3095,-11.3095,-11.3095,-11.3095,-11.3095,-11.3095,-11.3095,-11.3095,-11.3095,-11.3095,-11.3095,-11.3095,-11.3095,-11.3095,-11.3095,-11.3095,-11.3095,-11.3095,-11.2978,-11.2939,-11.2822,-11.2119,-11.1299,-11.0518,-10.9855,-10.9074,-10.841,-10.8215,-10.8762,-10.9308,-10.9581,-11.0206,-11.1494,-11.1611,-11.1221,-11.0909,-11.1299,-11.2197,-11.3017,-11.3837,-11.4774,-11.5749,-11.5867,-11.5984,-11.6725,-11.6882,-11.7194,-11.8014,-11.7975,-11.8092,-11.817,-11.8248,-11.8551,-11.9311,-12.012,-12.0642,-12.0615,-12.081,-12.1201,-12.1537,-12.1663,-12.1647,-12.1842,-12.2471,-12.2708,-12.2981,-12.3059,-12.3098,-12.3175,-12.3214,-12.3175,-12.2942,-12.302,-12.2591,-12.1851,-12.111,-12.0214,-11.9591,-11.885,-11.811,-11.8032,-11.8149,-11.8188,-10.7473,-10.7512,-10.7825,-10.802,-10.8059,-10.8527,-10.8996,-10.9347,-11.0362,-11.0987,-11.1299,-11.1807,-11.1768,-11.126,-11.126,-11.1533,-11.2041,-11.2392,-11.2587,-11.2587,-11.2939,-11.3095,-11.3095,-11.3095,-11.3095,-11.3095,-11.3095,-11.3095,-11.3095,-11.3095,-11.3095,-11.3095,-11.3095,-11.3095,-11.3095,-11.3095,-11.3095,-11.3095,-11.3095,-11.3095,-11.3095,-11.3095,-11.3095,-11.3095,-11.3095,-11.3095,-11.3056,-11.2626,-11.2353,-11.2314,-11.1846,-11.1572,-11.1572,-11.1221,-11.087,-11.0557,-11.0714,-11.087,-11.0987,-11.1026,-11.1182,-11.1533,-11.1533,-11.1885,-11.247,-11.2587,-11.2392,-11.2236,-11.2822,-11.368,-11.4539,-11.5398,-11.6257,-11.7038,-11.7233,-11.7389,-11.7701,-11.8209,-11.8482,-11.8404,-11.9185,-11.9536,-11.9224,-11.9458,-11.9878,-12.0326,-12.0978,-12.1486,-12.1552,-12.1929,-12.2359,-12.2671,-12.2761,-12.2693,-12.27,-12.29,-12.3175,-12.3214,-12.3214,-12.3214,-12.3137,-12.3214,-12.3059,-12.2552,-12.2552,-12.2201,-12.1227,-12.0954,-12.0448,-11.9941,-11.9902,-11.9396,-11.8889,-11.9162,-11.9162,-10.802,-10.802,-10.802,-10.802,-10.8098,-10.8918,-10.9425,-10.9816,-11.1182,-11.1924,-11.2197,-11.2822,-11.2744,-11.2236,-11.2158,-11.2509,-11.3056,-11.3095,-11.3095,-11.3095,-11.3095,-11.3095,-11.3095,-11.3095,-11.3095,-11.3095,-11.3095,-11.3095,-11.3095,-11.3095,-11.3095,-11.3095,-11.3095,-11.3095,-11.3095,-11.3095,-11.3095,-11.3095,-11.3095,-11.3095,-11.3095,-11.3095,-11.3095,-11.3095,-11.3095,-11.3095,-11.3095,-11.2509,-11.2041,-11.1807,-11.1182,-11.087,-11.087,-11.087,-11.087,-11.087,-11.1182,-11.1729,-11.2353,-11.2392,-11.2509,-11.2704,-11.2744,-11.2861,-11.3056,-11.3095,-11.3095,-11.3095,-11.3876,-11.4695,-11.5632,-11.6257,-11.7155,-11.8365,-11.8638,-11.8677,-11.899,-11.9536,-11.9614,-11.9224,-12.0005,-12.059,-12.0122,-12.0551,-12.1127,-12.1234,-12.1848,-12.2394,-12.2473,-12.2902,-12.3242,-12.3308,-12.3268,-12.32,-12.3207,-12.3173,-12.3175,-12.2864,-12.2786,-12.2669,-12.2669,-12.2591,-12.2786,-12.2201,-12.2123,-12.2162,-12.1929,-12.15,-12.0837,-12.0682,-12.0565,-12.0409,-11.9785,-12.0253,-11.998,-10.802,-10.802,-10.802,-10.8059,-10.8098,-10.8996,-10.9777,-11.0518,-11.1455,-11.2275,-11.2939,-11.3056,-11.3056,-11.3017,-11.2978,-11.3056,-11.3095,-11.3095,-11.3095,-11.3095,-11.3095,-11.3095,-11.3095,-11.3095,-11.3095,-11.3095,-11.3095,-11.3095,-11.3095,-11.3095,-11.3095,-11.3095,-11.3095,-11.3095,-11.3095,-11.3095,-11.3095,-11.3095,-11.3095,-11.3095,-11.3095,-11.3095,-11.3095,-11.3095,-11.3095,-11.3095,-11.3095,-11.3056,-11.2665,-11.1846,-11.1689,-11.165,-11.1689,-11.1689,-11.165,-11.165,-11.1026,-11.0635,-11.0792,-11.0909,-11.1182,-11.1807,-11.2158,-11.2314,-11.3134,-11.3329,-11.3329,-11.3173,-11.4032,-11.4852,-11.5632,-11.5984,-11.6921,-11.8951,-11.938,-11.9731,-12.0473,-12.0551,-12.0707,-12.059,-12.0746,-12.0942,-12.0825,-12.1488,-12.1957,-12.2181,-12.2776,-12.3245,-12.3196,-12.3303,-12.3269,-12.3282,-12.3239,-12.3207,-12.3207,-12.3212,-12.2825,-12.2591,-12.2474,-12.1968,-12.1461,-12.1266,-12.1695,-12.2084,-12.2396,-12.263,-12.2786,-12.2435,-12.1578,-12.1227,-12.1071,-12.0798,-12.0604,-12.0565,-12.0253,-10.802,-10.8059,-10.8605,-10.884,-10.8996,-11.0323,-11.1065,-11.1416,-11.2275,-11.2783,-11.3056,-11.3095,-11.3095,-11.3095,-11.3095,-11.3095,-11.3095,-11.3095,-11.3095,-11.3095,-11.3095,-11.3095,-11.3095,-11.3095,-11.3095,-11.3095,-11.3095,-11.3095,-11.3095,-11.3095,-11.3095,-11.3095,-11.3095,-11.3095,-11.3095,-11.3095,-11.3095,-11.3095,-11.3095,-11.3095,-11.3095,-11.3095,-11.3095,-11.3095,-11.3095,-11.3095,-11.3095,-11.2587,-11.2119,-11.1807,-11.1299,-11.0987,-11.0948,-11.0987,-11.126,-11.1689,-11.1494,-11.1572,-11.208,-11.2158,-11.2275,-11.2626,-11.3173,-11.3524,-11.3954,-11.4422,-11.4774,-11.4813,-11.4969,-11.5593,-11.6296,-11.653,-11.7116,-11.8443,-11.9224,-11.9653,-12.0122,-12.0903,-12.1449,-12.102,-12.1254,-12.184,-12.223,-12.2737,-12.2933,-12.2933,-12.3206,-12.3362,-12.3401,-12.3342,-12.3308,-12.3268,-12.3239,-12.3207,-12.3212,-12.3194,-12.3059,-12.2903,-12.2747,-12.2669,-12.2357,-12.2162,-12.2513,-12.2006,-12.2396,-12.2396,-12.2357,-12.2396,-12.1734,-12.2201,-12.2006,-12.1656,-12.1539,-12.1461,-12.0876,-10.8176,-10.8488,-10.9035,-10.9464,-10.9855,-11.1182,-11.1807,-11.1885,-11.2704,-11.3095,-11.3095,-11.3095,-11.3095,-11.3095,-11.3095,-11.3095,-11.3095,-11.3095,-11.3095,-11.3095,-11.3095,-11.3095,-11.3095,-11.3095,-11.3095,-11.3095,-11.3095,-11.3095,-11.3095,-11.3095,-11.3095,-11.3095,-11.3095,-11.3095,-11.3095,-11.3095,-11.3095,-11.3095,-11.3095,-11.3095,-11.3095,-11.3095,-11.3095,-11.3095,-11.3095,-11.3095,-11.3095,-11.2509,-11.2041,-11.1768,-11.1221,-11.0909,-11.0909,-11.1182,-11.1572,-11.2119,-11.2236,-11.247,-11.2978,-11.3095,-11.3095,-11.3134,-11.3876,-11.4305,-11.411,-11.4774,-11.532,-11.5554,-11.5398,-11.5749,-11.696,-11.7155,-11.7467,-11.8521,-11.9419,-12.0044,-12.0356,-12.1371,-12.1566,-12.1098,-12.1254,-12.1996,-12.2776,-12.2894,-12.3089,-12.3323,-12.3401,-12.3401,-12.3401,-12.3331,-12.3295,-12.3307,-12.3262,-12.3212,-12.3194,-12.3175,-12.2864,-12.2669,-12.263,-12.2825,-12.2864,-12.2825,-12.2747,-12.2201,-12.1968,-12.1851,-12.189,-12.2045,-12.2474,-12.3059,-12.2981,-12.2552,-12.2435,-12.2318,-12.1598,-10.8527,-10.923,-10.9308,-10.9894,-11.0596,-11.1533,-11.1846,-11.2041,-11.2744,-11.3095,-11.3095,-11.3095,-11.3095,-11.3095,-11.3095,-11.3095,-11.3095,-11.3095,-11.3095,-11.3095,-11.3095,-11.3095,-11.3095,-11.3095,-11.3095,-11.3095,-11.3095,-11.3095,-11.3095,-11.3095,-11.3095,-11.3095,-11.3095,-11.3095,-11.3095,-11.3095,-11.3095,-11.3095,-11.3095,-11.3095,-11.3095,-11.3095,-11.3095,-11.3095,-11.3095,-11.3095,-11.3095,-11.3056,-11.2665,-11.2002,-11.1846,-11.1807,-11.1885,-11.2431,-11.3017,-11.2978,-11.3056,-11.3056,-11.3095,-11.3173,-11.3251,-11.3368,-11.3993,-11.4266,-11.3876,-11.4344,-11.5086,-11.5632,-11.5398,-11.5632,-11.7545,-11.7545,-11.7701,-11.9224,-12.0044,-12.0942,-12.1605,-12.2035,-12.18,-12.1137,-12.1059,-12.1254,-12.1879,-12.2269,-12.2542,-12.3206,-12.3401,-12.3401,-12.3401,-12.3359,-12.3321,-12.3293,-12.3246,-12.3194,-12.3175,-12.3137,-12.2669,-12.2279,-12.2279,-12.2357,-12.2279,-12.2279,-12.263,-12.2318,-12.2591,-12.2552,-12.2552,-12.2669,-12.2591,-12.302,-12.3059,-12.2903,-12.2396,-12.2045,-12.2143,-10.9074,-10.9464,-11.0557,-11.1143,-11.1494,-11.2314,-11.2704,-11.2704,-11.3017,-11.3095,-11.3095,-11.3095,-11.3095,-11.3095,-11.3095,-11.3095,-11.3095,-11.3095,-11.3095,-11.3095,-11.3095,-11.3095,-11.3095,-11.3095,-11.3095,-11.3095,-11.3095,-11.3095,-11.3095,-11.3095,-11.3095,-11.3095,-11.3095,-11.3095,-11.3095,-11.3095,-11.3095,-11.3095,-11.3095,-11.3095,-11.3095,-11.3095,-11.3095,-11.3095,-11.3095,-11.3095,-11.3095,-11.3095,-11.2978,-11.2665,-11.2704,-11.2704,-11.2744,-11.2939,-11.3095,-11.3095,-11.3095,-11.3095,-11.3173,-11.3641,-11.3915,-11.411,-11.4774,-11.5125,-11.5047,-11.5593,-11.6218,-11.6647,-11.6843,-11.7584,-11.8014,-11.8092,-11.817,-11.8638,-11.9927,-12.0825,-12.1254,-12.2152,-12.2503,-12.1879,-12.1683,-12.184,-12.1996,-12.2035,-12.2308,-12.3167,-12.3323,-12.3323,-12.3391,-12.3359,-12.3307,-12.3293,-12.3229,-12.3214,-12.3214,-12.3214,-12.2942,-12.2669,-12.2552,-12.2474,-12.2279,-12.224,-12.2513,-12.2747,-12.302,-12.3098,-12.3137,-12.302,-12.2825,-12.2669,-12.2591,-12.2201,-12.1617,-12.1481,-12.1597,-10.9464,-10.9894,-11.1221,-11.2002,-11.2314,-11.29,-11.3095,-11.3095,-11.3095,-11.3095,-11.3095,-11.3095,-11.3095,-11.3095,-11.3095,-11.3095,-11.3095,-11.3095,-11.3095,-11.3095,-11.3095,-11.3095,-11.3095,-11.3095,-11.3095,-11.3095,-11.3095,-11.3095,-11.3095,-11.3095,-11.3095,-11.3095,-11.3095,-11.3095,-11.3095,-11.3095,-11.3095,-11.3095,-11.3095,-11.3095,-11.3095,-11.3095,-11.3095,-11.3095,-11.3095,-11.3095,-11.3095,-11.3095,-11.3095,-11.3173,-11.3368,-11.3446,-11.3173,-11.3368,-11.3446,-11.3134,-11.3095,-11.3095,-11.3173,-11.3563,-11.3915,-11.4071,-11.4734,-11.5164,-11.532,-11.6023,-11.6647,-11.7467,-11.7584,-11.8092,-11.856,-11.8443,-11.8443,-11.8755,-11.9653,-12.0278,-12.0473,-12.1254,-12.141,-12.0746,-12.0551,-12.0825,-12.1059,-12.1176,-12.1683,-12.2542,-12.2933,-12.3167,-12.3235,-12.332,-12.3295,-12.3268,-12.3262,-12.3212,-12.3214,-12.3214,-12.3214,-12.3137,-12.3059,-12.2981,-12.2864,-12.2825,-12.302,-12.2981,-12.3175,-12.2786,-12.2747,-12.2591,-12.2435,-12.2318,-12.2006,-12.15,-12.0954,-12.0876,-12.0877,-10.9816,-11.0557,-11.1494,-11.2353,-11.3017,-11.3095,-11.3095,-11.3095,-11.3095,-11.3095,-11.3095,-11.3095,-11.3095,-11.3095,-11.3095,-11.3095,-11.3095,-11.3095,-11.3095,-11.3095,-11.3095,-11.3095,-11.3095,-11.3095,-11.3095,-11.3095,-11.3095,-11.3095,-11.3095,-11.3095,-11.3095,-11.3095,-11.3095,-11.3095,-11.3095,-11.3095,-11.3095,-11.3095,-11.3095,-11.3095,-11.3095,-11.3095,-11.3095,-11.3095,-11.3095,-11.3095,-11.3095,-11.3095,-11.3095,-11.3212,-11.3876,-11.3954,-11.3485,-11.3954,-11.3954,-11.3329,-11.3173,-11.3095,-11.3095,-11.3368,-11.3407,-11.3524,-11.4227,-11.4461,-11.4813,-11.5632,-11.6608,-11.774,-11.7584,-11.7819,-11.8834,-11.8716,-11.8638,-11.9224,-11.9653,-11.9849,-11.9653,-11.981,-11.981,-11.9029,-11.8482,-11.8755,-11.9849,-11.9927,-12.0746,-12.1918,-12.2464,-12.2815,-12.3079,-12.3253,-12.3191,-12.3073,-12.295,-12.2644,-12.2454,-12.3173,-12.3095,-12.2804,-12.296,-12.3194,-12.3214,-12.3214,-12.3214,-12.3214,-12.3137,-12.2708,-12.2435,-12.2396,-12.189,-12.1344,-12.0993,-12.0643,-12.037,-12.0136,-11.9962,-11.0323,-11.0674,-11.2119,-11.29,-11.3095,-11.3095,-11.3095,-11.3095,-11.3095,-11.3095,-11.3095,-11.3095,-11.3095,-11.3095,-11.3095,-11.3095,-11.3095,-11.3095,-11.3095,-11.3095,-11.3095,-11.3095,-11.3095,-11.3095,-11.3095,-11.3095,-11.3095,-11.3095,-11.3095,-11.3095,-11.3095,-11.3095,-11.3095,-11.3095,-11.3095,-11.3095,-11.3095,-11.3095,-11.3095,-11.3095,-11.3095,-11.3095,-11.3095,-11.3095,-11.3095,-11.3095,-11.3095,-11.3095,-11.3095,-11.3173,-11.3954,-11.4344,-11.4071,-11.4305,-11.4305,-11.3993,-11.3446,-11.3095,-11.3212,-11.3641,-11.3954,-11.4149,-11.4695,-11.532,-11.5398,-11.614,-11.6804,-11.7428,-11.7623,-11.8092,-11.8521,-11.8482,-11.8482,-11.8716,-11.9575,-12.0278,-12.0278,-12.0434,-12.0122,-11.938,-11.9146,-11.9536,-12.0044,-12.0473,-12.102,-12.2425,-12.2894,-12.3011,-12.3196,-12.2941,-12.2788,-12.2435,-12.2209,-12.1826,-12.1848,-12.2683,-12.2878,-12.245,-12.2644,-12.3173,-12.3194,-12.3214,-12.3214,-12.3214,-12.3214,-12.2903,-12.263,-12.2513,-12.1617,-12.0682,-12.0448,-12.0292,-11.9396,-11.8928,-11.8869,-11.0518,-11.0635,-11.2392,-11.3095,-11.3095,-11.3095,-11.3095,-11.3095,-11.3095,-11.3095,-11.3095,-11.3095,-11.3095,-11.3095,-11.3095,-11.3095,-11.3095,-11.3095,-11.3095,-11.3095,-11.3095,-11.3095,-11.3095,-11.3095,-11.3095,-11.3095,-11.3095,-11.3095,-11.3095,-11.3095,-11.3095,-11.3095,-11.3095,-11.3095,-11.3095,-11.3095,-11.3095,-11.3095,-11.3095,-11.3095,-11.3095,-11.3095,-11.3095,-11.3095,-11.3095,-11.3095,-11.3095,-11.3095,-11.3095,-11.3329,-11.4188,-11.4774,-11.4461,-11.4774,-11.4774,-11.4422,-11.3602,-11.3095,-11.3173,-11.3602,-11.3993,-11.4344,-11.493,-11.5515,-11.6101,-11.6764,-11.7077,-11.7623,-11.8053,-11.8248,-11.8365,-11.856,-11.8599,-11.8521,-11.9497,-12.0083,-11.981,-11.9653,-11.9497,-11.9185,-11.9302,-11.9653,-12.0239,-12.0551,-12.1449,-12.2386,-12.2698,-12.2972,-12.3206,-12.2734,-12.2424,-12.2279,-12.217,-12.2037,-12.1748,-12.2255,-12.2255,-12.1842,-12.2393,-12.2939,-12.3038,-12.3098,-12.3214,-12.3214,-12.3214,-12.3098,-12.2747,-12.224,-12.1344,-12.0604,-12.0331,-11.9707,-11.8772,-11.8344,-11.8225,-11.0518,-11.0635,-11.2392,-11.3095,-11.3095,-11.3095,-11.3095,-11.3095,-11.3095,-11.3095,-11.3095,-11.3095,-11.3095,-11.3095,-11.3095,-11.3095,-11.3095,-11.3095,-11.3095,-11.3095,-11.3095,-11.3095,-11.3095,-11.3095,-11.3095,-11.3095,-11.3095,-11.3095,-11.3095,-11.3095,-11.3095,-11.3095,-11.3095,-11.3095,-11.3095,-11.3095,-11.3095,-11.3095,-11.3095,-11.3095,-11.3095,-11.3095,-11.3095,-11.3095,-11.3095,-11.3095,-11.3095,-11.3095,-11.3095,-11.3095,-11.4774,-11.5242,-11.4813,-11.5476,-11.5281,-11.4539,-11.3759,-11.3134,-11.3251,-11.3446,-11.3759,-11.45,-11.4774,-11.5242,-11.6608,-11.7116,-11.7506,-11.8092,-11.8287,-11.8287,-11.8365,-11.8912,-11.8873,-11.8521,-11.9029,-11.8951,-11.8521,-11.8287,-11.8287,-11.8326,-11.899,-11.9302,-11.981,-12.0317,-12.1176,-12.2659,-12.2815,-12.3011,-12.3118,-12.2824,-12.2683,-12.2697,-12.2591,-12.2505,-12.2138,-12.1865,-12.1514,-12.1241,-12.2121,-12.2687,-12.2804,-12.2903,-12.3137,-12.3214,-12.3214,-12.2981,-12.2552,-12.189,-12.1149,-12.0409,-12.0019,-11.9162,-11.8305,-11.8188,-11.8092,-11.0518,-11.0635,-11.2353,-11.3095,-11.3095,-11.3095,-11.3095,-11.3095,-11.3095,-11.3095,-11.3095,-11.3095,-11.3095,-11.3095,-11.3095,-11.3095,-11.3095,-11.3095,-11.3095,-11.3095,-11.3095,-11.3095,-11.3095,-11.3095,-11.3095,-11.3095,-11.3095,-11.3095,-11.3095,-11.3095,-11.3095,-11.3095,-11.3095,-11.3095,-11.3095,-11.3095,-11.3095,-11.3095,-11.3095,-11.3095,-11.3095,-11.3095,-11.3095,-11.3095,-11.3095,-11.3095,-11.3095,-11.3095,-11.3095,-11.3524,-11.4695,-11.5789,-11.5945,-11.5828,-11.5554,-11.5047,-11.3954,-11.3446,-11.3954,-11.411,-11.45,-11.532,-11.5945,-11.6608,-11.6882,-11.7662,-11.8014,-11.8287,-11.8287,-11.8287,-11.8326,-11.8443,-11.8482,-11.8404,-11.8482,-11.856,-11.8326,-11.8287,-11.8287,-11.8365,-11.8521,-11.9029,-12.0278,-12.0512,-12.141,-12.2698,-12.305,-12.3167,-12.2923,-12.2639,-12.2617,-12.2515,-12.2474,-12.2209,-12.1546,-12.1141,-12.0695,-12.0656,-12.1518,-12.2318,-12.2435,-12.2864,-12.3137,-12.3214,-12.3214,-12.2903,-12.263,-12.224,-12.1656,-12.0682,-11.9746,-11.9045,-11.846,-11.8227,-11.7936,-11.0518,-11.0635,-11.1924,-11.2704,-11.3056,-11.3095,-11.3095,-11.3095,-11.3095,-11.3095,-11.3095,-11.3095,-11.3095,-11.3095,-11.3095,-11.3095,-11.3095,-11.3095,-11.3095,-11.3095,-11.3095,-11.3095,-11.3095,-11.3095,-11.3095,-11.3095,-11.3095,-11.3095,-11.3095,-11.3095,-11.3095,-11.3095,-11.3095,-11.3095,-11.3095,-11.3095,-11.3095,-11.3095,-11.3095,-11.3095,-11.3095,-11.3095,-11.3095,-11.3095,-11.3095,-11.3095,-11.3095,-11.3524,-11.368,-11.4032,-11.4969,-11.5671,-11.5789,-11.5749,-11.5515,-11.493,-11.4383,-11.3876,-11.4305,-11.4813,-11.5398,-11.6218,-11.6764,-11.7194,-11.7506,-11.8092,-11.8248,-11.8287,-11.8287,-11.8287,-11.8287,-11.8287,-11.8287,-11.8287,-11.8287,-11.8287,-11.8287,-11.8287,-11.8287,-11.8365,-11.8677,-11.9224,-11.9927,-12.0395,-12.0903,-12.18,-12.18,-12.1918,-12.183,-12.1625,-12.1926,-12.1929,-12.2006,-12.1702,-12.0938,-12.0353,-11.9838,-12.0055,-12.0778,-12.1539,-12.2006,-12.2591,-12.3175,-12.3214,-12.3214,-12.3214,-12.2942,-12.2513,-12.1968,-12.0915,-11.998,-11.924,-11.8616,-11.8227,-11.7896,-11.0518,-11.0596,-11.1455,-11.2314,-11.3017,-11.3095,-11.3095,-11.3095,-11.3095,-11.3095,-11.3095,-11.3095,-11.3095,-11.3095,-11.3095,-11.3095,-11.3095,-11.3095,-11.3095,-11.3095,-11.3095,-11.3095,-11.3095,-11.3095,-11.3095,-11.3095,-11.3095,-11.3095,-11.3095,-11.3095,-11.3095,-11.3095,-11.3095,-11.3095,-11.3095,-11.3095,-11.3095,-11.3095,-11.3095,-11.3095,-11.3095,-11.3095,-11.3095,-11.3095,-11.3095,-11.3095,-11.3251,-11.3798,-11.4266,-11.4305,-11.5164,-11.5047,-11.4656,-11.493,-11.5242,-11.4422,-11.4188,-11.4266,-11.4734,-11.532,-11.6023,-11.6999,-11.7233,-11.7545,-11.8092,-11.8209,-11.8287,-11.8287,-11.8287,-11.8287,-11.8287,-11.8287,-11.8287,-11.8287,-11.8287,-11.8287,-11.8287,-11.8287,-11.8287,-11.8365,-11.8638,-11.9107,-11.9575,-12.0083,-12.0434,-12.0746,-12.0746,-12.0825,-12.0815,-12.1049,-12.1547,-12.1915,-12.2098,-12.1219,-12.0377,-12.0727,-12.0055,-11.9743,-12.0292,-12.1149,-12.1851,-12.2513,-12.3098,-12.3175,-12.3214,-12.3214,-12.3214,-12.2981,-12.224,-12.111,-12.037,-11.9746,-11.9006,-11.8227,-11.7892,-11.0518,-11.0557,-11.1455,-11.2314,-11.3017,-11.3095,-11.3095,-11.3095,-11.3095,-11.3095,-11.3095,-11.3095,-11.3095,-11.3095,-11.3095,-11.3095,-11.3095,-11.3095,-11.3095,-11.3095,-11.3095,-11.3095,-11.3095,-11.3095,-11.3095,-11.3095,-11.3095,-11.3095,-11.3095,-11.3095,-11.3095,-11.3095,-11.3095,-11.3095,-11.3095,-11.3095,-11.3095,-11.3095,-11.3095,-11.3095,-11.3095,-11.3095,-11.3095,-11.3095,-11.3095,-11.3095,-11.329,-11.3876,-11.4071,-11.3563,-11.4891,-11.4656,-11.3954,-11.4188,-11.4422,-11.4266,-11.3954,-11.4266,-11.5164,-11.5671,-11.6569,-11.7584,-11.8053,-11.8014,-11.8248,-11.8326,-11.8404,-11.8287,-11.8287,-11.8287,-11.8287,-11.8287,-11.8287,-11.8287,-11.8287,-11.8287,-11.8287,-11.8287,-11.8287,-11.8326,-11.856,-11.8755,-11.9185,-11.9536,-11.977,-12.0044,-12.0161,-12.059,-12.0981,-12.1332,-12.1869,-12.2199,-12.2449,-12.1133,-11.9743,-12.06,-12.0739,-11.9881,-12.0253,-12.1344,-12.2045,-12.2591,-12.2981,-12.3137,-12.3214,-12.3214,-12.3214,-12.3214,-12.2474,-12.1383,-12.0798,-12.0292,-11.924,-11.8286,-11.7953,-11.0128,-11.0518,-11.0948,-11.1885,-11.2978,-11.3095,-11.3095,-11.3095,-11.3095,-11.3095,-11.3095,-11.3095,-11.3095,-11.3095,-11.3095,-11.3095,-11.3095,-11.3095,-11.3095,-11.3095,-11.3095,-11.3095,-11.3095,-11.3095,-11.3095,-11.3095,-11.3095,-11.3095,-11.3095,-11.3095,-11.3095,-11.3095,-11.3095,-11.3095,-11.3095,-11.3095,-11.3095,-11.3095,-11.3095,-11.3095,-11.3095,-11.3095,-11.3095,-11.3095,-11.3095,-11.3095,-11.3329,-11.4461,-11.4383,-11.3759,-11.4774,-11.45,-11.3798,-11.3446,-11.3759,-11.3798,-11.411,-11.4695,-11.5749,-11.6374,-11.7506,-11.8131,-11.8638,-11.8638,-11.856,-11.8599,-11.8677,-11.8404,-11.8287,-11.8287,-11.8287,-11.8287,-11.8287,-11.8287,-11.8287,-11.8287,-11.8287,-11.8287,-11.8287,-11.8287,-11.8404,-11.8521,-11.8638,-11.8912,-11.9107,-11.9302,-11.9536,-12.0122,-12.0825,-12.1137,-12.141,-12.1664,-12.1708,-12.0796,-11.9626,-12.0076,-12.076,-12.0136,-12.0253,-12.1383,-12.2123,-12.2591,-12.2942,-12.3175,-12.3214,-12.2903,-12.3175,-12.3137,-12.2357,-12.1695,-12.1227,-12.0526,-11.9299,-11.8443,-11.8064,-10.9659,-11.0245,-11.044,-11.1416,-11.2744,-11.3017,-11.3095,-11.3095,-11.3111,-11.3111,-11.3103,-11.3103,-11.3103,-11.3095,-11.3095,-11.3095,-11.3095,-11.3095,-11.3095,-11.3095,-11.3095,-11.3095,-11.3095,-11.3095,-11.3095,-11.3095,-11.3095,-11.3095,-11.3095,-11.3095,-11.3095,-11.3095,-11.3095,-11.3095,-11.3095,-11.3095,-11.3095,-11.3095,-11.3095,-11.3095,-11.3095,-11.3095,-11.3095,-11.3095,-11.3095,-11.3095,-11.3251,-11.4422,-11.4383,-11.3915,-11.4305,-11.4695,-11.3407,-11.3095,-11.3173,-11.3563,-11.4734,-11.532,-11.6023,-11.696,-11.778,-11.8287,-11.8873,-11.8795,-11.8638,-11.8677,-11.8912,-11.8443,-11.8287,-11.8287,-11.8287,-11.8287,-11.8287,-11.8287,-11.8287,-11.8287,-11.8287,-11.8287,-11.8287,-11.8287,-11.8287,-11.8365,-11.8482,-11.8482,-11.8716,-11.8716,-11.8912,-11.9302,-11.9927,-11.9966,-12.0229,-12.0649,-12.0615,-12.0133,-11.9526,-11.9414,-11.9941,-11.9941,-12.0409,-12.1422,-12.2045,-12.2552,-12.2669,-12.2552,-12.2357,-12.2123,-12.2591,-12.2786,-12.2006,-12.1461,-12.1383,-12.0876,-11.9806,-11.8734,-11.808,-10.9347,-10.9503,-11.0206,-11.1065,-11.2041,-11.2822,-11.3095,-11.3103,-11.3125,-11.3098,-11.3086,-11.3086,-11.3118,-11.3103,-11.3095,-11.3095,-11.3095,-11.3095,-11.3095,-11.3095,-11.3095,-11.3095,-11.3095,-11.3095,-11.3095,-11.3095,-11.3095,-11.3095,-11.3095,-11.3095,-11.3095,-11.3095,-11.3095,-11.3095,-11.3095,-11.3095,-11.3095,-11.3095,-11.3095,-11.3095,-11.3095,-11.3095,-11.3095,-11.3095,-11.3095,-11.3095,-11.3212,-11.411,-11.4071,-11.3446,-11.4032,-11.4032,-11.329,-11.3095,-11.3563,-11.4032,-11.4539,-11.4891,-11.5789,-11.6882,-11.7701,-11.817,-11.8521,-11.8404,-11.8482,-11.8443,-11.8482,-11.8365,-11.8287,-11.8287,-11.8287,-11.8287,-11.8287,-11.8287,-11.8287,-11.8287,-11.8287,-11.8287,-11.8287,-11.8287,-11.8287,-11.8287,-11.8365,-11.8326,-11.8326,-11.8287,-11.8404,-11.8834,-11.9185,-11.9419,-11.9566,-12.0053,-12.0225,-11.9782,-11.9542,-11.9375,-11.9591,-11.9785,-12.0292,-12.1188,-12.1539,-12.1812,-12.1578,-12.1422,-12.1266,-12.1266,-12.1578,-12.1578,-12.1344,-12.1188,-12.1032,-12.0798,-12.0487,-11.9375,-11.815,-10.9113,-11.0011,-11.0401,-11.1338,-11.2509,-11.2962,-11.3118,-11.3142,-11.315,-11.3157,-11.3157,-11.3118,-11.3111,-11.3095,-11.3095,-11.3095,-11.3095,-11.3095,-11.3095,-11.3095,-11.3095,-11.3095,-11.3095,-11.3095,-11.3095,-11.3095,-11.3095,-11.3095,-11.3095,-11.3095,-11.3095,-11.3095,-11.3095,-11.3095,-11.3095,-11.3095,-11.3095,-11.3095,-11.3095,-11.3095,-11.3095,-11.3095,-11.3095,-11.3095,-11.3095,-11.3095,-11.329,-11.3915,-11.3915,-11.3446,-11.3954,-11.3954,-11.3485,-11.3485,-11.3915,-11.3602,-11.4656,-11.5515,-11.6413,-11.7233,-11.778,-11.8287,-11.8638,-11.9029,-11.8912,-11.8521,-11.8287,-11.8287,-11.8287,-11.8287,-11.8287,-11.8287,-11.8287,-11.8287,-11.8287,-11.8287,-11.8287,-11.8287,-11.8287,-11.8287,-11.8287,-11.8287,-11.8287,-11.8287,-11.8287,-11.8287,-11.8404,-11.8716,-11.9107,-11.9458,-11.9595,-11.9819,-11.9823,-11.9665,-11.9503,-11.9431,-11.9746,-11.9902,-11.9513,-12.0292,-12.0721,-12.0837,-12.0682,-12.0487,-12.0331,-12.037,-12.0526,-12.0798,-12.0993,-12.0837,-12.0604,-12.0117,-11.965,-11.9364,-11.8177,-10.8879,-11.0206,-11.0479,-11.1471,-11.2774,-11.302,-11.3131,-11.3203,-11.3196,-11.3189,-11.315,-11.3103,-11.3095,-11.3095,-11.3095,-11.3095,-11.3095,-11.3095,-11.3095,-11.3095,-11.3095,-11.3095,-11.3095,-11.3095,-11.3095,-11.3095,-11.3095,-11.3095,-11.3095,-11.3095,-11.3095,-11.3095,-11.3095,-11.3095,-11.3095,-11.3095,-11.3095,-11.3095,-11.3095,-11.3095,-11.3095,-11.3095,-11.3095,-11.3095,-11.3095,-11.3095,-11.3212,-11.3602,-11.3602,-11.3446,-11.3602,-11.3641,-11.3251,-11.3485,-11.4032,-11.4071,-11.4891,-11.5867,-11.6804,-11.7662,-11.8053,-11.8404,-11.8716,-11.8951,-11.899,-11.856,-11.8287,-11.8287,-11.8287,-11.8287,-11.8287,-11.8287,-11.8287,-11.8287,-11.8287,-11.8287,-11.8287,-11.8287,-11.8287,-11.8287,-11.8287,-11.8287,-11.8287,-11.8287,-11.8287,-11.8287,-11.8443,-11.8638,-11.8912,-11.9224,-11.9595,-11.9768,-12.0018,-11.9977,-11.9893,-11.986,-12.0115,-11.9863,-11.9513,-11.9474,-11.9941,-12.0058,-11.998,-11.9746,-11.9435,-11.9279,-11.9279,-12.0019,-12.0604,-11.9902,-11.9299,-11.8968,-11.8593,-11.8411,-11.7763,-10.8527,-10.9464,-11.0245,-11.1145,-11.2069,-11.2858,-11.3176,-11.32,-11.319,-11.3181,-11.3131,-11.3118,-11.3095,-11.3095,-11.3095,-11.3095,-11.3095,-11.3095,-11.3095,-11.3095,-11.3095,-11.3095,-11.3095,-11.3095,-11.3095,-11.3095,-11.3095,-11.3095,-11.3095,-11.3095,-11.3095,-11.3095,-11.3095,-11.3095,-11.3095,-11.3095,-11.3095,-11.3095,-11.3095,-11.3095,-11.3095,-11.3095,-11.3095,-11.3095,-11.3095,-11.3095,-11.3095,-11.329,-11.3329,-11.3095,-11.3446,-11.3407,-11.3251,-11.3602,-11.4188,-11.4734,-11.4852,-11.5945,-11.7233,-11.7506,-11.7584,-11.8014,-11.8404,-11.856,-11.856,-11.8443,-11.8287,-11.8287,-11.8287,-11.8287,-11.8287,-11.8287,-11.8287,-11.8287,-11.8287,-11.8287,-11.8287,-11.8287,-11.8287,-11.8287,-11.8287,-11.8287,-11.8287,-11.8287,-11.8287,-11.8287,-11.8287,-11.8482,-11.8443,-11.8755,-11.94,-11.9807,-12.0291,-12.0445,-12.0478,-12.0366,-11.9998,-11.9591,-11.9201,-11.9123,-11.9279,-11.9279,-11.9201,-11.8889,-11.8577,-11.8305,-11.811,-11.8616,-11.885,-11.8403,-11.7975,-11.7697,-11.7231,-11.684,-11.6095,-10.884,-11.0128,-11.0479,-11.1106,-11.1992,-11.2847,-11.3199,-11.3203,-11.3193,-11.3137,-11.3079,-11.3103,-11.3095,-11.3095,-11.3095,-11.3095,-11.3095,-11.3095,-11.3095,-11.3095,-11.3095,-11.3095,-11.3095,-11.3095,-11.3095,-11.3095,-11.3095,-11.3095,-11.3095,-11.3095,-11.3095,-11.3095,-11.3095,-11.3095,-11.3095,-11.3095,-11.3095,-11.3095,-11.3095,-11.3095,-11.3095,-11.3095,-11.3095,-11.3095,-11.3095,-11.3095,-11.3095,-11.3095,-11.3095,-11.3212,-11.3563,-11.3446,-11.3329,-11.3915,-11.45,-11.5008,-11.4891,-11.5945,-11.7116,-11.7272,-11.7428,-11.8053,-11.8287,-11.8287,-11.8287,-11.8287,-11.8287,-11.8287,-11.8287,-11.8287,-11.8287,-11.8287,-11.8287,-11.8287,-11.8287,-11.8287,-11.8287,-11.8287,-11.8287,-11.8287,-11.8287,-11.8287,-11.8287,-11.8287,-11.8287,-11.8287,-11.8287,-11.8287,-11.8287,-11.8317,-11.897,-11.9456,-11.9927,-12.008,-12.0049,-11.9899,-11.9707,-11.9279,-11.885,-11.8772,-11.8733,-11.8538,-11.8383,-11.8071,-11.7915,-11.7837,-11.7681,-11.7369,-11.7195,-11.7021,-11.6824,-11.6618,-11.604,-11.5375,-11.4728,-10.8862,-11.0175,-11.0502,-11.1276,-11.2304,-11.2929,-11.3203,-11.3203,-11.3199,-11.3176,-11.3095,-11.3095,-11.3095,-11.3095,-11.3095,-11.3095,-11.3103,-11.3111,-11.3118,-11.3118,-11.3118,-11.3111,-11.3111,-11.3103,-11.3095,-11.3095,-11.3095,-11.3095,-11.3095,-11.3095,-11.3095,-11.3095,-11.3095,-11.3095,-11.3095,-11.3095,-11.3095,-11.3095,-11.3095,-11.3095,-11.3095,-11.3095,-11.3095,-11.3095,-11.3095,-11.3095,-11.3095,-11.3095,-11.3095,-11.3251,-11.3485,-11.3563,-11.3719,-11.4032,-11.4617,-11.4734,-11.5008,-11.5828,-11.6686,-11.735,-11.7623,-11.8209,-11.8287,-11.8287,-11.8287,-11.8287,-11.8287,-11.8287,-11.8287,-11.8287,-11.8287,-11.8287,-11.8287,-11.8287,-11.8287,-11.8287,-11.8287,-11.8287,-11.8287,-11.8287,-11.8287,-11.8287,-11.8287,-11.8287,-11.8287,-11.8287,-11.8287,-11.8287,-11.8287,-11.8356,-11.8531,-11.8964,-11.9367,-11.9402,-11.937,-11.9431,-11.9357,-11.8772,-11.8421,-11.8266,-11.8149,-11.8032,-11.8032,-11.8032,-11.7876,-11.7564,-11.7175,-11.6746,-11.6338,-11.5911,-11.5474,-11.4914,-11.4862,-11.4254,-11.3884,-10.8542,-10.9402,-11.0267,-11.1562,-11.3008,-11.3164,-11.3203,-11.3203,-11.3203,-11.3154,-11.3111,-11.3103,-11.3103,-11.3103,-11.3103,-11.3103,-11.3103,-11.3125,-11.3103,-11.3103,-11.3147,-11.3103,-11.3086,-11.3111,-11.3095,-11.3095,-11.3095,-11.3095,-11.3095,-11.3095,-11.3095,-11.3103,-11.3072,-11.3111,-11.3103,-11.3103,-11.3103,-11.3103,-11.3103,-11.3072,-11.3072,-11.3103,-11.3095,-11.3095,-11.3095,-11.3095,-11.3095,-11.3095,-11.3095,-11.3173,-11.3407,-11.3407,-11.329,-11.3446,-11.3915,-11.4422,-11.4461,-11.532,-11.6725,-11.7701,-11.8092,-11.817,-11.817,-11.8131,-11.8248,-11.8287,-11.8287,-11.8287,-11.8287,-11.8287,-11.8287,-11.8287,-11.8287,-11.8287,-11.8287,-11.8287,-11.8287,-11.8287,-11.8287,-11.8287,-11.8287,-11.8287,-11.8287,-11.8287,-11.8287,-11.8287,-11.8287,-11.8287,-11.8278,-11.8307,-11.8403,-11.8522,-11.8871,-11.8879,-11.8963,-11.9141,-11.9006,-11.8383,-11.8071,-11.8032,-11.8032,-11.8032,-11.8032,-11.8032,-11.7837,-11.7603,-11.6863,-11.6083,-11.5287,-11.4401,-11.3515,-11.3009,-11.3131,-11.323,-11.2964,-10.8827,-11.0189,-11.0507,-11.1601,-11.3086,-11.3203,-11.3203,-11.3203,-11.3203,-11.3164,-11.3154,-11.3125,-11.3111,-11.3086,-11.3092,-11.3125,-11.3142,-11.3181,-11.3164,-11.3164,-11.3164,-11.3154,-11.3103,-11.3118,-11.3095,-11.3095,-11.3095,-11.3095,-11.3095,-11.3095,-11.3095,-11.3103,-11.3025,-11.3059,-11.3025,-11.2998,-11.2927,-11.3003,-11.304,-11.304,-11.3037,-11.3053,-11.3103,-11.3111,-11.3072,-11.3072,-11.3103,-11.3111,-11.3103,-11.3173,-11.3407,-11.3563,-11.3329,-11.3407,-11.3993,-11.4344,-11.4422,-11.4891,-11.6023,-11.6921,-11.7701,-11.7866,-11.7905,-11.7866,-11.817,-11.8287,-11.8287,-11.8296,-11.8272,-11.8272,-11.8287,-11.8287,-11.8287,-11.8287,-11.8287,-11.8287,-11.8287,-11.8287,-11.8287,-11.8287,-11.8287,-11.8287,-11.8287,-11.8287,-11.8287,-11.8287,-11.8287,-11.8229,-11.8229,-11.8218,-11.8274,-11.8222,-11.8333,-11.8434,-11.8478,-11.8655,-11.8694,-11.8227,-11.8032,-11.8032,-11.8032,-11.8032,-11.8032,-11.8032,-11.7837,-11.7603,-11.6281,-11.4976,-11.377,-11.2802,-11.2428,-11.2259,-11.2517,-11.2534,-11.227,-10.9023,-11.0508,-11.0273,-11.1367,-11.3008,-11.3203,-11.3203,-11.3203,-11.3203,-11.3203,-11.3203,-11.3147,-11.3131,-11.3137,-11.3151,-11.3154,-11.3176,-11.3176,-11.3203,-11.3203,-11.3203,-11.3164,-11.3108,-11.3118,-11.3103,-11.3095,-11.3095,-11.3095,-11.3095,-11.3095,-11.3079,-11.3029,-11.2968,-11.2927,-11.2888,-11.2869,-11.2852,-11.292,-11.2923,-11.2923,-11.2925,-11.2968,-11.3003,-11.3003,-11.3003,-11.304,-11.3064,-11.3053,-11.3086,-11.3267,-11.3455,-11.3689,-11.3446,-11.3563,-11.3954,-11.3954,-11.4296,-11.4732,-11.5636,-11.6011,-11.6794,-11.7497,-11.7365,-11.7667,-11.8102,-11.8157,-11.8159,-11.8161,-11.8193,-11.8196,-11.8193,-11.8189,-11.8214,-11.8214,-11.8214,-11.8214,-11.8272,-11.8279,-11.8253,-11.8253,-11.824,-11.824,-11.8296,-11.8287,-11.8287,-11.8287,-11.8278,-11.8229,-11.8207,-11.8184,-11.8171,-11.813,-11.8083,-11.8166,-11.8205,-11.8188,-11.8149,-11.8032,-11.8032,-11.8032,-11.8032,-11.8032,-11.8032,-11.7915,-11.7564,-11.6845,-11.5248,-11.3917,-11.3049,-11.2563,-11.2298,-11.2163,-11.2101,-11.1996,-11.1847,-10.9023,-11.0312,-10.9648,-11.0781,-11.289,-11.3125,-11.3203,-11.3203,-11.3203,-11.3203,-11.3203,-11.3203,-11.3196,-11.3209,-11.3199,-11.3203,-11.3203,-11.3203,-11.3203,-11.3203,-11.3203,-11.3164,-11.3147,-11.3118,-11.3103,-11.3095,-11.3095,-11.3095,-11.3095,-11.3053,-11.3037,-11.2968,-11.2799,-11.2715,-11.2694,-11.2721,-11.2721,-11.2754,-11.2813,-11.2813,-11.283,-11.2845,-11.2864,-11.2864,-11.2864,-11.292,-11.2966,-11.2968,-11.3003,-11.3068,-11.3125,-11.315,-11.3111,-11.3103,-11.3103,-11.332,-11.386,-11.4453,-11.496,-11.5217,-11.5904,-11.6735,-11.7529,-11.7888,-11.8085,-11.8076,-11.8068,-11.8063,-11.8063,-11.8052,-11.8038,-11.8072,-11.8124,-11.8124,-11.8125,-11.8124,-11.8193,-11.8196,-11.8164,-11.8164,-11.8122,-11.8154,-11.8265,-11.8287,-11.8257,-11.8229,-11.8218,-11.8196,-11.8171,-11.8144,-11.813,-11.806,-11.8067,-11.8032,-11.8032,-11.8032,-11.8032,-11.8032,-11.8032,-11.8032,-11.8032,-11.8032,-11.8032,-11.7798,-11.7156,-11.6106,-11.4679,-11.3552,-11.2685,-11.235,-11.2196,-11.2097,-11.2067,-11.1923,-11.1848,-10.8672,-10.9609,-10.9375,-11.0468,-11.2226,-11.2929,-11.3203,-11.3203,-11.3203,-11.3203,-11.3203,-11.3203,-11.3203,-11.3199,-11.3203,-11.3203,-11.3203,-11.3203,-11.3203,-11.3203,-11.3203,-11.3203,-11.3196,-11.3176,-11.315,-11.3134,-11.3095,-11.3103,-11.3086,-11.3037,-11.2888,-11.2785,-11.2644,-11.2522,-11.2478,-11.2448,-11.2542,-11.2615,-11.2664,-11.2719,-11.2722,-11.276,-11.2783,-11.2793,-11.2793,-11.283,-11.2845,-11.2858,-11.2873,-11.2881,-11.2881,-11.2925,-11.3042,-11.304,-11.3042,-11.3044,-11.3238,-11.3366,-11.375,-11.4712,-11.5545,-11.6061,-11.7115,-11.7799,-11.7975,-11.7983,-11.7995,-11.7973,-11.7962,-11.795,-11.7962,-11.7975,-11.8006,-11.8013,-11.8013,-11.8063,-11.8076,-11.8063,-11.8045,-11.8058,-11.8029,-11.8124,-11.8219,-11.8272,-11.824,-11.82,-11.8196,-11.8132,-11.8105,-11.8115,-11.8083,-11.8067,-11.8011,-11.8032,-11.8032,-11.8032,-11.8032,-11.8032,-11.8032,-11.8032,-11.8032,-11.8032,-11.8032,-11.7468,-11.6495,-11.5401,-11.4174,-11.3256,-11.2379,-11.2228,-11.2135,-11.2028,-11.1957,-11.1847,-11.177,-10.8515,-10.9218,-10.8906,-10.9804,-11.1445,-11.2695,-11.3203,-11.3203,-11.3203,-11.3203,-11.3203,-11.3203,-11.3203,-11.3203,-11.3203,-11.3203,-11.3203,-11.3203,-11.3203,-11.3203,-11.3203,-11.3203,-11.3203,-11.3196,-11.3176,-11.3131,-11.3086,-11.3086,-11.3072,-11.2964,-11.2838,-11.2619,-11.2484,-11.2375,-11.2331,-11.2302,-11.2386,-11.2463,-11.2533,-11.2578,-11.2678,-11.271,-11.2727,-11.2719,-11.2719,-11.2748,-11.2748,-11.276,-11.2772,-11.2774,-11.2783,-11.2845,-11.292,-11.292,-11.292,-11.2912,-11.2861,-11.2889,-11.3177,-11.4434,-11.5019,-11.5689,-11.6748,-11.7566,-11.7837,-11.7855,-11.7855,-11.7837,-11.7872,-11.7888,-11.7881,-11.791,-11.7924,-11.795,-11.7923,-11.7973,-11.795,-11.791,-11.7898,-11.7923,-11.7983,-11.8076,-11.8164,-11.8196,-11.8219,-11.8162,-11.8122,-11.8145,-11.8105,-11.8083,-11.8067,-11.805,-11.8032,-11.8032,-11.8032,-11.8032,-11.8032,-11.8032,-11.8032,-11.8032,-11.8032,-11.7819,-11.7624,-11.6768,-11.5656,-11.4572,-11.3515,-11.2941,-11.2251,-11.2163,-11.2067,-11.1957,-11.1921,-11.1847,-11.1732,-10.8476,-10.914,-10.8515,-10.9336,-11.0859,-11.25,-11.3203,-11.3203,-11.3203,-11.3203,-11.3203,-11.3203,-11.3203,-11.3203,-11.3203,-11.3203,-11.3203,-11.3203,-11.3203,-11.3203,-11.3203,-11.3203,-11.3203,-11.3199,-11.3125,-11.3122,-11.3086,-11.3029,-11.3005,-11.2861,-11.2676,-11.2495,-11.2347,-11.2242,-11.2189,-11.2259,-11.2234,-11.1981,-11.2142,-11.2233,-11.2531,-11.2608,-11.2622,-11.2633,-11.2619,-11.2627,-11.2659,-11.2693,-11.2742,-11.276,-11.2754,-11.2783,-11.2803,-11.2813,-11.2813,-11.2783,-11.2719,-11.2693,-11.299,-11.4039,-11.465,-11.5457,-11.6545,-11.7206,-11.7396,-11.7691,-11.773,-11.7792,-11.7775,-11.7775,-11.7797,-11.78,-11.78,-11.7819,-11.7819,-11.7855,-11.7855,-11.7819,-11.78,-11.7833,-11.7898,-11.7992,-11.8111,-11.8163,-11.8161,-11.8118,-11.8123,-11.809,-11.808,-11.8044,-11.8011,-11.8032,-11.8032,-11.8032,-11.8032,-11.8032,-11.8032,-11.8032,-11.8032,-11.8032,-11.8032,-11.7663,-11.7216,-11.6027,-11.4796,-11.3799,-11.2863,-11.2437,-11.2228,-11.213,-11.2031,-11.1884,-11.1809,-11.1771,-11.1731,-10.8125,-10.8437,-10.9492,-11.0625,-11.1679,-11.2734,-11.3203,-11.3203,-11.3203,-11.3203,-11.3203,-11.3203,-11.3203,-11.3203,-11.3203,-11.3203,-11.3203,-11.3203,-11.3203,-11.3203,-11.3203,-11.3164,-11.3164,-11.3155,-11.3083,-11.2997,-11.293,-11.2853,-11.2758,-11.2616,-11.2514,-11.2406,-11.2259,-11.2157,-11.213,-11.2157,-11.191,-11.1545,-11.1477,-11.1831,-11.2272,-11.2505,-11.2622,-11.2583,-11.2569,-11.2608,-11.2627,-11.2627,-11.265,-11.2655,-11.2655,-11.2659,-11.2703,-11.2719,-11.2719,-11.2727,-11.2679,-11.2634,-11.29,-11.3566,-11.4163,-11.4681,-11.5535,-11.6273,-11.6856,-11.74,-11.7672,-11.7672,-11.7711,-11.7711,-11.7737,-11.7711,-11.7761,-11.7761,-11.7761,-11.7769,-11.7814,-11.7769,-11.7746,-11.7779,-11.7816,-11.7898,-11.8022,-11.8102,-11.812,-11.8122,-11.813,-11.8112,-11.8106,-11.8037,-11.8028,-11.7993,-11.8032,-11.8032,-11.8032,-11.8032,-11.8032,-11.8032,-11.8032,-11.8032,-11.7993,-11.7273,-11.6553,-11.5168,-11.395,-11.3139,-11.2583,-11.2344,-11.2097,-11.2067,-11.1957,-11.1847,-11.1771,-11.1692,-11.165,-10.8008,-10.8242,-10.9883,-11.0859,-11.1484,-11.2656,-11.3203,-11.3203,-11.3203,-11.3203,-11.3203,-11.3203,-11.3203,-11.3203,-11.3203,-11.3203,-11.3203,-11.3203,-11.3203,-11.3203,-11.3164,-11.3125,-11.3122,-11.3074,-11.2905,-11.2806,-11.2744,-11.2669,-11.244,-11.2457,-11.2401,-11.2217,-11.2101,-11.2024,-11.2024,-11.1853,-11.1445,-11.1041,-11.0817,-11.0977,-11.1573,-11.1767,-11.2,-11.2039,-11.235,-11.2505,-11.2622,-11.2622,-11.2622,-11.2583,-11.2608,-11.2619,-11.2655,-11.2677,-11.2638,-11.2655,-11.2604,-11.2622,-11.2816,-11.3204,-11.3709,-11.4214,-11.4875,-11.5768,-11.5807,-11.6312,-11.705,-11.7128,-11.7633,-11.7711,-11.7711,-11.7725,-11.7725,-11.7725,-11.7725,-11.775,-11.7736,-11.775,-11.7725,-11.7722,-11.7797,-11.7858,-11.7935,-11.8051,-11.8109,-11.8154,-11.8122,-11.8116,-11.8112,-11.808,-11.806,-11.8011,-11.8011,-11.8032,-11.8032,-11.8032,-11.8032,-11.8032,-11.7993,-11.7876,-11.772,-11.6785,-11.5774,-11.464,-11.3683,-11.2891,-11.2406,-11.2169,-11.2062,-11.1993,-11.1921,-11.1809,-11.1732,-11.1496,-11.1375,-10.8086,-10.8398,-10.9922,-11.0703,-11.1015,-11.25,-11.3203,-11.3203,-11.3203,-11.3203,-11.3203,-11.3203,-11.3203,-11.3203,-11.3203,-11.3203,-11.3164,-11.3125,-11.3125,-11.3125,-11.3086,-11.2955,-11.2889,-11.2847,-11.2729,-11.2602,-11.253,-11.2285,-11.2008,-11.1985,-11.1869,-11.183,-11.183,-11.1792,-11.1704,-11.1298,-11.0731,-11.0517,-11.0251,-10.976,-11.0135,-11.0718,-11.1223,-11.165,-11.2078,-11.2544,-11.2622,-11.2622,-11.2622,-11.2622,-11.2622,-11.2608,-11.2633,-11.2658,-11.2633,-11.2633,-11.2633,-11.2622,-11.2738,-11.3127,-11.3437,-11.3826,-11.4564,-11.4914,-11.4952,-11.5419,-11.6118,-11.674,-11.7245,-11.7478,-11.7478,-11.7478,-11.7478,-11.7516,-11.7516,-11.7633,-11.7672,-11.7672,-11.7672,-11.7699,-11.7722,-11.7753,-11.7839,-11.7943,-11.804,-11.807,-11.8115,-11.812,-11.8116,-11.8101,-11.808,-11.8021,-11.8028,-11.8011,-11.7993,-11.8032,-11.8032,-11.7876,-11.7798,-11.772,-11.7273,-11.6008,-11.5033,-11.4431,-11.3501,-11.269,-11.2337,-11.2135,-11.2031,-11.1957,-11.1847,-11.1693,-11.119,-11.107,-11.1025,-10.8437,-10.914,-11.0195,-11.0976,-11.1718,-11.2773,-11.3203,-11.3203,-11.3203,-11.3203,-11.3125,-11.3164,-11.3203,-11.3164,-11.3203,-11.3164,-11.3125,-11.3061,-11.2958,-11.2929,-11.2849,-11.2736,-11.2666,-11.2622,-11.255,-11.2434,-11.2241,-11.1787,-11.156,-11.125,-11.0747,-11.0244,-11.0128,-11.0394,-11.0963,-11.0477,-10.9994,-10.9808,-10.932,-10.8776,-10.8853,-10.9669,-11.1068,-11.165,-11.2155,-11.2466,-11.2622,-11.2622,-11.2622,-11.2622,-11.2622,-11.2622,-11.2622,-11.2622,-11.2622,-11.2622,-11.2622,-11.2622,-11.2777,-11.2894,-11.3049,-11.3088,-11.367,-11.4059,-11.4253,-11.4642,-11.5341,-11.6079,-11.6506,-11.6623,-11.6623,-11.6623,-11.6623,-11.6817,-11.6934,-11.7283,-11.7516,-11.7516,-11.7516,-11.7569,-11.7629,-11.7602,-11.7603,-11.7725,-11.7794,-11.7827,-11.779,-11.7812,-11.7691,-11.7856,-11.7973,-11.7885,-11.7787,-11.8011,-11.7993,-11.8032,-11.7993,-11.7798,-11.7447,-11.7019,-11.6221,-11.4859,-11.4073,-11.3877,-11.3251,-11.2406,-11.2163,-11.2101,-11.2031,-11.1921,-11.1847,-11.1577,-11.0957,-11.0451,-11.0333]}]]